| time (UTC) | temp F | wind direction | speed knots | gust knots | rain 1hr in | rain 24hr in | rain mn in | humidity % | barometer mb |
| 20260507230203 | 47 | 219 | 2.6 | 7.0 | 0.00 | 0.00 | 0.00 | 92 | 1002.1 |
| 20260507230003 | 47 | 217 | 2.6 | 7.0 | 0.00 | 0.00 | 0.00 | 92 | 1002.1 |
| 20260507225903 | 47 | 219 | 2.6 | 7.0 | 0.00 | 0.00 | 0.00 | 92 | 1002.1 |
| 20260507225803 | 47 | 220 | 2.6 | 7.0 | 0.00 | 0.00 | 0.00 | 92 | 1002.2 |
| 20260507225703 | 47 | 221 | 2.6 | 7.0 | 0.00 | 0.00 | 0.00 | 92 | 1002.2 |
| 20260507225624 | 47 | 220 | 3.5 | 7.0 | 0.00 | 0.00 | 0.00 | 92 | 1002.3 |
| 20260507225503 | 47 | 222 | 2.6 | 7.0 | 0.00 | 0.00 | 0.00 | 92 | 1002.3 |
| 20260507225403 | 47 | 223 | 2.6 | 6.1 | 0.00 | 0.00 | 0.00 | 92 | 1002.3 |
| 20260507225324 | 47 | 224 | 2.6 | 6.1 | 0.00 | 0.00 | 0.00 | 92 | 1002.3 |
| 20260507225203 | 47 | 226 | 2.6 | 6.1 | 0.00 | 0.00 | 0.00 | 91 | 1002.1 |
| 20260507225103 | 47 | 228 | 2.6 | 6.1 | 0.00 | 0.00 | 0.00 | 91 | 1002.2 |
| 20260507225024 | 47 | 229 | 2.6 | 6.1 | 0.00 | 0.00 | 0.00 | 91 | 1002.2 |
| 20260507224924 | 47 | 230 | 2.6 | 6.1 | 0.00 | 0.00 | 0.00 | 91 | 1002.2 |
| 20260507224803 | 47 | 231 | 2.6 | 6.1 | 0.00 | 0.00 | 0.00 | 91 | 1002.1 |
| 20260507224703 | 47 | 229 | 2.6 | 6.1 | 0.00 | 0.00 | 0.00 | 91 | 1002.4 |
| 20260507224604 | 47 | 232 | 2.6 | 5.2 | 0.00 | 0.00 | 0.00 | 91 | 1002.2 |
| 20260507224504 | 47 | 233 | 2.6 | 5.2 | 0.00 | 0.00 | 0.00 | 91 | 1002.3 |
| 20260507224403 | 47 | 233 | 2.6 | 5.2 | 0.00 | 0.00 | 0.00 | 91 | 1002.2 |
| 20260507224303 | 47 | 233 | 2.6 | 5.2 | 0.00 | 0.00 | 0.00 | 91 | 1002.1 |
| 20260507224224 | 47 | 231 | 2.6 | 5.2 | 0.00 | 0.00 | 0.00 | 91 | 1002.3 |
| 20260507224103 | 47 | 229 | 3.5 | 5.2 | 0.00 | 0.00 | 0.00 | 91 | 1002.4 |
| 20260507224003 | 47 | 229 | 2.6 | 5.2 | 0.00 | 0.00 | 0.00 | 91 | 1002.1 |
| 20260507223903 | 47 | 229 | 2.6 | 5.2 | 0.00 | 0.00 | 0.00 | 90 | 1002.1 |
| 20260507223803 | 47 | 230 | 2.6 | 5.2 | 0.00 | 0.00 | 0.00 | 91 | 1002.1 |
| 20260507223724 | 47 | 231 | 2.6 | 5.2 | 0.00 | 0.00 | 0.00 | 91 | 1002.1 |
| 20260507223603 | 47 | 231 | 2.6 | 6.1 | 0.00 | 0.00 | 0.00 | 90 | 1002.1 |
| 20260507223503 | 47 | 232 | 2.6 | 6.1 | 0.00 | 0.00 | 0.00 | 90 | 1002.1 |
| 20260507223403 | 47 | 233 | 2.6 | 6.1 | 0.00 | 0.00 | 0.00 | 90 | 1002.3 |
| 20260507223324 | 47 | 233 | 2.6 | 6.1 | 0.00 | 0.00 | 0.00 | 90 | 1002.3 |
| 20260507223203 | 48 | 236 | 2.6 | 6.1 | 0.00 | 0.00 | 0.00 | 90 | 1002.3 |
| 20260507223124 | 48 | 237 | 2.6 | 6.1 | 0.00 | 0.00 | 0.00 | 90 | 1002.3 |
| 20260507223003 | 48 | 238 | 2.6 | 6.1 | 0.00 | 0.00 | 0.00 | 90 | 1002.4 |
| 20260507222903 | 48 | 239 | 3.5 | 6.1 | 0.00 | 0.00 | 0.00 | 90 | 1002.3 |
| 20260507222803 | 48 | 238 | 3.5 | 6.1 | 0.00 | 0.00 | 0.00 | 90 | 1002.3 |
| 20260507222704 | 48 | 238 | 3.5 | 6.1 | 0.00 | 0.00 | 0.00 | 89 | 1002.2 |
| 20260507222603 | 48 | 241 | 3.5 | 6.1 | 0.00 | 0.00 | 0.00 | 89 | 1002.2 |
| 20260507222524 | 48 | 242 | 3.5 | 6.1 | 0.00 | 0.00 | 0.00 | 89 | 1002.3 |
| 20260507222403 | 48 | 241 | 3.5 | 6.1 | 0.00 | 0.00 | 0.00 | 89 | 1002.2 |
| 20260507222306 | 48 | 242 | 3.5 | 6.1 | 0.00 | 0.00 | 0.00 | 89 | 1002.2 |
| 20260507222203 | 48 | 243 | 3.5 | 6.1 | 0.00 | 0.00 | 0.00 | 89 | 1002.2 |
| 20260507222103 | 48 | 241 | 3.5 | 6.1 | 0.00 | 0.00 | 0.00 | 89 | 1002.2 |
| 20260507222003 | 48 | 242 | 3.5 | 6.1 | 0.00 | 0.00 | 0.00 | 89 | 1002.2 |
| 20260507221903 | 48 | 243 | 3.5 | 6.1 | 0.00 | 0.00 | 0.00 | 89 | 1002.0 |
| 20260507221824 | 48 | 244 | 3.5 | 6.1 | 0.00 | 0.00 | 0.00 | 89 | 1002.0 |
| 20260507221703 | 48 | 245 | 3.5 | 5.2 | 0.00 | 0.00 | 0.00 | 89 | 1002.1 |
| 20260507221603 | 48 | 246 | 3.5 | 5.2 | 0.00 | 0.00 | 0.00 | 89 | 1002.1 |
| 20260507221503 | 48 | 247 | 3.5 | 5.2 | 0.00 | 0.00 | 0.00 | 89 | 1002.4 |
| 20260507221403 | 48 | 250 | 3.5 | 6.1 | 0.00 | 0.00 | 0.00 | 88 | 1002.2 |
| 20260507221303 | 48 | 249 | 3.5 | 7.8 | 0.00 | 0.00 | 0.00 | 88 | 1002.1 |
| 20260507221203 | 48 | 249 | 3.5 | 7.8 | 0.00 | 0.00 | 0.00 | 88 | 1002.3 |
| 20260507221103 | 48 | 249 | 3.5 | 7.8 | 0.00 | 0.00 | 0.00 | 88 | 1002.3 |
| 20260507221003 | 48 | 249 | 3.5 | 7.8 | 0.00 | 0.00 | 0.00 | 88 | 1002.3 |
| 20260507220903 | 48 | 248 | 3.5 | 7.8 | 0.00 | 0.00 | 0.00 | 88 | 1002.2 |
| 20260507220824 | 48 | 248 | 3.5 | 7.8 | 0.00 | 0.00 | 0.00 | 88 | 1002.1 |
| 20260507220703 | 48 | 247 | 3.5 | 7.8 | 0.00 | 0.00 | 0.00 | 88 | 1002.3 |
| 20260507220603 | 48 | 247 | 3.5 | 7.8 | 0.00 | 0.00 | 0.00 | 88 | 1002.2 |
| 20260507220503 | 48 | 245 | 3.5 | 7.8 | 0.00 | 0.00 | 0.00 | 88 | 1002.0 |
| 20260507220403 | 48 | 243 | 3.5 | 7.8 | 0.00 | 0.00 | 0.00 | 87 | 1002.3 |
| 20260507220303 | 48 | 243 | 3.5 | 7.8 | 0.00 | 0.00 | 0.00 | 87 | 1002.2 |
| 20260507220203 | 48 | 243 | 3.5 | 6.1 | 0.00 | 0.00 | 0.00 | 87 | 1002.3 |
| 20260507220003 | 49 | 239 | 3.5 | 6.1 | 0.00 | 0.00 | 0.00 | 87 | 1002.3 |
| 20260507215924 | 49 | 239 | 3.5 | 6.1 | 0.00 | 0.00 | 0.00 | 87 | 1002.2 |
| 20260507215803 | 49 | 238 | 3.5 | 6.1 | 0.00 | 0.00 | 0.00 | 87 | 1002.0 |
| 20260507215703 | 49 | 239 | 3.5 | 6.1 | 0.00 | 0.00 | 0.00 | 87 | 1002.2 |
| 20260507215603 | 49 | 236 | 3.5 | 6.1 | 0.00 | 0.00 | 0.00 | 87 | 1002.2 |
| 20260507215503 | 49 | 237 | 3.5 | 6.1 | 0.00 | 0.00 | 0.00 | 87 | 1002.3 |
| 20260507215403 | 49 | 238 | 3.5 | 6.1 | 0.00 | 0.00 | 0.00 | 87 | 1002.3 |
| 20260507215306 | 49 | 239 | 3.5 | 6.1 | 0.00 | 0.00 | 0.00 | 87 | 1002.2 |
| 20260507215203 | 49 | 240 | 3.5 | 6.1 | 0.00 | 0.00 | 0.00 | 86 | 1002.2 |
| 20260507215124 | 49 | 242 | 3.5 | 6.1 | 0.00 | 0.00 | 0.00 | 87 | 1002.2 |
| 20260507215003 | 49 | 245 | 3.5 | 6.1 | 0.00 | 0.00 | 0.00 | 86 | 1002.1 |
| 20260507214903 | 49 | 246 | 3.5 | 6.1 | 0.00 | 0.00 | 0.00 | 86 | 1002.4 |
| 20260507214824 | 49 | 247 | 3.5 | 6.1 | 0.00 | 0.00 | 0.00 | 86 | 1002.4 |
| 20260507214703 | 49 | 250 | 3.5 | 6.1 | 0.00 | 0.00 | 0.00 | 86 | 1002.2 |
| 20260507214603 | 49 | 252 | 2.6 | 6.1 | 0.00 | 0.00 | 0.00 | 86 | 1002.2 |
| 20260507214503 | 49 | 252 | 3.5 | 6.1 | 0.00 | 0.00 | 0.00 | 86 | 1002.3 |
| 20260507214424 | 49 | 252 | 2.6 | 6.1 | 0.00 | 0.00 | 0.00 | 86 | 1002.3 |
| 20260507214303 | 49 | 251 | 3.5 | 6.1 | 0.00 | 0.00 | 0.00 | 85 | 1002.2 |
| 20260507214203 | 49 | 250 | 3.5 | 6.1 | 0.00 | 0.00 | 0.00 | 85 | 1002.2 |
| 20260507214124 | 49 | 248 | 3.5 | 6.1 | 0.00 | 0.00 | 0.00 | 85 | 1002.2 |
| 20260507214003 | 49 | 245 | 2.6 | 6.1 | 0.00 | 0.00 | 0.00 | 85 | 1002.2 |
| 20260507213924 | 49 | 245 | 2.6 | 6.1 | 0.00 | 0.00 | 0.00 | 85 | 1002.2 |
| 20260507213824 | 49 | 244 | 2.6 | 6.1 | 0.00 | 0.00 | 0.00 | 85 | 1002.3 |
| 20260507213703 | 49 | 243 | 3.5 | 6.1 | 0.00 | 0.00 | 0.00 | 85 | 1002.0 |
| 20260507213624 | 49 | 242 | 3.5 | 6.1 | 0.00 | 0.00 | 0.00 | 85 | 1002.1 |
| 20260507213525 | 49 | 240 | 2.6 | 6.1 | 0.00 | 0.00 | 0.00 | 85 | 1002.2 |
| 20260507213424 | 49 | 239 | 3.5 | 6.1 | 0.00 | 0.00 | 0.00 | 85 | 1002.2 |
| 20260507213303 | 49 | 237 | 3.5 | 6.1 | 0.00 | 0.00 | 0.00 | 85 | 1002.1 |
| 20260507213203 | 49 | 239 | 2.6 | 6.1 | 0.00 | 0.00 | 0.00 | 85 | 1002.1 |
| 20260507213103 | 49 | 241 | 2.6 | 6.1 | 0.00 | 0.00 | 0.00 | 84 | 1002.1 |
| 20260507213003 | 49 | 238 | 2.6 | 6.1 | 0.00 | 0.00 | 0.00 | 84 | 1002.1 |
| 20260507212905 | 49 | 237 | 3.5 | 6.1 | 0.00 | 0.00 | 0.00 | 84 | 1002.2 |
| 20260507212824 | 49 | 238 | 3.5 | 6.1 | 0.00 | 0.00 | 0.00 | 84 | 1002.2 |
| 20260507212703 | 49 | 237 | 3.5 | 6.1 | 0.00 | 0.00 | 0.00 | 84 | 1002.0 |
| 20260507212603 | 49 | 239 | 3.5 | 7.0 | 0.00 | 0.00 | 0.00 | 84 | 1002.0 |
| 20260507212503 | 49 | 241 | 3.5 | 7.0 | 0.00 | 0.00 | 0.00 | 84 | 1002.0 |
| 20260507212403 | 49 | 241 | 3.5 | 7.0 | 0.00 | 0.00 | 0.00 | 84 | 1002.0 |
| 20260507212306 | 49 | 241 | 3.5 | 7.0 | 0.00 | 0.00 | 0.00 | 84 | 1002.2 |
| 20260507212203 | 49 | 241 | 3.5 | 7.0 | 0.00 | 0.00 | 0.00 | 84 | 1002.2 |
| 20260507212103 | 49 | 243 | 3.5 | 7.0 | 0.00 | 0.00 | 0.00 | 84 | 1002.1 |
| 20260507212003 | 49 | 246 | 2.6 | 7.0 | 0.00 | 0.00 | 0.00 | 84 | 1002.2 |
| 20260507211903 | 49 | 246 | 2.6 | 7.0 | 0.00 | 0.00 | 0.00 | 84 | 1002.2 |
| 20260507211803 | 49 | 246 | 2.6 | 7.0 | 0.00 | 0.00 | 0.00 | 84 | 1002.1 |
| 20260507211704 | 49 | 246 | 2.6 | 7.0 | 0.00 | 0.00 | 0.00 | 84 | 1002.1 |
| 20260507211604 | 49 | 243 | 2.6 | 7.0 | 0.00 | 0.00 | 0.00 | 84 | 1002.0 |
| 20260507211504 | 49 | 242 | 2.6 | 7.0 | 0.00 | 0.00 | 0.00 | 84 | 1002.1 |
| 20260507211405 | 49 | 240 | 2.6 | 5.2 | 0.00 | 0.00 | 0.00 | 84 | 1002.1 |
| 20260507211305 | 49 | 233 | 2.6 | 5.2 | 0.00 | 0.00 | 0.00 | 84 | 1002.0 |
| 20260507211225 | 49 | 230 | 2.6 | 5.2 | 0.00 | 0.00 | 0.00 | 84 | 1002.0 |
| 20260507211104 | 49 | 222 | 2.6 | 5.2 | 0.00 | 0.00 | 0.00 | 84 | 1002.0 |
| 20260507211004 | 49 | 220 | 2.6 | 5.2 | 0.00 | 0.00 | 0.00 | 84 | 1002.1 |
| 20260507210905 | 49 | 219 | 2.6 | 5.2 | 0.00 | 0.00 | 0.00 | 84 | 1001.9 |
| 20260507210804 | 49 | 219 | 2.6 | 5.2 | 0.00 | 0.00 | 0.00 | 84 | 1002.1 |
| 20260507210704 | 49 | 220 | 2.6 | 6.1 | 0.00 | 0.00 | 0.00 | 83 | 1002.0 |
| 20260507210625 | 49 | 218 | 2.6 | 6.1 | 0.00 | 0.00 | 0.00 | 83 | 1002.1 |
| 20260507210526 | 49 | 219 | 2.6 | 6.1 | 0.00 | 0.00 | 0.00 | 83 | 1002.0 |
| 20260507210404 | 50 | 222 | 2.6 | 6.1 | 0.00 | 0.00 | 0.00 | 83 | 1002.0 |
| 20260507210304 | 50 | 226 | 2.6 | 6.1 | 0.00 | 0.00 | 0.00 | 83 | 1002.1 |
| 20260507210205 | 50 | 228 | 2.6 | 6.1 | 0.00 | 0.00 | 0.00 | 83 | 1002.2 |
| 20260507210104 | 50 | 232 | 2.6 | 6.1 | 0.00 | 0.00 | 0.00 | 83 | 1002.0 |
| 20260507210005 | 50 | 232 | 2.6 | 6.1 | 0.00 | 0.00 | 0.00 | 83 | 1002.2 |
| 20260507205904 | 50 | 234 | 2.6 | 6.1 | 0.00 | 0.00 | 0.00 | 83 | 1002.1 |
| 20260507205805 | 50 | 234 | 2.6 | 6.1 | 0.00 | 0.00 | 0.00 | 83 | 1002.2 |
| 20260507205725 | 50 | 235 | 2.6 | 6.1 | 0.00 | 0.00 | 0.00 | 82 | 1002.2 |
| 20260507205604 | 50 | 237 | 2.6 | 6.1 | 0.00 | 0.00 | 0.00 | 82 | 1002.1 |
| 20260507205525 | 50 | 235 | 2.6 | 6.1 | 0.00 | 0.00 | 0.00 | 82 | 1002.1 |
| 20260507205425 | 50 | 235 | 2.6 | 6.1 | 0.00 | 0.00 | 0.00 | 82 | 1001.9 |
| 20260507205325 | 50 | 236 | 2.6 | 5.2 | 0.00 | 0.00 | 0.00 | 82 | 1002.0 |
| 20260507205205 | 50 | 235 | 2.6 | 5.2 | 0.00 | 0.00 | 0.00 | 82 | 1002.1 |
| 20260507205125 | 50 | 233 | 2.6 | 5.2 | 0.00 | 0.00 | 0.00 | 82 | 1002.2 |
| 20260507205004 | 50 | 234 | 2.6 | 5.2 | 0.00 | 0.00 | 0.00 | 82 | 1001.9 |
| 20260507204904 | 50 | 237 | 2.6 | 5.2 | 0.00 | 0.00 | 0.00 | 82 | 1002.1 |
| 20260507204825 | 50 | 238 | 2.6 | 5.2 | 0.00 | 0.00 | 0.00 | 82 | 1002.1 |
| 20260507204705 | 50 | 236 | 2.6 | 5.2 | 0.00 | 0.00 | 0.00 | 82 | 1002.2 |
| 20260507204604 | 50 | 235 | 2.6 | 5.2 | 0.00 | 0.00 | 0.00 | 81 | 1002.1 |
| 20260507204505 | 50 | 235 | 3.5 | 5.2 | 0.00 | 0.00 | 0.00 | 82 | 1002.1 |
| 20260507204404 | 50 | 237 | 3.5 | 5.2 | 0.00 | 0.00 | 0.00 | 81 | 1002.3 |
| 20260507204304 | 50 | 239 | 3.5 | 5.2 | 0.00 | 0.00 | 0.00 | 81 | 1002.0 |
| 20260507204205 | 50 | 242 | 2.6 | 5.2 | 0.00 | 0.00 | 0.00 | 81 | 1001.9 |
| 20260507204104 | 50 | 244 | 2.6 | 6.1 | 0.00 | 0.00 | 0.00 | 81 | 1001.9 |
| 20260507204005 | 50 | 244 | 3.5 | 6.1 | 0.00 | 0.00 | 0.00 | 81 | 1002.1 |
| 20260507203904 | 50 | 242 | 3.5 | 6.1 | 0.00 | 0.00 | 0.00 | 81 | 1002.0 |
| 20260507203804 | 50 | 242 | 3.5 | 6.1 | 0.00 | 0.00 | 0.00 | 81 | 1001.9 |
| 20260507203704 | 50 | 245 | 3.5 | 6.1 | 0.00 | 0.00 | 0.00 | 81 | 1002.0 |
| 20260507203605 | 50 | 244 | 3.5 | 6.1 | 0.00 | 0.00 | 0.00 | 81 | 1001.8 |
| 20260507203504 | 50 | 244 | 3.5 | 7.0 | 0.00 | 0.00 | 0.00 | 81 | 1002.0 |
| 20260507203405 | 51 | 245 | 3.5 | 7.0 | 0.00 | 0.00 | 0.00 | 81 | 1002.2 |
| 20260507203304 | 51 | 244 | 3.5 | 7.0 | 0.00 | 0.00 | 0.00 | 81 | 1002.1 |
| 20260507203205 | 51 | 243 | 3.5 | 7.0 | 0.00 | 0.00 | 0.00 | 80 | 1002.0 |
| 20260507203104 | 51 | 246 | 3.5 | 7.0 | 0.00 | 0.00 | 0.00 | 80 | 1002.0 |
| 20260507203004 | 51 | 244 | 4.3 | 7.0 | 0.00 | 0.00 | 0.00 | 80 | 1002.2 |
| 20260507202904 | 51 | 244 | 4.3 | 7.0 | 0.00 | 0.00 | 0.00 | 80 | 1002.1 |
| 20260507202825 | 51 | 242 | 4.3 | 7.0 | 0.00 | 0.00 | 0.00 | 80 | 1002.0 |
| 20260507202704 | 51 | 242 | 3.5 | 7.0 | 0.00 | 0.00 | 0.00 | 80 | 1002.1 |
| 20260507202604 | 51 | 244 | 3.5 | 7.0 | 0.00 | 0.00 | 0.00 | 80 | 1002.1 |
| 20260507202504 | 51 | 243 | 4.3 | 7.0 | 0.00 | 0.00 | 0.00 | 80 | 1002.1 |
| 20260507202425 | 51 | 243 | 3.5 | 7.0 | 0.00 | 0.00 | 0.00 | 80 | 1002.0 |
| 20260507202307 | 51 | 244 | 4.3 | 7.0 | 0.00 | 0.00 | 0.00 | 80 | 1001.8 |
| 20260507202204 | 51 | 242 | 4.3 | 7.0 | 0.00 | 0.00 | 0.00 | 80 | 1002.2 |
| 20260507202104 | 51 | 239 | 3.5 | 7.0 | 0.00 | 0.00 | 0.00 | 80 | 1001.8 |
| 20260507202005 | 51 | 238 | 3.5 | 7.0 | 0.00 | 0.00 | 0.00 | 80 | 1001.9 |
| 20260507201904 | 51 | 239 | 3.5 | 6.1 | 0.00 | 0.00 | 0.00 | 80 | 1001.8 |
| 20260507201805 | 51 | 239 | 3.5 | 6.1 | 0.00 | 0.00 | 0.00 | 80 | 1001.6 |
| 20260507201704 | 51 | 238 | 3.5 | 6.1 | 0.00 | 0.00 | 0.00 | 80 | 1002.0 |
| 20260507201604 | 51 | 239 | 3.5 | 6.1 | 0.00 | 0.00 | 0.00 | 79 | 1001.8 |
| 20260507201504 | 51 | 240 | 3.5 | 6.1 | 0.00 | 0.00 | 0.00 | 80 | 1001.9 |
| 20260507201404 | 51 | 240 | 3.5 | 6.1 | 0.00 | 0.00 | 0.00 | 80 | 1001.8 |
| 20260507201326 | 51 | 238 | 3.5 | 6.1 | 0.00 | 0.00 | 0.00 | 80 | 1001.8 |
| 20260507201225 | 51 | 239 | 3.5 | 6.1 | 0.00 | 0.00 | 0.00 | 80 | 1001.9 |
| 20260507201126 | 51 | 241 | 3.5 | 6.1 | 0.00 | 0.00 | 0.00 | 80 | 1001.9 |
| 20260507201004 | 51 | 244 | 3.5 | 6.1 | 0.00 | 0.00 | 0.00 | 80 | 1001.8 |
| 20260507200904 | 51 | 247 | 3.5 | 6.1 | 0.00 | 0.00 | 0.00 | 80 | 1001.7 |
| 20260507200805 | 51 | 247 | 3.5 | 6.1 | 0.00 | 0.00 | 0.00 | 80 | 1001.9 |
| 20260507200704 | 51 | 247 | 3.5 | 6.1 | 0.00 | 0.00 | 0.00 | 80 | 1001.8 |
| 20260507200604 | 51 | 245 | 3.5 | 6.1 | 0.00 | 0.00 | 0.00 | 80 | 1001.5 |
| 20260507200504 | 51 | 244 | 3.5 | 6.1 | 0.00 | 0.00 | 0.00 | 80 | 1001.8 |
| 20260507200405 | 51 | 245 | 3.5 | 6.1 | 0.00 | 0.00 | 0.00 | 80 | 1001.7 |
| 20260507200304 | 51 | 246 | 3.5 | 6.1 | 0.00 | 0.00 | 0.00 | 80 | 1001.8 |
| 20260507200226 | 51 | 246 | 3.5 | 6.1 | 0.00 | 0.00 | 0.00 | 80 | 1001.8 |
| 20260507200125 | 51 | 246 | 3.5 | 6.1 | 0.00 | 0.00 | 0.00 | 80 | 1001.7 |
| 20260507200004 | 51 | 245 | 3.5 | 6.1 | 0.00 | 0.00 | 0.00 | 79 | 1001.6 |
| 20260507195904 | 51 | 242 | 3.5 | 6.1 | 0.00 | 0.00 | 0.00 | 79 | 1001.7 |
| 20260507195804 | 51 | 241 | 3.5 | 6.1 | 0.00 | 0.00 | 0.00 | 79 | 1001.7 |
| 20260507195704 | 51 | 241 | 3.5 | 6.1 | 0.00 | 0.00 | 0.00 | 79 | 1001.8 |
| 20260507195604 | 51 | 241 | 3.5 | 6.1 | 0.00 | 0.00 | 0.00 | 79 | 1001.7 |
| 20260507195526 | 51 | 240 | 3.5 | 6.1 | 0.00 | 0.00 | 0.00 | 79 | 1001.7 |
| 20260507195404 | 51 | 242 | 3.5 | 6.1 | 0.00 | 0.00 | 0.00 | 79 | 1001.8 |
| 20260507195305 | 51 | 242 | 3.5 | 6.1 | 0.00 | 0.00 | 0.00 | 78 | 1001.7 |
| 20260507195205 | 51 | 240 | 3.5 | 6.1 | 0.00 | 0.00 | 0.00 | 79 | 1001.6 |
| 20260507195104 | 51 | 240 | 3.5 | 7.8 | 0.00 | 0.00 | 0.00 | 79 | 1001.6 |
| 20260507195025 | 51 | 238 | 3.5 | 7.8 | 0.00 | 0.00 | 0.00 | 78 | 1001.8 |
| 20260507194904 | 51 | 238 | 4.3 | 7.8 | 0.00 | 0.00 | 0.00 | 78 | 1001.6 |
| 20260507194825 | 51 | 237 | 3.5 | 7.8 | 0.00 | 0.00 | 0.00 | 78 | 1001.7 |
| 20260507194704 | 51 | 237 | 3.5 | 7.8 | 0.00 | 0.00 | 0.00 | 78 | 1001.8 |
| 20260507194604 | 51 | 238 | 3.5 | 7.8 | 0.00 | 0.00 | 0.00 | 78 | 1001.4 |
| 20260507194504 | 51 | 237 | 3.5 | 7.8 | 0.00 | 0.00 | 0.00 | 78 | 1001.5 |
| 20260507194405 | 51 | 234 | 3.5 | 7.8 | 0.00 | 0.00 | 0.00 | 78 | 1001.6 |
| 20260507194304 | 51 | 233 | 3.5 | 7.8 | 0.00 | 0.00 | 0.00 | 78 | 1001.5 |
| 20260507194204 | 51 | 234 | 3.5 | 7.8 | 0.00 | 0.00 | 0.00 | 78 | 1001.6 |
| 20260507194104 | 51 | 234 | 3.5 | 7.8 | 0.00 | 0.00 | 0.00 | 78 | 1001.5 |
| 20260507194004 | 51 | 235 | 3.5 | 7.8 | 0.00 | 0.00 | 0.00 | 78 | 1001.7 |
| 20260507193904 | 51 | 237 | 3.5 | 7.8 | 0.00 | 0.00 | 0.00 | 78 | 1001.6 |
| 20260507193804 | 51 | 240 | 3.5 | 7.0 | 0.00 | 0.00 | 0.00 | 78 | 1001.7 |
| 20260507193704 | 51 | 240 | 3.5 | 7.8 | 0.00 | 0.00 | 0.00 | 78 | 1001.6 |
| 20260507193604 | 51 | 241 | 3.5 | 7.8 | 0.00 | 0.00 | 0.00 | 78 | 1001.4 |
| 20260507193504 | 51 | 243 | 3.5 | 7.8 | 0.00 | 0.00 | 0.00 | 78 | 1001.4 |
| 20260507193404 | 51 | 244 | 4.3 | 7.8 | 0.00 | 0.00 | 0.00 | 78 | 1001.4 |
| 20260507193325 | 51 | 243 | 4.3 | 7.8 | 0.00 | 0.00 | 0.00 | 77 | 1001.5 |
| 20260507193204 | 51 | 243 | 4.3 | 7.8 | 0.00 | 0.00 | 0.00 | 78 | 1001.4 |
| 20260507193104 | 51 | 243 | 3.5 | 7.8 | 0.00 | 0.00 | 0.00 | 78 | 1001.6 |
| 20260507193004 | 51 | 243 | 3.5 | 7.8 | 0.00 | 0.00 | 0.00 | 77 | 1001.3 |
| 20260507192904 | 51 | 243 | 3.5 | 7.8 | 0.00 | 0.00 | 0.00 | 78 | 1001.6 |
| 20260507192804 | 51 | 243 | 3.5 | 7.8 | 0.00 | 0.00 | 0.00 | 78 | 1001.5 |
| 20260507192704 | 51 | 240 | 3.5 | 7.8 | 0.00 | 0.00 | 0.00 | 77 | 1001.5 |
| 20260507192604 | 51 | 240 | 3.5 | 7.8 | 0.00 | 0.00 | 0.00 | 77 | 1001.4 |
| 20260507192504 | 51 | 236 | 3.5 | 6.1 | 0.00 | 0.00 | 0.00 | 77 | 1001.5 |
| 20260507192404 | 51 | 237 | 3.5 | 6.1 | 0.00 | 0.00 | 0.00 | 77 | 1001.5 |
| 20260507192306 | 51 | 236 | 3.5 | 6.1 | 0.00 | 0.00 | 0.00 | 77 | 1001.6 |
| 20260507192205 | 51 | 237 | 3.5 | 6.1 | 0.00 | 0.00 | 0.00 | 77 | 1001.6 |
| 20260507192104 | 51 | 235 | 3.5 | 6.1 | 0.00 | 0.00 | 0.00 | 77 | 1001.4 |
| 20260507192004 | 51 | 231 | 2.6 | 6.1 | 0.00 | 0.00 | 0.00 | 77 | 1001.6 |
| 20260507191905 | 51 | 227 | 2.6 | 6.1 | 0.00 | 0.00 | 0.00 | 77 | 1001.5 |
| 20260507191804 | 51 | 224 | 2.6 | 6.1 | 0.00 | 0.00 | 0.00 | 77 | 1001.3 |
| 20260507191704 | 51 | 226 | 3.5 | 6.1 | 0.00 | 0.00 | 0.00 | 77 | 1001.4 |
| 20260507191604 | 51 | 226 | 2.6 | 6.1 | 0.00 | 0.00 | 0.00 | 76 | 1001.5 |
| 20260507191504 | 51 | 229 | 2.6 | 6.1 | 0.00 | 0.00 | 0.00 | 76 | 1001.6 |
| 20260507191404 | 51 | 229 | 2.6 | 6.1 | 0.00 | 0.00 | 0.00 | 76 | 1001.5 |
| 20260507191325 | 51 | 230 | 3.5 | 6.1 | 0.00 | 0.00 | 0.00 | 76 | 1001.4 |
| 20260507191204 | 51 | 230 | 3.5 | 6.1 | 0.00 | 0.00 | 0.00 | 76 | 1001.5 |
| 20260507191104 | 51 | 228 | 3.5 | 6.1 | 0.00 | 0.00 | 0.00 | 76 | 1001.5 |
| 20260507191004 | 51 | 230 | 3.5 | 6.1 | 0.00 | 0.00 | 0.00 | 76 | 1001.4 |
| 20260507190904 | 51 | 232 | 3.5 | 6.1 | 0.00 | 0.00 | 0.00 | 76 | 1001.5 |
| 20260507190825 | 51 | 233 | 3.5 | 6.1 | 0.00 | 0.00 | 0.00 | 76 | 1001.4 |
| 20260507190705 | 51 | 229 | 3.5 | 6.1 | 0.00 | 0.00 | 0.00 | 76 | 1001.2 |
| 20260507190604 | 52 | 228 | 3.5 | 6.1 | 0.00 | 0.00 | 0.00 | 76 | 1001.5 |
| 20260507190505 | 52 | 224 | 3.5 | 6.1 | 0.00 | 0.00 | 0.00 | 76 | 1001.4 |
| 20260507190404 | 52 | 221 | 3.5 | 6.1 | 0.00 | 0.00 | 0.00 | 76 | 1001.5 |
| 20260507190305 | 52 | 219 | 3.5 | 6.1 | 0.00 | 0.00 | 0.00 | 75 | 1001.2 |
| 20260507190204 | 52 | 219 | 3.5 | 7.0 | 0.00 | 0.00 | 0.00 | 75 | 1001.4 |
| 20260507190126 | 52 | 220 | 3.5 | 7.0 | 0.00 | 0.00 | 0.00 | 75 | 1001.6 |
| 20260507190005 | 52 | 220 | 3.5 | 7.0 | 0.00 | 0.00 | 0.00 | 75 | 1001.6 |
| 20260507185925 | 52 | 221 | 3.5 | 7.0 | 0.00 | 0.00 | 0.00 | 75 | 1001.6 |
| 20260507185804 | 52 | 223 | 3.5 | 7.0 | 0.00 | 0.00 | 0.00 | 75 | 1001.5 |
| 20260507185704 | 52 | 226 | 3.5 | 7.0 | 0.00 | 0.00 | 0.00 | 75 | 1001.5 |
| 20260507185625 | 52 | 227 | 3.5 | 7.0 | 0.00 | 0.00 | 0.00 | 75 | 1001.5 |
| 20260507185504 | 52 | 228 | 3.5 | 7.8 | 0.00 | 0.00 | 0.00 | 75 | 1001.3 |
| 20260507185404 | 52 | 227 | 4.3 | 7.8 | 0.00 | 0.00 | 0.00 | 74 | 1001.4 |
| 20260507185306 | 52 | 228 | 3.5 | 7.8 | 0.00 | 0.00 | 0.00 | 75 | 1001.4 |
| 20260507185205 | 52 | 230 | 3.5 | 8.7 | 0.00 | 0.00 | 0.00 | 75 | 1001.3 |
| 20260507185104 | 52 | 230 | 4.3 | 8.7 | 0.00 | 0.00 | 0.00 | 74 | 1001.3 |
| 20260507185004 | 52 | 229 | 4.3 | 8.7 | 0.00 | 0.00 | 0.00 | 75 | 1001.4 |
| 20260507184904 | 52 | 227 | 4.3 | 8.7 | 0.00 | 0.00 | 0.00 | 74 | 1001.2 |
| 20260507184804 | 52 | 227 | 4.3 | 8.7 | 0.00 | 0.00 | 0.00 | 75 | 1001.4 |
| 20260507184725 | 52 | 229 | 4.3 | 8.7 | 0.00 | 0.00 | 0.00 | 74 | 1001.3 |
| 20260507184604 | 52 | 226 | 5.2 | 8.7 | 0.00 | 0.00 | 0.00 | 74 | 1001.4 |
| 20260507184505 | 52 | 226 | 5.2 | 8.7 | 0.00 | 0.00 | 0.00 | 74 | 1001.5 |
| 20260507184404 | 53 | 227 | 5.2 | 8.7 | 0.00 | 0.00 | 0.00 | 74 | 1001.5 |
| 20260507184304 | 53 | 228 | 5.2 | 8.7 | 0.00 | 0.00 | 0.00 | 74 | 1001.6 |
| 20260507184204 | 53 | 227 | 5.2 | 8.7 | 0.00 | 0.00 | 0.00 | 73 | 1001.3 |
| 20260507184104 | 53 | 226 | 5.2 | 8.7 | 0.00 | 0.00 | 0.00 | 73 | 1001.3 |
| 20260507184025 | 53 | 228 | 5.2 | 8.7 | 0.00 | 0.00 | 0.00 | 73 | 1001.3 |
| 20260507183904 | 53 | 224 | 5.2 | 8.7 | 0.00 | 0.00 | 0.00 | 72 | 1001.4 |
| 20260507183825 | 53 | 223 | 5.2 | 8.7 | 0.00 | 0.00 | 0.00 | 73 | 1001.4 |
| 20260507183704 | 53 | 220 | 5.2 | 8.7 | 0.00 | 0.00 | 0.00 | 73 | 1001.4 |
| 20260507183604 | 53 | 220 | 5.2 | 8.7 | 0.00 | 0.00 | 0.00 | 73 | 1001.5 |
| 20260507183504 | 53 | 220 | 5.2 | 8.7 | 0.00 | 0.00 | 0.00 | 73 | 1001.4 |
| 20260507183404 | 53 | 223 | 5.2 | 9.6 | 0.00 | 0.00 | 0.00 | 73 | 1001.3 |
| 20260507183304 | 53 | 226 | 5.2 | 9.6 | 0.00 | 0.00 | 0.00 | 73 | 1001.4 |
| 20260507183204 | 53 | 224 | 5.2 | 9.6 | 0.00 | 0.00 | 0.00 | 73 | 1001.3 |
| 20260507183104 | 53 | 224 | 5.2 | 9.6 | 0.00 | 0.00 | 0.00 | 73 | 1001.4 |
| 20260507183005 | 53 | 222 | 5.2 | 9.6 | 0.00 | 0.00 | 0.00 | 73 | 1001.4 |
| 20260507182904 | 53 | 224 | 5.2 | 9.6 | 0.00 | 0.00 | 0.00 | 73 | 1001.4 |
| 20260507182804 | 53 | 227 | 5.2 | 9.6 | 0.00 | 0.00 | 0.00 | 73 | 1001.4 |
| 20260507182704 | 53 | 227 | 6.1 | 9.6 | 0.00 | 0.00 | 0.00 | 74 | 1001.2 |
| 20260507182604 | 53 | 227 | 6.1 | 9.6 | 0.00 | 0.00 | 0.00 | 73 | 1001.4 |
| 20260507182504 | 53 | 226 | 6.1 | 9.6 | 0.00 | 0.00 | 0.00 | 73 | 1001.4 |
| 20260507182404 | 53 | 223 | 6.1 | 9.6 | 0.00 | 0.00 | 0.00 | 73 | 1001.5 |
| 20260507182306 | 53 | 220 | 6.1 | 9.6 | 0.00 | 0.00 | 0.00 | 73 | 1001.3 |
| 20260507182204 | 53 | 218 | 6.1 | 11.3 | 0.00 | 0.00 | 0.00 | 72 | 1001.4 |
| 20260507182104 | 53 | 219 | 6.1 | 11.3 | 0.00 | 0.00 | 0.00 | 72 | 1001.4 |
| 20260507182004 | 53 | 218 | 6.1 | 12.2 | 0.00 | 0.00 | 0.00 | 72 | 1001.2 |
| 20260507181904 | 53 | 220 | 6.1 | 12.2 | 0.00 | 0.00 | 0.00 | 73 | 1001.2 |
| 20260507181825 | 54 | 219 | 6.1 | 12.2 | 0.00 | 0.00 | 0.00 | 72 | 1001.4 |
| 20260507181704 | 54 | 213 | 6.1 | 12.2 | 0.00 | 0.00 | 0.00 | 72 | 1001.2 |
| 20260507181604 | 54 | 218 | 6.1 | 12.2 | 0.00 | 0.00 | 0.00 | 73 | 1001.2 |
| 20260507181504 | 54 | 220 | 6.1 | 12.2 | 0.00 | 0.00 | 0.00 | 73 | 1001.2 |
| 20260507181404 | 54 | 223 | 6.1 | 12.2 | 0.00 | 0.00 | 0.00 | 72 | 1001.3 |
| 20260507181305 | 54 | 224 | 6.1 | 12.2 | 0.00 | 0.00 | 0.00 | 72 | 1001.3 |
| 20260507181204 | 54 | 226 | 6.1 | 12.2 | 0.00 | 0.00 | 0.00 | 71 | 1001.4 |
| 20260507181125 | 54 | 225 | 6.1 | 12.2 | 0.00 | 0.00 | 0.00 | 71 | 1001.3 |
| 20260507181004 | 54 | 226 | 6.1 | 12.2 | 0.00 | 0.00 | 0.00 | 71 | 1001.4 |
| 20260507180904 | 54 | 224 | 6.1 | 12.2 | 0.00 | 0.00 | 0.00 | 71 | 1001.3 |
| 20260507180804 | 54 | 226 | 6.1 | 12.2 | 0.00 | 0.00 | 0.00 | 72 | 1001.3 |
| 20260507180704 | 54 | 226 | 6.1 | 12.2 | 0.00 | 0.00 | 0.00 | 71 | 1001.1 |
| 20260507180604 | 54 | 225 | 6.1 | 12.2 | 0.00 | 0.00 | 0.00 | 72 | 1001.1 |
| 20260507180504 | 54 | 222 | 6.1 | 12.2 | 0.00 | 0.00 | 0.00 | 73 | 1001.3 |
| 20260507180425 | 54 | 221 | 6.1 | 12.2 | 0.00 | 0.00 | 0.00 | 71 | 1001.3 |
| 20260507180304 | 54 | 219 | 6.1 | 12.2 | 0.00 | 0.00 | 0.00 | 71 | 1001.3 |
| 20260507180204 | 54 | 217 | 6.1 | 12.2 | 0.00 | 0.00 | 0.00 | 71 | 1001.2 |
| 20260507180104 | 54 | 219 | 6.1 | 12.2 | 0.00 | 0.00 | 0.00 | 72 | 1001.4 |
| 20260507180004 | 54 | 220 | 6.1 | 12.2 | 0.00 | 0.00 | 0.00 | 72 | 1001.2 |
| 20260507175904 | 54 | 221 | 6.1 | 12.2 | 0.00 | 0.00 | 0.00 | 72 | 1001.2 |
| 20260507175825 | 54 | 224 | 6.1 | 12.2 | 0.00 | 0.00 | 0.00 | 73 | 1001.2 |
| 20260507175704 | 54 | 227 | 6.1 | 12.2 | 0.00 | 0.00 | 0.00 | 73 | 1001.2 |
| 20260507175604 | 54 | 226 | 7.0 | 12.2 | 0.00 | 0.00 | 0.00 | 73 | 1001.3 |
| 20260507175504 | 54 | 227 | 7.0 | 12.2 | 0.00 | 0.00 | 0.00 | 72 | 1001.4 |
| 20260507175404 | 54 | 225 | 7.0 | 12.2 | 0.00 | 0.00 | 0.00 | 72 | 1001.3 |
| 20260507175307 | 54 | 224 | 7.0 | 12.2 | 0.00 | 0.00 | 0.00 | 72 | 1001.1 |
| 20260507175204 | 54 | 225 | 7.0 | 12.2 | 0.00 | 0.00 | 0.00 | 73 | 1001.4 |
| 20260507175125 | 54 | 223 | 7.0 | 12.2 | 0.00 | 0.00 | 0.00 | 72 | 1001.4 |
| 20260507175004 | 54 | 221 | 7.0 | 13.0 | 0.00 | 0.00 | 0.00 | 73 | 1001.3 |
| 20260507174904 | 54 | 219 | 7.0 | 13.0 | 0.00 | 0.00 | 0.00 | 73 | 1001.2 |
| 20260507174804 | 54 | 217 | 7.0 | 13.0 | 0.00 | 0.00 | 0.00 | 73 | 1001.1 |
| 20260507174704 | 54 | 218 | 7.0 | 13.0 | 0.00 | 0.00 | 0.00 | 73 | 1001.2 |
| 20260507174625 | 54 | 221 | 7.0 | 13.0 | 0.00 | 0.00 | 0.00 | 74 | 1001.2 |
| 20260507174504 | 54 | 221 | 7.0 | 13.0 | 0.00 | 0.00 | 0.00 | 73 | 1001.2 |
| 20260507174404 | 54 | 224 | 7.0 | 13.0 | 0.00 | 0.00 | 0.00 | 73 | 1001.3 |
| 20260507174304 | 54 | 227 | 7.0 | 13.0 | 0.00 | 0.00 | 0.00 | 73 | 1001.3 |
| 20260507174204 | 54 | 230 | 7.0 | 13.0 | 0.00 | 0.00 | 0.00 | 74 | 1001.3 |
| 20260507174125 | 54 | 232 | 7.0 | 13.0 | 0.00 | 0.00 | 0.00 | 74 | 1001.3 |
| 20260507174004 | 54 | 231 | 7.0 | 13.0 | 0.00 | 0.00 | 0.00 | 75 | 1001.5 |
| 20260507173904 | 54 | 234 | 6.1 | 13.0 | 0.00 | 0.00 | 0.00 | 76 | 1001.1 |
| 20260507173804 | 54 | 236 | 6.1 | 13.0 | 0.00 | 0.00 | 0.00 | 74 | 1001.2 |
| 20260507173704 | 54 | 233 | 6.1 | 13.0 | 0.00 | 0.00 | 0.00 | 74 | 1001.4 |
| 20260507173604 | 54 | 227 | 6.1 | 13.0 | 0.00 | 0.00 | 0.00 | 75 | 1001.3 |
| 20260507173504 | 54 | 228 | 5.2 | 13.0 | 0.00 | 0.00 | 0.00 | 75 | 1001.2 |
| 20260507173404 | 54 | 226 | 5.2 | 13.0 | 0.00 | 0.00 | 0.00 | 75 | 1001.4 |
| 20260507173325 | 54 | 224 | 5.2 | 13.0 | 0.00 | 0.00 | 0.00 | 76 | 1001.4 |
| 20260507173204 | 54 | 221 | 6.1 | 13.0 | 0.00 | 0.00 | 0.00 | 76 | 1001.2 |
| 20260507173104 | 54 | 218 | 6.1 | 13.0 | 0.00 | 0.00 | 0.00 | 75 | 1001.4 |
| 20260507173005 | 54 | 220 | 6.1 | 12.2 | 0.00 | 0.00 | 0.00 | 75 | 1001.4 |
| 20260507172904 | 54 | 223 | 6.1 | 12.2 | 0.00 | 0.00 | 0.00 | 76 | 1001.3 |
| 20260507172804 | 54 | 220 | 6.1 | 12.2 | 0.00 | 0.00 | 0.00 | 76 | 1001.6 |
| 20260507172704 | 54 | 219 | 6.1 | 12.2 | 0.00 | 0.00 | 0.00 | 76 | 1001.5 |
| 20260507172604 | 54 | 220 | 6.1 | 12.2 | 0.00 | 0.00 | 0.00 | 76 | 1001.2 |
| 20260507172504 | 54 | 219 | 6.1 | 12.2 | 0.00 | 0.00 | 0.00 | 75 | 1001.4 |
| 20260507172404 | 54 | 219 | 6.1 | 12.2 | 0.00 | 0.00 | 0.00 | 75 | 1001.4 |
| 20260507172307 | 54 | 222 | 6.1 | 12.2 | 0.00 | 0.00 | 0.00 | 76 | 1001.4 |
| 20260507172225 | 54 | 224 | 6.1 | 12.2 | 0.00 | 0.00 | 0.00 | 75 | 1001.4 |
| 20260507172104 | 55 | 225 | 6.1 | 13.0 | 0.00 | 0.00 | 0.00 | 75 | 1001.5 |
| 20260507172004 | 55 | 226 | 6.1 | 13.0 | 0.00 | 0.00 | 0.00 | 74 | 1001.5 |
| 20260507171905 | 55 | 225 | 6.1 | 13.0 | 0.00 | 0.00 | 0.00 | 75 | 1001.3 |
| 20260507171804 | 55 | 226 | 6.1 | 13.0 | 0.00 | 0.00 | 0.00 | 75 | 1001.2 |
| 20260507171704 | 54 | 232 | 7.0 | 13.0 | 0.00 | 0.00 | 0.00 | 76 | 1001.3 |
| 20260507171604 | 54 | 235 | 7.0 | 13.0 | 0.00 | 0.00 | 0.00 | 75 | 1001.6 |
| 20260507171504 | 54 | 238 | 7.0 | 13.0 | 0.00 | 0.00 | 0.00 | 74 | 1001.3 |
| 20260507171404 | 54 | 238 | 7.0 | 13.0 | 0.00 | 0.00 | 0.00 | 75 | 1001.6 |
| 20260507171304 | 54 | 238 | 7.0 | 13.0 | 0.00 | 0.00 | 0.00 | 75 | 1001.4 |
| 20260507171225 | 54 | 235 | 7.0 | 13.0 | 0.00 | 0.00 | 0.00 | 75 | 1001.4 |
| 20260507171104 | 54 | 238 | 7.0 | 13.0 | 0.00 | 0.00 | 0.00 | 74 | 1001.5 |
| 20260507171004 | 54 | 237 | 7.0 | 11.3 | 0.00 | 0.00 | 0.00 | 76 | 1001.3 |
| 20260507170904 | 54 | 237 | 7.0 | 13.9 | 0.00 | 0.00 | 0.00 | 74 | 1001.5 |
| 20260507170804 | 54 | 239 | 7.0 | 13.9 | 0.00 | 0.00 | 0.00 | 75 | 1001.6 |
| 20260507170704 | 54 | 236 | 7.0 | 13.9 | 0.00 | 0.00 | 0.00 | 76 | 1001.5 |
| 20260507170604 | 54 | 235 | 7.0 | 13.9 | 0.00 | 0.00 | 0.00 | 76 | 1001.5 |
| 20260507170504 | 54 | 234 | 7.0 | 13.9 | 0.00 | 0.00 | 0.00 | 76 | 1001.5 |
| 20260507170425 | 55 | 234 | 7.0 | 13.9 | 0.00 | 0.00 | 0.00 | 75 | 1001.5 |
| 20260507170304 | 55 | 233 | 7.0 | 13.9 | 0.00 | 0.00 | 0.00 | 77 | 1001.5 |
| 20260507170225 | 55 | 235 | 7.8 | 13.9 | 0.00 | 0.00 | 0.00 | 76 | 1001.5 |
| 20260507170104 | 54 | 236 | 7.8 | 13.9 | 0.00 | 0.00 | 0.00 | 76 | 1001.5 |
| 20260507170005 | 54 | 237 | 7.8 | 13.9 | 0.00 | 0.00 | 0.00 | 76 | 1001.6 |
| 20260507165904 | 55 | 239 | 7.8 | 13.9 | 0.00 | 0.00 | 0.00 | 76 | 1001.6 |
| 20260507165804 | 55 | 241 | 7.8 | 13.0 | 0.00 | 0.00 | 0.00 | 75 | 1001.4 |
| 20260507165704 | 55 | 242 | 7.0 | 13.0 | 0.00 | 0.00 | 0.00 | 75 | 1001.5 |
| 20260507165604 | 55 | 243 | 7.0 | 13.0 | 0.00 | 0.00 | 0.00 | 76 | 1001.8 |
| 20260507165504 | 55 | 244 | 7.0 | 13.0 | 0.00 | 0.00 | 0.00 | 75 | 1001.6 |
| 20260507165404 | 55 | 242 | 7.0 | 13.0 | 0.00 | 0.00 | 0.00 | 75 | 1001.7 |
| 20260507165306 | 55 | 242 | 7.0 | 13.0 | 0.00 | 0.00 | 0.00 | 76 | 1001.4 |
| 20260507165225 | 55 | 242 | 7.0 | 13.0 | 0.00 | 0.00 | 0.00 | 76 | 1001.4 |
| 20260507165104 | 55 | 238 | 7.0 | 15.6 | 0.00 | 0.00 | 0.00 | 76 | 1001.6 |
| 20260507165004 | 55 | 240 | 7.0 | 15.6 | 0.00 | 0.00 | 0.00 | 76 | 1001.6 |
| 20260507164904 | 55 | 240 | 7.0 | 15.6 | 0.00 | 0.00 | 0.00 | 76 | 1001.5 |
| 20260507164825 | 54 | 240 | 7.0 | 15.6 | 0.00 | 0.00 | 0.00 | 78 | 1001.5 |
| 20260507164704 | 54 | 243 | 7.0 | 15.6 | 0.00 | 0.00 | 0.00 | 77 | 1001.6 |
| 20260507164604 | 55 | 243 | 7.0 | 15.6 | 0.00 | 0.00 | 0.00 | 76 | 1001.6 |
| 20260507164504 | 55 | 246 | 7.0 | 15.6 | 0.00 | 0.00 | 0.00 | 75 | 1001.6 |
| 20260507164404 | 54 | 247 | 7.0 | 15.6 | 0.00 | 0.00 | 0.00 | 76 | 1001.6 |
| 20260507164325 | 54 | 250 | 7.0 | 15.6 | 0.00 | 0.00 | 0.00 | 76 | 1001.6 |
| 20260507164204 | 54 | 251 | 7.0 | 15.6 | 0.00 | 0.00 | 0.00 | 76 | 1001.8 |
| 20260507164104 | 54 | 255 | 7.8 | 15.6 | 0.00 | 0.00 | 0.00 | 75 | 1001.5 |
| 20260507164025 | 54 | 257 | 7.0 | 13.0 | 0.00 | 0.00 | 0.00 | 76 | 1001.5 |
| 20260507163904 | 54 | 254 | 7.0 | 13.0 | 0.00 | 0.00 | 0.00 | 78 | 1001.5 |
| 20260507163804 | 54 | 251 | 7.8 | 13.0 | 0.00 | 0.00 | 0.00 | 76 | 1001.6 |
| 20260507163704 | 54 | 252 | 7.8 | 13.0 | 0.00 | 0.00 | 0.00 | 77 | 1001.7 |
| 20260507163604 | 54 | 250 | 7.8 | 13.0 | 0.00 | 0.00 | 0.00 | 77 | 1001.6 |
| 20260507163504 | 54 | 248 | 7.8 | 13.0 | 0.00 | 0.00 | 0.00 | 76 | 1001.6 |
| 20260507163404 | 54 | 247 | 7.8 | 13.0 | 0.00 | 0.00 | 0.00 | 77 | 1001.6 |
| 20260507163325 | 54 | 246 | 7.0 | 13.0 | 0.00 | 0.00 | 0.00 | 77 | 1001.6 |
| 20260507163204 | 54 | 244 | 7.0 | 13.9 | 0.00 | 0.00 | 0.00 | 75 | 1001.5 |
| 20260507163104 | 54 | 242 | 7.0 | 13.9 | 0.00 | 0.00 | 0.00 | 76 | 1001.5 |
| 20260507163004 | 54 | 242 | 7.0 | 13.9 | 0.00 | 0.00 | 0.00 | 75 | 1001.6 |
| 20260507162925 | 54 | 242 | 7.0 | 13.9 | 0.00 | 0.00 | 0.00 | 76 | 1001.6 |
| 20260507162804 | 54 | 243 | 7.0 | 13.9 | 0.00 | 0.00 | 0.00 | 77 | 1001.7 |
| 20260507162704 | 54 | 240 | 7.0 | 13.9 | 0.00 | 0.00 | 0.00 | 76 | 1001.5 |
| 20260507162604 | 54 | 241 | 7.0 | 13.9 | 0.00 | 0.00 | 0.00 | 75 | 1001.7 |
| 20260507162504 | 54 | 242 | 7.0 | 13.9 | 0.00 | 0.00 | 0.00 | 76 | 1001.6 |
| 20260507162404 | 54 | 244 | 7.0 | 13.9 | 0.00 | 0.00 | 0.00 | 77 | 1001.4 |
| 20260507162307 | 54 | 243 | 7.0 | 13.9 | 0.00 | 0.00 | 0.00 | 76 | 1001.7 |
| 20260507162204 | 54 | 244 | 7.0 | 13.9 | 0.00 | 0.00 | 0.00 | 76 | 1001.7 |
| 20260507162125 | 54 | 244 | 7.0 | 13.9 | 0.00 | 0.00 | 0.00 | 76 | 1001.7 |
| 20260507162025 | 54 | 245 | 7.0 | 12.2 | 0.00 | 0.00 | 0.00 | 77 | 1001.6 |
| 20260507161904 | 54 | 247 | 7.0 | 12.2 | 0.00 | 0.00 | 0.00 | 76 | 1001.7 |
| 20260507161804 | 54 | 249 | 7.0 | 12.2 | 0.00 | 0.00 | 0.00 | 78 | 1001.6 |
| 20260507161704 | 54 | 250 | 7.0 | 12.2 | 0.00 | 0.00 | 0.00 | 77 | 1001.5 |
| 20260507161625 | 54 | 250 | 7.0 | 12.2 | 0.00 | 0.00 | 0.00 | 77 | 1001.5 |
| 20260507161504 | 54 | 251 | 7.0 | 12.2 | 0.00 | 0.00 | 0.00 | 77 | 1001.6 |
| 20260507161425 | 54 | 250 | 7.0 | 12.2 | 0.00 | 0.00 | 0.00 | 77 | 1001.6 |
| 20260507161304 | 54 | 252 | 6.1 | 12.2 | 0.00 | 0.00 | 0.00 | 77 | 1001.5 |
| 20260507161225 | 54 | 253 | 6.1 | 12.2 | 0.00 | 0.00 | 0.00 | 77 | 1001.5 |
| 20260507161104 | 54 | 253 | 6.1 | 12.2 | 0.00 | 0.00 | 0.00 | 77 | 1001.7 |
| 20260507161004 | 54 | 252 | 6.1 | 12.2 | 0.00 | 0.00 | 0.00 | 77 | 1001.7 |
| 20260507160925 | 54 | 251 | 6.1 | 12.2 | 0.00 | 0.00 | 0.00 | 78 | 1001.7 |
| 20260507160804 | 54 | 250 | 6.1 | 12.2 | 0.00 | 0.00 | 0.00 | 76 | 1001.6 |
| 20260507160704 | 54 | 249 | 6.1 | 12.2 | 0.00 | 0.00 | 0.00 | 77 | 1001.7 |
| 20260507160604 | 54 | 247 | 6.1 | 12.2 | 0.00 | 0.00 | 0.00 | 77 | 1001.7 |
| 20260507160504 | 54 | 245 | 6.1 | 12.2 | 0.00 | 0.00 | 0.00 | 77 | 1001.7 |
| 20260507160404 | 54 | 244 | 6.1 | 12.2 | 0.00 | 0.00 | 0.00 | 77 | 1001.7 |
| 20260507160304 | 54 | 244 | 6.1 | 12.2 | 0.00 | 0.00 | 0.00 | 77 | 1001.6 |
| 20260507160204 | 54 | 244 | 6.1 | 12.2 | 0.00 | 0.00 | 0.00 | 77 | 1001.8 |
| 20260507160104 | 54 | 244 | 7.0 | 12.2 | 0.00 | 0.00 | 0.00 | 76 | 1001.7 |
| 20260507160004 | 54 | 247 | 7.0 | 11.3 | 0.00 | 0.00 | 0.00 | 77 | 1002.0 |
| 20260507155925 | 54 | 247 | 7.0 | 11.3 | 0.00 | 0.00 | 0.00 | 77 | 1002.0 |
| 20260507155804 | 54 | 246 | 7.0 | 13.0 | 0.00 | 0.00 | 0.00 | 76 | 1001.6 |
| 20260507155725 | 54 | 247 | 7.0 | 13.0 | 0.00 | 0.00 | 0.00 | 76 | 1001.6 |
| 20260507155604 | 54 | 246 | 7.0 | 13.0 | 0.00 | 0.00 | 0.00 | 76 | 1001.6 |
| 20260507155525 | 54 | 250 | 7.0 | 13.0 | 0.00 | 0.00 | 0.00 | 77 | 1001.6 |
| 20260507155425 | 54 | 250 | 7.0 | 13.0 | 0.00 | 0.00 | 0.00 | 76 | 1001.8 |
| 20260507155325 | 54 | 249 | 7.0 | 13.0 | 0.00 | 0.00 | 0.00 | 77 | 1001.7 |
| 20260507155204 | 54 | 246 | 7.0 | 13.0 | 0.00 | 0.00 | 0.00 | 76 | 1001.7 |
| 20260507155104 | 54 | 245 | 7.0 | 13.0 | 0.00 | 0.00 | 0.00 | 77 | 1001.6 |
| 20260507155004 | 54 | 243 | 7.0 | 13.0 | 0.00 | 0.00 | 0.00 | 77 | 1001.7 |
| 20260507154904 | 54 | 242 | 7.0 | 13.0 | 0.00 | 0.00 | 0.00 | 76 | 1001.6 |
| 20260507154804 | 54 | 241 | 7.0 | 13.0 | 0.00 | 0.00 | 0.00 | 76 | 1001.6 |
| 20260507154704 | 54 | 240 | 6.1 | 12.2 | 0.00 | 0.00 | 0.00 | 77 | 1001.6 |
| 20260507154604 | 54 | 242 | 6.1 | 12.2 | 0.00 | 0.00 | 0.00 | 77 | 1001.5 |
| 20260507154504 | 54 | 241 | 6.1 | 12.2 | 0.00 | 0.00 | 0.00 | 77 | 1001.6 |
| 20260507154404 | 54 | 242 | 6.1 | 12.2 | 0.00 | 0.00 | 0.00 | 76 | 1001.9 |
| 20260507154304 | 54 | 244 | 6.1 | 12.2 | 0.00 | 0.00 | 0.00 | 77 | 1001.6 |
| 20260507154204 | 54 | 243 | 7.0 | 12.2 | 0.00 | 0.00 | 0.00 | 76 | 1001.9 |
| 20260507154104 | 54 | 241 | 7.0 | 12.2 | 0.00 | 0.00 | 0.00 | 76 | 1001.6 |
| 20260507154005 | 54 | 237 | 7.0 | 12.2 | 0.00 | 0.00 | 0.00 | 76 | 1001.7 |
| 20260507153904 | 54 | 233 | 7.0 | 12.2 | 0.00 | 0.00 | 0.00 | 76 | 1001.8 |
| 20260507153804 | 54 | 233 | 7.0 | 12.2 | 0.00 | 0.00 | 0.00 | 76 | 1001.6 |
| 20260507153705 | 54 | 231 | 7.0 | 13.0 | 0.00 | 0.00 | 0.00 | 76 | 1001.7 |
| 20260507153625 | 54 | 230 | 7.0 | 13.0 | 0.00 | 0.00 | 0.00 | 76 | 1001.7 |
| 20260507153504 | 54 | 232 | 7.0 | 13.0 | 0.00 | 0.00 | 0.00 | 76 | 1001.8 |
| 20260507153404 | 54 | 230 | 7.0 | 13.0 | 0.00 | 0.00 | 0.00 | 76 | 1001.8 |
| 20260507153304 | 54 | 229 | 7.0 | 13.0 | 0.00 | 0.00 | 0.00 | 76 | 1001.7 |
| 20260507153204 | 54 | 224 | 7.0 | 13.0 | 0.00 | 0.00 | 0.00 | 76 | 1001.7 |
| 20260507153104 | 54 | 226 | 7.0 | 13.0 | 0.00 | 0.00 | 0.00 | 77 | 1001.9 |
| 20260507153004 | 54 | 228 | 7.0 | 13.0 | 0.00 | 0.00 | 0.00 | 77 | 1001.8 |
| 20260507152904 | 54 | 235 | 6.1 | 13.0 | 0.00 | 0.00 | 0.00 | 77 | 1001.7 |
| 20260507152804 | 54 | 231 | 6.1 | 13.0 | 0.00 | 0.00 | 0.00 | 77 | 1002.0 |
| 20260507152725 | 54 | 231 | 6.1 | 13.0 | 0.00 | 0.00 | 0.00 | 76 | 1002.0 |
| 20260507152604 | 54 | 236 | 6.1 | 13.0 | 0.00 | 0.00 | 0.00 | 76 | 1001.8 |
| 20260507152504 | 54 | 238 | 7.0 | 13.9 | 0.00 | 0.00 | 0.00 | 76 | 1001.9 |
| 20260507152404 | 54 | 236 | 7.0 | 13.9 | 0.00 | 0.00 | 0.00 | 77 | 1001.8 |
| 20260507152306 | 54 | 238 | 7.0 | 13.9 | 0.00 | 0.00 | 0.00 | 76 | 1001.9 |
| 20260507152204 | 54 | 244 | 7.0 | 13.9 | 0.00 | 0.00 | 0.00 | 77 | 1001.8 |
| 20260507152106 | 54 | 243 | 7.8 | 13.9 | 0.00 | 0.00 | 0.00 | 77 | 1001.7 |
| 20260507152004 | 54 | 244 | 7.8 | 14.8 | 0.00 | 0.00 | 0.00 | 76 | 1002.0 |
| 20260507151904 | 54 | 241 | 7.8 | 14.8 | 0.00 | 0.00 | 0.00 | 75 | 1001.9 |
| 20260507151804 | 54 | 243 | 8.7 | 14.8 | 0.00 | 0.00 | 0.00 | 78 | 1001.6 |
| 20260507151704 | 54 | 244 | 7.8 | 14.8 | 0.00 | 0.00 | 0.00 | 76 | 1001.7 |
| 20260507151604 | 54 | 241 | 7.8 | 14.8 | 0.00 | 0.00 | 0.00 | 76 | 1001.7 |
| 20260507151504 | 54 | 236 | 7.8 | 14.8 | 0.00 | 0.00 | 0.00 | 75 | 1001.7 |
| 20260507151404 | 54 | 234 | 7.8 | 14.8 | 0.00 | 0.00 | 0.00 | 75 | 1001.7 |
| 20260507151304 | 54 | 232 | 7.8 | 14.8 | 0.00 | 0.00 | 0.00 | 77 | 1001.9 |
| 20260507151204 | 54 | 229 | 7.0 | 14.8 | 0.00 | 0.00 | 0.00 | 76 | 1001.7 |
| 20260507151104 | 54 | 227 | 7.0 | 14.8 | 0.00 | 0.00 | 0.00 | 76 | 1001.9 |
| 20260507151004 | 54 | 226 | 7.0 | 14.8 | 0.00 | 0.00 | 0.00 | 75 | 1001.9 |
| 20260507150904 | 54 | 227 | 7.0 | 13.9 | 0.00 | 0.00 | 0.00 | 76 | 1001.9 |
| 20260507150804 | 54 | 227 | 7.0 | 13.9 | 0.00 | 0.00 | 0.00 | 78 | 1001.6 |
| 20260507150704 | 54 | 227 | 7.0 | 13.9 | 0.00 | 0.00 | 0.00 | 77 | 1001.8 |
| 20260507150604 | 54 | 225 | 7.0 | 13.9 | 0.00 | 0.00 | 0.00 | 76 | 1001.6 |
| 20260507150504 | 54 | 223 | 7.0 | 13.9 | 0.00 | 0.00 | 0.00 | 76 | 1001.9 |
| 20260507150404 | 54 | 225 | 6.1 | 12.2 | 0.00 | 0.00 | 0.00 | 76 | 1002.0 |
| 20260507150325 | 54 | 226 | 6.1 | 12.2 | 0.00 | 0.00 | 0.00 | 78 | 1002.0 |
| 20260507150204 | 54 | 226 | 6.1 | 13.9 | 0.00 | 0.00 | 0.00 | 79 | 1001.9 |
| 20260507150104 | 54 | 223 | 6.1 | 13.9 | 0.00 | 0.00 | 0.00 | 78 | 1002.1 |
| 20260507150005 | 54 | 226 | 7.0 | 13.9 | 0.00 | 0.00 | 0.00 | 77 | 1001.8 |
| 20260507145904 | 54 | 226 | 6.1 | 13.9 | 0.00 | 0.00 | 0.00 | 78 | 1001.6 |
| 20260507145804 | 54 | 226 | 6.1 | 13.9 | 0.00 | 0.00 | 0.00 | 78 | 1001.8 |
| 20260507145725 | 54 | 225 | 6.1 | 13.9 | 0.00 | 0.00 | 0.00 | 77 | 1001.8 |
| 20260507145604 | 54 | 228 | 6.1 | 13.9 | 0.00 | 0.00 | 0.00 | 77 | 1001.9 |
| 20260507145504 | 54 | 232 | 6.1 | 13.9 | 0.00 | 0.00 | 0.00 | 78 | 1001.8 |
| 20260507145404 | 53 | 232 | 6.1 | 13.9 | 0.00 | 0.00 | 0.00 | 79 | 1001.9 |
| 20260507145306 | 53 | 233 | 6.1 | 13.9 | 0.00 | 0.00 | 0.00 | 79 | 1001.9 |
| 20260507145204 | 53 | 232 | 7.0 | 13.9 | 0.00 | 0.00 | 0.00 | 77 | 1001.8 |
| 20260507145125 | 53 | 234 | 6.1 | 13.9 | 0.00 | 0.00 | 0.00 | 77 | 1001.8 |
| 20260507145004 | 53 | 235 | 6.1 | 12.2 | 0.00 | 0.00 | 0.00 | 77 | 1002.0 |
| 20260507144904 | 53 | 234 | 6.1 | 12.2 | 0.00 | 0.00 | 0.00 | 79 | 1001.9 |
| 20260507144825 | 53 | 233 | 6.1 | 12.2 | 0.00 | 0.00 | 0.00 | 80 | 1001.9 |
| 20260507144704 | 53 | 234 | 6.1 | 12.2 | 0.00 | 0.00 | 0.00 | 79 | 1001.9 |
| 20260507144604 | 53 | 233 | 6.1 | 12.2 | 0.00 | 0.00 | 0.00 | 79 | 1001.9 |
| 20260507144504 | 53 | 235 | 6.1 | 12.2 | 0.00 | 0.00 | 0.00 | 78 | 1001.9 |
| 20260507144404 | 53 | 233 | 6.1 | 11.3 | 0.00 | 0.00 | 0.00 | 80 | 1002.0 |
| 20260507144304 | 53 | 230 | 6.1 | 9.6 | 0.00 | 0.00 | 0.00 | 79 | 1002.0 |
| 20260507144225 | 53 | 230 | 5.2 | 9.6 | 0.00 | 0.00 | 0.00 | 81 | 1002.0 |
| 20260507144104 | 52 | 232 | 5.2 | 9.6 | 0.00 | 0.00 | 0.00 | 80 | 1001.8 |
| 20260507144004 | 52 | 231 | 5.2 | 9.6 | 0.00 | 0.00 | 0.00 | 81 | 1002.2 |
| 20260507143904 | 52 | 233 | 5.2 | 9.6 | 0.00 | 0.00 | 0.00 | 81 | 1001.8 |
| 20260507143804 | 52 | 235 | 5.2 | 9.6 | 0.00 | 0.00 | 0.00 | 81 | 1001.9 |
| 20260507143725 | 52 | 234 | 5.2 | 9.6 | 0.00 | 0.00 | 0.00 | 82 | 1001.9 |
| 20260507143604 | 52 | 233 | 5.2 | 9.6 | 0.00 | 0.00 | 0.00 | 82 | 1001.9 |
| 20260507143525 | 52 | 230 | 5.2 | 9.6 | 0.00 | 0.00 | 0.00 | 82 | 1001.9 |
| 20260507143404 | 52 | 233 | 5.2 | 9.6 | 0.00 | 0.00 | 0.00 | 82 | 1002.0 |
| 20260507143304 | 52 | 236 | 5.2 | 9.6 | 0.00 | 0.00 | 0.00 | 82 | 1002.1 |
| 20260507143204 | 52 | 236 | 5.2 | 9.6 | 0.00 | 0.00 | 0.00 | 82 | 1002.1 |
| 20260507143104 | 51 | 238 | 5.2 | 9.6 | 0.00 | 0.00 | 0.00 | 82 | 1002.1 |
| 20260507143004 | 51 | 236 | 5.2 | 9.6 | 0.00 | 0.00 | 0.00 | 82 | 1001.9 |
| 20260507142904 | 51 | 235 | 5.2 | 9.6 | 0.00 | 0.00 | 0.00 | 82 | 1001.9 |
| 20260507142804 | 51 | 236 | 5.2 | 11.3 | 0.00 | 0.00 | 0.00 | 82 | 1002.0 |
| 20260507142704 | 51 | 238 | 5.2 | 11.3 | 0.00 | 0.00 | 0.00 | 83 | 1001.9 |
| 20260507142604 | 51 | 241 | 5.2 | 11.3 | 0.00 | 0.00 | 0.00 | 83 | 1002.1 |
| 20260507142504 | 51 | 241 | 5.2 | 11.3 | 0.00 | 0.00 | 0.00 | 83 | 1002.1 |
| 20260507142404 | 51 | 241 | 5.2 | 11.3 | 0.00 | 0.00 | 0.00 | 83 | 1002.1 |
| 20260507142325 | 51 | 240 | 5.2 | 11.3 | 0.00 | 0.00 | 0.00 | 83 | 1002.1 |
| 20260507142204 | 51 | 242 | 5.2 | 11.3 | 0.00 | 0.00 | 0.00 | 83 | 1001.9 |
| 20260507142125 | 51 | 239 | 5.2 | 11.3 | 0.00 | 0.00 | 0.00 | 82 | 1001.9 |
| 20260507142004 | 51 | 233 | 5.2 | 12.2 | 0.00 | 0.00 | 0.00 | 82 | 1002.1 |
| 20260507141925 | 51 | 234 | 5.2 | 12.2 | 0.00 | 0.00 | 0.00 | 82 | 1002.1 |
| 20260507141804 | 51 | 229 | 5.2 | 12.2 | 0.00 | 0.00 | 0.00 | 81 | 1002.2 |
| 20260507141725 | 52 | 229 | 5.2 | 12.2 | 0.00 | 0.00 | 0.00 | 79 | 1002.2 |
| 20260507141625 | 52 | 230 | 5.2 | 12.2 | 0.00 | 0.00 | 0.00 | 79 | 1002.3 |
| 20260507141504 | 52 | 229 | 5.2 | 12.2 | 0.00 | 0.00 | 0.00 | 80 | 1002.4 |
| 20260507141425 | 52 | 229 | 6.1 | 12.2 | 0.00 | 0.00 | 0.00 | 79 | 1002.4 |
| 20260507141325 | 51 | 231 | 6.1 | 12.2 | 0.00 | 0.00 | 0.00 | 78 | 1002.2 |
| 20260507141204 | 51 | 231 | 6.1 | 12.2 | 0.00 | 0.00 | 0.00 | 77 | 1002.4 |
| 20260507141104 | 51 | 232 | 6.1 | 12.2 | 0.00 | 0.00 | 0.00 | 77 | 1002.4 |
| 20260507141004 | 51 | 236 | 6.1 | 12.2 | 0.00 | 0.00 | 0.00 | 78 | 1002.2 |
| 20260507140904 | 51 | 236 | 6.1 | 11.3 | 0.00 | 0.00 | 0.00 | 79 | 1002.2 |
| 20260507140804 | 51 | 238 | 6.1 | 11.3 | 0.00 | 0.00 | 0.00 | 78 | 1002.3 |
| 20260507140725 | 51 | 238 | 6.1 | 11.3 | 0.00 | 0.00 | 0.00 | 78 | 1002.3 |
| 20260507140604 | 52 | 235 | 6.1 | 11.3 | 0.00 | 0.00 | 0.00 | 79 | 1002.4 |
| 20260507140504 | 52 | 233 | 6.1 | 11.3 | 0.00 | 0.00 | 0.00 | 78 | 1002.5 |
| 20260507140404 | 52 | 234 | 6.1 | 11.3 | 0.00 | 0.00 | 0.00 | 79 | 1002.4 |
| 20260507140304 | 52 | 231 | 6.1 | 11.3 | 0.00 | 0.00 | 0.00 | 79 | 1002.4 |
| 20260507140204 | 52 | 229 | 6.1 | 11.3 | 0.00 | 0.00 | 0.00 | 79 | 1002.3 |
| 20260507140125 | 52 | 230 | 6.1 | 11.3 | 0.00 | 0.00 | 0.00 | 80 | 1002.3 |
| 20260507140005 | 52 | 228 | 5.2 | 9.6 | 0.00 | 0.00 | 0.00 | 80 | 1002.3 |
| 20260507135904 | 52 | 229 | 6.1 | 9.6 | 0.00 | 0.00 | 0.00 | 80 | 1002.3 |
| 20260507135804 | 51 | 230 | 6.1 | 9.6 | 0.00 | 0.00 | 0.00 | 80 | 1002.4 |
| 20260507135704 | 51 | 233 | 6.1 | 9.6 | 0.00 | 0.00 | 0.00 | 80 | 1002.4 |
| 20260507135625 | 51 | 232 | 6.1 | 9.6 | 0.00 | 0.00 | 0.00 | 80 | 1002.4 |
| 20260507135504 | 51 | 233 | 6.1 | 9.6 | 0.00 | 0.00 | 0.00 | 79 | 1002.3 |
| 20260507135404 | 51 | 231 | 6.1 | 9.6 | 0.00 | 0.00 | 0.00 | 79 | 1002.1 |
| 20260507135306 | 51 | 234 | 6.1 | 9.6 | 0.00 | 0.00 | 0.00 | 79 | 1002.5 |
| 20260507135204 | 51 | 235 | 5.2 | 9.6 | 0.00 | 0.00 | 0.00 | 79 | 1002.3 |
| 20260507135104 | 51 | 233 | 5.2 | 9.6 | 0.00 | 0.00 | 0.00 | 80 | 1002.3 |
| 20260507135004 | 51 | 232 | 5.2 | 9.6 | 0.00 | 0.00 | 0.00 | 80 | 1002.4 |
| 20260507134904 | 51 | 234 | 5.2 | 9.6 | 0.00 | 0.00 | 0.00 | 80 | 1002.6 |
| 20260507134804 | 51 | 236 | 5.2 | 9.6 | 0.00 | 0.00 | 0.00 | 81 | 1002.3 |
| 20260507134704 | 51 | 237 | 5.2 | 9.6 | 0.00 | 0.00 | 0.00 | 81 | 1002.6 |
| 20260507134604 | 51 | 243 | 5.2 | 13.0 | 0.00 | 0.00 | 0.00 | 81 | 1002.3 |
| 20260507134504 | 51 | 245 | 6.1 | 13.0 | 0.00 | 0.00 | 0.00 | 81 | 1002.5 |
| 20260507134404 | 51 | 249 | 6.1 | 13.0 | 0.00 | 0.00 | 0.00 | 81 | 1002.4 |
| 20260507134304 | 51 | 247 | 6.1 | 13.0 | 0.00 | 0.00 | 0.00 | 80 | 1002.5 |
| 20260507134204 | 51 | 248 | 6.1 | 13.0 | 0.00 | 0.00 | 0.00 | 81 | 1002.3 |
| 20260507134104 | 51 | 248 | 6.1 | 13.0 | 0.00 | 0.00 | 0.00 | 80 | 1002.4 |
| 20260507134004 | 51 | 253 | 6.1 | 13.0 | 0.00 | 0.00 | 0.00 | 80 | 1002.5 |
| 20260507133904 | 51 | 254 | 6.1 | 13.0 | 0.00 | 0.00 | 0.00 | 79 | 1002.6 |
| 20260507133804 | 51 | 253 | 6.1 | 13.0 | 0.00 | 0.00 | 0.00 | 80 | 1002.5 |
| 20260507133704 | 51 | 250 | 6.1 | 13.0 | 0.00 | 0.00 | 0.00 | 80 | 1002.3 |
| 20260507133604 | 51 | 248 | 6.1 | 13.0 | 0.00 | 0.00 | 0.00 | 80 | 1002.5 |
| 20260507133504 | 52 | 246 | 6.1 | 13.0 | 0.00 | 0.00 | 0.00 | 79 | 1002.6 |
| 20260507133404 | 52 | 246 | 6.1 | 11.3 | 0.00 | 0.00 | 0.00 | 80 | 1002.6 |
| 20260507133304 | 52 | 246 | 6.1 | 11.3 | 0.00 | 0.00 | 0.00 | 79 | 1002.4 |
| 20260507133204 | 52 | 243 | 6.1 | 11.3 | 0.00 | 0.00 | 0.00 | 79 | 1002.7 |
| 20260507133104 | 52 | 243 | 6.1 | 11.3 | 0.00 | 0.00 | 0.00 | 78 | 1002.6 |
| 20260507133004 | 52 | 236 | 6.1 | 11.3 | 0.00 | 0.00 | 0.00 | 78 | 1002.4 |
| 20260507132904 | 52 | 235 | 6.1 | 11.3 | 0.00 | 0.00 | 0.00 | 77 | 1002.4 |
| 20260507132804 | 52 | 233 | 6.1 | 11.3 | 0.00 | 0.00 | 0.00 | 78 | 1002.6 |
| 20260507132704 | 52 | 233 | 6.1 | 11.3 | 0.00 | 0.00 | 0.00 | 78 | 1002.6 |
| 20260507132604 | 52 | 236 | 6.1 | 11.3 | 0.00 | 0.00 | 0.00 | 78 | 1002.6 |
| 20260507132504 | 52 | 236 | 6.1 | 11.3 | 0.00 | 0.00 | 0.00 | 79 | 1002.6 |
| 20260507132404 | 52 | 231 | 6.1 | 11.3 | 0.00 | 0.00 | 0.00 | 79 | 1002.6 |
| 20260507132307 | 52 | 227 | 6.1 | 11.3 | 0.00 | 0.00 | 0.00 | 78 | 1002.4 |
| 20260507132204 | 52 | 230 | 6.1 | 11.3 | 0.00 | 0.00 | 0.00 | 79 | 1002.4 |
| 20260507132104 | 52 | 228 | 6.1 | 11.3 | 0.00 | 0.00 | 0.00 | 79 | 1002.7 |
| 20260507132004 | 52 | 231 | 6.1 | 11.3 | 0.00 | 0.00 | 0.00 | 78 | 1002.6 |
| 20260507131906 | 52 | 232 | 6.1 | 11.3 | 0.00 | 0.00 | 0.00 | 78 | 1002.3 |
| 20260507131804 | 52 | 234 | 6.1 | 11.3 | 0.00 | 0.00 | 0.00 | 79 | 1002.3 |
| 20260507131725 | 52 | 233 | 6.1 | 11.3 | 0.00 | 0.00 | 0.00 | 78 | 1002.3 |
| 20260507131604 | 51 | 226 | 6.1 | 11.3 | 0.00 | 0.00 | 0.00 | 79 | 1002.6 |
| 20260507131504 | 51 | 224 | 6.1 | 11.3 | 0.00 | 0.00 | 0.00 | 78 | 1002.4 |
| 20260507131404 | 51 | 224 | 6.1 | 11.3 | 0.00 | 0.00 | 0.00 | 78 | 1002.6 |
| 20260507131304 | 52 | 224 | 6.1 | 12.2 | 0.00 | 0.00 | 0.00 | 77 | 1002.5 |
| 20260507131204 | 52 | 225 | 6.1 | 12.2 | 0.00 | 0.00 | 0.00 | 78 | 1002.5 |
| 20260507131104 | 52 | 228 | 6.1 | 12.2 | 0.00 | 0.00 | 0.00 | 78 | 1002.6 |
| 20260507131004 | 51 | 228 | 6.1 | 12.2 | 0.00 | 0.00 | 0.00 | 79 | 1002.3 |
| 20260507130904 | 51 | 227 | 6.1 | 12.2 | 0.00 | 0.00 | 0.00 | 78 | 1002.5 |
| 20260507130804 | 51 | 227 | 6.1 | 12.2 | 0.00 | 0.00 | 0.00 | 77 | 1002.6 |
| 20260507130704 | 51 | 228 | 6.1 | 12.2 | 0.00 | 0.00 | 0.00 | 78 | 1002.6 |
| 20260507130604 | 51 | 233 | 6.1 | 12.2 | 0.00 | 0.00 | 0.00 | 78 | 1002.7 |
| 20260507130504 | 52 | 237 | 6.1 | 12.2 | 0.00 | 0.00 | 0.00 | 78 | 1002.4 |
| 20260507130446 | 52 | 236 | 6.1 | 12.2 | 0.00 | 0.00 | 0.00 | 77 | 1002.4 |
| 20260507130304 | 52 | 242 | 6.1 | 12.2 | 0.00 | 0.00 | 0.00 | 78 | 1002.6 |
| 20260507130204 | 52 | 244 | 6.1 | 12.2 | 0.00 | 0.00 | 0.00 | 77 | 1002.4 |
| 20260507130104 | 52 | 246 | 6.1 | 11.3 | 0.00 | 0.00 | 0.00 | 77 | 1002.7 |
| 20260507130004 | 52 | 244 | 6.1 | 9.6 | 0.00 | 0.00 | 0.00 | 77 | 1002.5 |
| 20260507125904 | 52 | 243 | 6.1 | 9.6 | 0.00 | 0.00 | 0.00 | 77 | 1002.6 |
| 20260507125804 | 52 | 243 | 6.1 | 12.2 | 0.00 | 0.00 | 0.00 | 78 | 1002.6 |
| 20260507125725 | 52 | 242 | 7.0 | 12.2 | 0.00 | 0.00 | 0.00 | 77 | 1002.6 |
| 20260507125604 | 52 | 238 | 7.0 | 13.9 | 0.00 | 0.00 | 0.00 | 75 | 1002.6 |
| 20260507125504 | 52 | 234 | 7.0 | 13.9 | 0.00 | 0.00 | 0.00 | 76 | 1002.4 |
| 20260507125404 | 52 | 232 | 7.0 | 13.9 | 0.00 | 0.00 | 0.00 | 76 | 1002.6 |
| 20260507125325 | 52 | 229 | 7.0 | 13.9 | 0.00 | 0.00 | 0.00 | 75 | 1002.6 |
| 20260507125204 | 52 | 229 | 7.8 | 13.9 | 0.00 | 0.00 | 0.00 | 75 | 1002.7 |
| 20260507125125 | 52 | 229 | 7.0 | 13.9 | 0.00 | 0.00 | 0.00 | 75 | 1002.7 |
| 20260507125004 | 52 | 226 | 7.0 | 13.9 | 0.00 | 0.00 | 0.00 | 75 | 1002.8 |
| 20260507124904 | 52 | 227 | 7.8 | 13.9 | 0.00 | 0.00 | 0.00 | 74 | 1002.6 |
| 20260507124825 | 52 | 227 | 7.8 | 13.9 | 0.00 | 0.00 | 0.00 | 75 | 1002.6 |
| 20260507124725 | 52 | 226 | 7.0 | 13.9 | 0.00 | 0.00 | 0.00 | 74 | 1002.7 |
| 20260507124604 | 52 | 228 | 7.0 | 13.9 | 0.00 | 0.00 | 0.00 | 74 | 1002.6 |
| 20260507124504 | 53 | 234 | 6.1 | 11.3 | 0.00 | 0.00 | 0.00 | 74 | 1002.4 |
| 20260507124404 | 53 | 240 | 6.1 | 11.3 | 0.00 | 0.00 | 0.00 | 74 | 1002.6 |
| 20260507124304 | 53 | 245 | 6.1 | 12.2 | 0.00 | 0.00 | 0.00 | 73 | 1002.5 |
| 20260507124204 | 53 | 244 | 6.1 | 13.0 | 0.00 | 0.00 | 0.00 | 74 | 1002.8 |
| 20260507124104 | 53 | 244 | 7.0 | 13.0 | 0.00 | 0.00 | 0.00 | 74 | 1002.5 |
| 20260507124004 | 53 | 245 | 7.0 | 13.0 | 0.00 | 0.00 | 0.00 | 73 | 1002.5 |
| 20260507123904 | 53 | 244 | 7.0 | 13.0 | 0.00 | 0.00 | 0.00 | 72 | 1002.6 |
| 20260507123804 | 53 | 245 | 7.0 | 13.0 | 0.00 | 0.00 | 0.00 | 73 | 1002.6 |
| 20260507123725 | 53 | 247 | 7.0 | 13.0 | 0.00 | 0.00 | 0.00 | 73 | 1002.6 |
| 20260507123604 | 53 | 248 | 7.8 | 13.0 | 0.00 | 0.00 | 0.00 | 74 | 1002.5 |
| 20260507123504 | 53 | 246 | 7.8 | 13.0 | 0.00 | 0.00 | 0.00 | 73 | 1002.4 |
| 20260507123404 | 53 | 242 | 7.8 | 13.0 | 0.00 | 0.00 | 0.00 | 72 | 1002.5 |
| 20260507123304 | 53 | 241 | 7.8 | 13.0 | 0.00 | 0.00 | 0.00 | 70 | 1002.5 |
| 20260507123204 | 53 | 241 | 7.8 | 13.0 | 0.00 | 0.00 | 0.00 | 71 | 1002.6 |
| 20260507123104 | 53 | 241 | 7.8 | 13.0 | 0.00 | 0.00 | 0.00 | 72 | 1002.5 |
| 20260507123025 | 53 | 240 | 7.8 | 13.0 | 0.00 | 0.00 | 0.00 | 71 | 1002.5 |
| 20260507122904 | 53 | 243 | 7.8 | 13.0 | 0.00 | 0.00 | 0.00 | 70 | 1002.4 |
| 20260507122804 | 53 | 241 | 7.8 | 13.0 | 0.00 | 0.00 | 0.00 | 71 | 1002.6 |
| 20260507122705 | 53 | 239 | 7.8 | 13.0 | 0.00 | 0.00 | 0.00 | 70 | 1002.5 |
| 20260507122604 | 53 | 236 | 7.8 | 13.0 | 0.00 | 0.00 | 0.00 | 71 | 1002.6 |
| 20260507122525 | 53 | 236 | 7.8 | 13.0 | 0.00 | 0.00 | 0.00 | 71 | 1002.6 |
| 20260507122404 | 54 | 236 | 7.0 | 13.0 | 0.00 | 0.00 | 0.00 | 72 | 1002.7 |
| 20260507122307 | 54 | 236 | 7.0 | 13.0 | 0.00 | 0.00 | 0.00 | 71 | 1002.6 |
| 20260507122204 | 54 | 239 | 7.0 | 13.0 | 0.00 | 0.00 | 0.00 | 70 | 1002.4 |
| 20260507122104 | 54 | 242 | 6.1 | 13.0 | 0.00 | 0.00 | 0.00 | 71 | 1002.6 |
| 20260507122004 | 55 | 242 | 6.1 | 13.0 | 0.00 | 0.00 | 0.00 | 71 | 1002.5 |
| 20260507121904 | 55 | 241 | 6.1 | 13.0 | 0.00 | 0.00 | 0.00 | 70 | 1002.3 |
| 20260507121804 | 55 | 240 | 6.1 | 13.0 | 0.00 | 0.00 | 0.00 | 69 | 1002.3 |
| 20260507121704 | 55 | 238 | 6.1 | 13.0 | 0.00 | 0.00 | 0.00 | 70 | 1002.4 |
| 20260507121625 | 55 | 235 | 6.1 | 13.0 | 0.00 | 0.00 | 0.00 | 70 | 1002.4 |
| 20260507121525 | 55 | 236 | 6.1 | 13.0 | 0.00 | 0.00 | 0.00 | 70 | 1002.5 |
| 20260507121404 | 55 | 237 | 7.0 | 13.0 | 0.00 | 0.00 | 0.00 | 70 | 1002.4 |
| 20260507121304 | 54 | 239 | 7.0 | 13.0 | 0.00 | 0.00 | 0.00 | 72 | 1002.5 |
| 20260507121204 | 54 | 236 | 7.0 | 13.9 | 0.00 | 0.00 | 0.00 | 72 | 1002.2 |
| 20260507121125 | 54 | 236 | 7.0 | 13.9 | 0.00 | 0.00 | 0.00 | 72 | 1002.2 |
| 20260507121004 | 54 | 239 | 7.0 | 13.9 | 0.00 | 0.00 | 0.00 | 70 | 1002.3 |
| 20260507120925 | 54 | 235 | 7.0 | 13.9 | 0.00 | 0.00 | 0.00 | 71 | 1002.3 |
| 20260507120825 | 54 | 232 | 7.0 | 13.9 | 0.00 | 0.00 | 0.00 | 70 | 1002.8 |
| 20260507120704 | 54 | 234 | 7.0 | 13.9 | 0.00 | 0.00 | 0.00 | 70 | 1002.4 |
| 20260507120604 | 54 | 233 | 7.0 | 13.9 | 0.00 | 0.00 | 0.00 | 68 | 1002.4 |
| 20260507120504 | 55 | 234 | 7.0 | 13.9 | 0.00 | 0.00 | 0.00 | 67 | 1002.5 |
| 20260507120404 | 55 | 233 | 7.0 | 13.9 | 0.00 | 0.00 | 0.00 | 69 | 1002.3 |
| 20260507120304 | 55 | 230 | 7.0 | 13.9 | 0.00 | 0.00 | 0.00 | 70 | 1002.5 |
| 20260507120204 | 55 | 228 | 7.0 | 13.9 | 0.00 | 0.00 | 0.00 | 69 | 1002.4 |
| 20260507120104 | 54 | 229 | 7.0 | 13.9 | 0.00 | 0.00 | 0.00 | 69 | 1002.4 |
| 20260507120005 | 54 | 227 | 7.0 | 13.0 | 0.00 | 0.00 | 0.00 | 70 | 1002.3 |
| 20260507115925 | 54 | 230 | 7.0 | 13.0 | 0.00 | 0.00 | 0.00 | 71 | 1002.3 |
| 20260507115804 | 54 | 236 | 7.0 | 13.0 | 0.00 | 0.00 | 0.00 | 71 | 1002.4 |
| 20260507115704 | 54 | 235 | 6.1 | 13.0 | 0.00 | 0.00 | 0.00 | 70 | 1002.5 |
| 20260507115604 | 54 | 236 | 6.1 | 12.2 | 0.00 | 0.00 | 0.00 | 72 | 1002.5 |
| 20260507115504 | 54 | 234 | 7.0 | 12.2 | 0.00 | 0.00 | 0.00 | 73 | 1002.5 |
| 20260507115404 | 55 | 233 | 7.0 | 13.0 | 0.00 | 0.00 | 0.00 | 69 | 1002.3 |
| 20260507115307 | 55 | 235 | 7.0 | 13.0 | 0.00 | 0.00 | 0.00 | 71 | 1002.5 |
| 20260507115204 | 55 | 233 | 7.0 | 13.0 | 0.00 | 0.00 | 0.00 | 69 | 1002.4 |
| 20260507115104 | 55 | 231 | 7.0 | 13.0 | 0.00 | 0.00 | 0.00 | 70 | 1002.5 |
| 20260507115004 | 55 | 229 | 7.0 | 13.0 | 0.00 | 0.00 | 0.00 | 71 | 1002.5 |
| 20260507114904 | 55 | 228 | 7.8 | 13.0 | 0.00 | 0.00 | 0.00 | 69 | 1002.5 |
| 20260507114804 | 54 | 229 | 7.0 | 13.0 | 0.00 | 0.00 | 0.00 | 71 | 1002.4 |
| 20260507114704 | 54 | 227 | 7.8 | 13.0 | 0.00 | 0.00 | 0.00 | 69 | 1002.3 |
| 20260507114604 | 54 | 227 | 7.0 | 13.0 | 0.00 | 0.00 | 0.00 | 68 | 1002.4 |
| 20260507114504 | 54 | 229 | 7.0 | 13.0 | 0.00 | 0.00 | 0.00 | 69 | 1002.5 |
| 20260507114404 | 54 | 230 | 7.0 | 13.9 | 0.00 | 0.00 | 0.00 | 68 | 1002.4 |
| 20260507114304 | 54 | 231 | 7.0 | 13.9 | 0.00 | 0.00 | 0.00 | 70 | 1002.5 |
| 20260507114204 | 55 | 235 | 7.0 | 13.9 | 0.00 | 0.00 | 0.00 | 69 | 1002.5 |
| 20260507114104 | 55 | 241 | 7.0 | 13.9 | 0.00 | 0.00 | 0.00 | 71 | 1002.4 |
| 20260507114004 | 55 | 244 | 7.0 | 13.9 | 0.00 | 0.00 | 0.00 | 70 | 1002.4 |
| 20260507113904 | 55 | 242 | 7.0 | 14.8 | 0.00 | 0.00 | 0.00 | 68 | 1002.2 |
| 20260507113825 | 54 | 244 | 7.0 | 14.8 | 0.00 | 0.00 | 0.00 | 71 | 1002.2 |
| 20260507113704 | 54 | 242 | 7.0 | 14.8 | 0.00 | 0.00 | 0.00 | 69 | 1002.6 |
| 20260507113604 | 54 | 244 | 7.0 | 14.8 | 0.00 | 0.00 | 0.00 | 73 | 1002.5 |
| 20260507113504 | 55 | 243 | 7.8 | 14.8 | 0.00 | 0.00 | 0.00 | 70 | 1002.5 |
| 20260507113404 | 55 | 244 | 7.8 | 14.8 | 0.00 | 0.00 | 0.00 | 69 | 1002.7 |
| 20260507113304 | 55 | 243 | 7.8 | 14.8 | 0.00 | 0.00 | 0.00 | 70 | 1002.4 |
| 20260507113225 | 55 | 239 | 7.8 | 14.8 | 0.00 | 0.00 | 0.00 | 71 | 1002.4 |
| 20260507113104 | 55 | 235 | 7.8 | 14.8 | 0.00 | 0.00 | 0.00 | 71 | 1002.5 |
| 20260507113005 | 55 | 234 | 8.7 | 14.8 | 0.00 | 0.00 | 0.00 | 71 | 1002.6 |
| 20260507112925 | 54 | 233 | 8.7 | 14.8 | 0.00 | 0.00 | 0.00 | 72 | 1002.6 |
| 20260507112804 | 54 | 232 | 8.7 | 14.8 | 0.00 | 0.00 | 0.00 | 73 | 1002.5 |
| 20260507112704 | 53 | 233 | 7.8 | 14.8 | 0.00 | 0.00 | 0.00 | 74 | 1002.4 |
| 20260507112604 | 53 | 235 | 7.8 | 14.8 | 0.00 | 0.00 | 0.00 | 71 | 1002.4 |
| 20260507112504 | 54 | 236 | 7.8 | 14.8 | 0.00 | 0.00 | 0.00 | 73 | 1002.6 |
| 20260507112404 | 54 | 237 | 7.8 | 14.8 | 0.00 | 0.00 | 0.00 | 73 | 1002.3 |
| 20260507112325 | 54 | 240 | 7.8 | 14.8 | 0.00 | 0.00 | 0.00 | 73 | 1002.3 |
| 20260507112225 | 54 | 242 | 7.8 | 14.8 | 0.00 | 0.00 | 0.00 | 72 | 1002.5 |
| 20260507112104 | 54 | 245 | 7.8 | 14.8 | 0.00 | 0.00 | 0.00 | 72 | 1002.2 |
| 20260507112004 | 54 | 245 | 7.0 | 13.9 | 0.00 | 0.00 | 0.00 | 74 | 1002.3 |
| 20260507111904 | 54 | 246 | 7.0 | 13.9 | 0.00 | 0.00 | 0.00 | 73 | 1002.4 |
| 20260507111825 | 53 | 247 | 7.0 | 13.9 | 0.00 | 0.00 | 0.00 | 74 | 1002.4 |
| 20260507111704 | 53 | 246 | 7.8 | 13.9 | 0.00 | 0.00 | 0.00 | 74 | 1002.5 |
| 20260507111604 | 53 | 245 | 7.8 | 13.9 | 0.00 | 0.00 | 0.00 | 74 | 1002.6 |
| 20260507111504 | 54 | 247 | 7.8 | 13.9 | 0.00 | 0.00 | 0.00 | 73 | 1002.5 |
| 20260507111404 | 54 | 247 | 7.8 | 13.9 | 0.00 | 0.00 | 0.00 | 74 | 1002.5 |
| 20260507111304 | 54 | 245 | 7.8 | 13.9 | 0.00 | 0.00 | 0.00 | 73 | 1002.4 |
| 20260507111204 | 54 | 245 | 7.8 | 13.9 | 0.00 | 0.00 | 0.00 | 73 | 1002.5 |
| 20260507111104 | 54 | 240 | 7.8 | 13.9 | 0.00 | 0.00 | 0.00 | 72 | 1002.5 |
| 20260507111004 | 54 | 240 | 7.8 | 13.9 | 0.00 | 0.00 | 0.00 | 72 | 1002.4 |
| 20260507110904 | 54 | 239 | 7.8 | 13.9 | 0.00 | 0.00 | 0.00 | 73 | 1002.5 |
| 20260507110804 | 54 | 238 | 7.8 | 13.9 | 0.00 | 0.00 | 0.00 | 73 | 1002.5 |
| 20260507110704 | 54 | 237 | 7.8 | 13.9 | 0.00 | 0.00 | 0.00 | 72 | 1002.3 |
| 20260507110625 | 54 | 236 | 7.8 | 13.9 | 0.00 | 0.00 | 0.00 | 73 | 1002.3 |
| 20260507110504 | 54 | 235 | 7.8 | 13.9 | 0.00 | 0.00 | 0.00 | 72 | 1002.5 |
| 20260507110404 | 54 | 234 | 7.8 | 13.9 | 0.00 | 0.00 | 0.00 | 72 | 1002.5 |
| 20260507110304 | 54 | 234 | 7.8 | 13.9 | 0.00 | 0.00 | 0.00 | 74 | 1002.5 |
| 20260507110204 | 54 | 237 | 7.8 | 13.9 | 0.00 | 0.00 | 0.00 | 74 | 1002.5 |
| 20260507110104 | 53 | 242 | 7.8 | 13.9 | 0.00 | 0.00 | 0.00 | 72 | 1002.5 |
| 20260507110004 | 53 | 248 | 7.8 | 13.9 | 0.00 | 0.00 | 0.00 | 72 | 1002.6 |
| 20260507105904 | 53 | 250 | 7.8 | 13.9 | 0.00 | 0.00 | 0.00 | 73 | 1002.7 |
| 20260507105804 | 54 | 253 | 8.7 | 13.9 | 0.00 | 0.00 | 0.00 | 73 | 1002.6 |
| 20260507105725 | 54 | 258 | 8.7 | 13.9 | 0.00 | 0.00 | 0.00 | 72 | 1002.6 |
| 20260507105604 | 54 | 261 | 8.7 | 13.9 | 0.00 | 0.00 | 0.00 | 73 | 1002.5 |
| 20260507105504 | 54 | 263 | 8.7 | 13.9 | 0.00 | 0.00 | 0.00 | 73 | 1002.6 |
| 20260507105404 | 53 | 259 | 7.8 | 13.9 | 0.00 | 0.00 | 0.00 | 75 | 1002.5 |
| 20260507105325 | 53 | 262 | 7.8 | 13.9 | 0.00 | 0.00 | 0.00 | 75 | 1002.5 |
| 20260507105225 | 53 | 262 | 7.8 | 13.9 | 0.00 | 0.00 | 0.00 | 74 | 1002.8 |
| 20260507105104 | 53 | 258 | 7.8 | 13.9 | 0.00 | 0.00 | 0.00 | 74 | 1002.6 |
| 20260507105004 | 53 | 252 | 7.8 | 13.9 | 0.00 | 0.00 | 0.00 | 73 | 1002.5 |
| 20260507104904 | 53 | 246 | 7.8 | 13.9 | 0.00 | 0.00 | 0.00 | 73 | 1002.5 |
| 20260507104825 | 53 | 244 | 7.8 | 13.9 | 0.00 | 0.00 | 0.00 | 74 | 1002.5 |
| 20260507104725 | 53 | 239 | 7.8 | 14.8 | 0.00 | 0.00 | 0.00 | 74 | 1002.4 |
| 20260507104625 | 52 | 237 | 7.8 | 14.8 | 0.00 | 0.00 | 0.00 | 75 | 1002.6 |
| 20260507104525 | 52 | 234 | 7.8 | 14.8 | 0.00 | 0.00 | 0.00 | 76 | 1002.6 |
| 20260507104404 | 52 | 236 | 7.8 | 14.8 | 0.00 | 0.00 | 0.00 | 77 | 1002.7 |
| 20260507104304 | 52 | 236 | 7.8 | 14.8 | 0.00 | 0.00 | 0.00 | 77 | 1002.8 |
| 20260507104204 | 52 | 235 | 8.7 | 14.8 | 0.00 | 0.00 | 0.00 | 77 | 1002.6 |
| 20260507104104 | 51 | 238 | 8.7 | 14.8 | 0.00 | 0.00 | 0.00 | 77 | 1002.7 |
| 20260507104004 | 51 | 241 | 8.7 | 14.8 | 0.00 | 0.00 | 0.00 | 78 | 1002.7 |
| 20260507103904 | 51 | 240 | 9.6 | 15.6 | 0.00 | 0.00 | 0.00 | 77 | 1002.6 |
| 20260507103825 | 51 | 242 | 9.6 | 15.6 | 0.00 | 0.00 | 0.00 | 76 | 1002.6 |
| 20260507103704 | 52 | 243 | 8.7 | 15.6 | 0.00 | 0.00 | 0.00 | 76 | 1002.8 |
| 20260507103604 | 52 | 243 | 8.7 | 15.6 | 0.00 | 0.00 | 0.00 | 76 | 1002.7 |
| 20260507103504 | 52 | 244 | 7.8 | 15.6 | 0.00 | 0.00 | 0.00 | 77 | 1002.6 |
| 20260507103425 | 52 | 243 | 7.8 | 15.6 | 0.00 | 0.00 | 0.00 | 76 | 1002.6 |
| 20260507103304 | 52 | 242 | 7.8 | 15.6 | 0.00 | 0.00 | 0.00 | 76 | 1002.5 |
| 20260507103204 | 52 | 244 | 7.8 | 15.6 | 0.00 | 0.00 | 0.00 | 75 | 1002.6 |
| 20260507103104 | 53 | 243 | 7.0 | 15.6 | 0.00 | 0.00 | 0.00 | 75 | 1002.5 |
| 20260507103004 | 53 | 244 | 7.0 | 15.6 | 0.00 | 0.00 | 0.00 | 74 | 1002.8 |
| 20260507102904 | 53 | 245 | 7.0 | 15.6 | 0.00 | 0.00 | 0.00 | 74 | 1002.7 |
| 20260507102804 | 53 | 242 | 6.1 | 13.9 | 0.00 | 0.00 | 0.00 | 76 | 1002.5 |
| 20260507102704 | 53 | 241 | 7.0 | 13.9 | 0.00 | 0.00 | 0.00 | 77 | 1002.7 |
| 20260507102604 | 52 | 239 | 7.0 | 13.9 | 0.00 | 0.00 | 0.00 | 77 | 1002.8 |
| 20260507102504 | 52 | 237 | 7.8 | 13.9 | 0.00 | 0.00 | 0.00 | 76 | 1002.8 |
| 20260507102404 | 52 | 237 | 7.8 | 13.9 | 0.00 | 0.00 | 0.00 | 75 | 1002.6 |
| 20260507102306 | 52 | 239 | 7.8 | 13.9 | 0.00 | 0.00 | 0.00 | 75 | 1002.8 |
| 20260507102204 | 52 | 238 | 7.8 | 13.9 | 0.00 | 0.00 | 0.00 | 75 | 1002.6 |
| 20260507102125 | 52 | 240 | 7.8 | 13.9 | 0.00 | 0.00 | 0.00 | 76 | 1002.6 |
| 20260507102025 | 52 | 237 | 7.0 | 13.9 | 0.00 | 0.00 | 0.00 | 75 | 1002.8 |
| 20260507101925 | 52 | 239 | 7.8 | 13.9 | 0.00 | 0.00 | 0.00 | 75 | 1002.5 |
| 20260507101804 | 52 | 240 | 7.8 | 13.9 | 0.00 | 0.00 | 0.00 | 74 | 1002.6 |
| 20260507101704 | 53 | 241 | 7.0 | 13.9 | 0.00 | 0.00 | 0.00 | 75 | 1002.6 |
| 20260507101604 | 53 | 244 | 7.0 | 12.2 | 0.00 | 0.00 | 0.00 | 75 | 1002.6 |
| 20260507101504 | 53 | 243 | 6.1 | 12.2 | 0.00 | 0.00 | 0.00 | 74 | 1002.9 |
| 20260507101425 | 53 | 239 | 6.1 | 12.2 | 0.00 | 0.00 | 0.00 | 75 | 1002.9 |
| 20260507101304 | 53 | 237 | 6.1 | 12.2 | 0.00 | 0.00 | 0.00 | 76 | 1002.7 |
| 20260507101204 | 53 | 233 | 6.1 | 12.2 | 0.00 | 0.00 | 0.00 | 75 | 1002.5 |
| 20260507101104 | 53 | 229 | 6.1 | 12.2 | 0.00 | 0.00 | 0.00 | 75 | 1002.7 |
| 20260507101004 | 53 | 231 | 6.1 | 12.2 | 0.00 | 0.00 | 0.00 | 73 | 1002.7 |
| 20260507100904 | 53 | 228 | 6.1 | 12.2 | 0.00 | 0.00 | 0.00 | 73 | 1002.7 |
| 20260507100804 | 53 | 228 | 5.2 | 8.7 | 0.00 | 0.00 | 0.00 | 74 | 1002.6 |
| 20260507100725 | 53 | 229 | 5.2 | 8.7 | 0.00 | 0.00 | 0.00 | 74 | 1002.6 |
| 20260507100604 | 52 | 225 | 5.2 | 8.7 | 0.00 | 0.00 | 0.00 | 74 | 1002.8 |
| 20260507100504 | 52 | 228 | 5.2 | 8.7 | 0.00 | 0.00 | 0.00 | 73 | 1002.6 |
| 20260507100404 | 52 | 235 | 5.2 | 8.7 | 0.00 | 0.00 | 0.00 | 76 | 1002.7 |
| 20260507100304 | 52 | 232 | 5.2 | 8.7 | 0.00 | 0.00 | 0.00 | 75 | 1002.7 |
| 20260507100204 | 51 | 227 | 5.2 | 9.6 | 0.00 | 0.00 | 0.00 | 75 | 1002.5 |
| 20260507100104 | 51 | 228 | 5.2 | 9.6 | 0.00 | 0.00 | 0.00 | 76 | 1002.7 |
| 20260507100004 | 51 | 230 | 5.2 | 9.6 | 0.00 | 0.00 | 0.00 | 75 | 1002.9 |
| 20260507095904 | 51 | 230 | 5.2 | 9.6 | 0.00 | 0.00 | 0.00 | 74 | 1002.6 |
| 20260507095804 | 51 | 231 | 5.2 | 9.6 | 0.00 | 0.00 | 0.00 | 75 | 1003.0 |
| 20260507095704 | 51 | 232 | 5.2 | 9.6 | 0.00 | 0.00 | 0.00 | 76 | 1002.6 |
| 20260507095604 | 51 | 230 | 5.2 | 9.6 | 0.00 | 0.00 | 0.00 | 76 | 1002.7 |
| 20260507095504 | 51 | 230 | 5.2 | 9.6 | 0.00 | 0.00 | 0.00 | 76 | 1002.8 |
| 20260507095404 | 51 | 228 | 5.2 | 9.6 | 0.00 | 0.00 | 0.00 | 76 | 1002.9 |
| 20260507095306 | 51 | 227 | 5.2 | 9.6 | 0.00 | 0.00 | 0.00 | 75 | 1002.6 |
| 20260507095225 | 51 | 228 | 5.2 | 9.6 | 0.00 | 0.00 | 0.00 | 75 | 1002.6 |
| 20260507095104 | 51 | 229 | 5.2 | 9.6 | 0.00 | 0.00 | 0.00 | 74 | 1002.7 |
| 20260507095004 | 51 | 225 | 5.2 | 9.6 | 0.00 | 0.00 | 0.00 | 77 | 1002.7 |
| 20260507094925 | 51 | 225 | 5.2 | 9.6 | 0.00 | 0.00 | 0.00 | 76 | 1002.7 |
| 20260507094804 | 51 | 219 | 5.2 | 9.6 | 0.00 | 0.00 | 0.00 | 76 | 1002.4 |
| 20260507094704 | 51 | 217 | 5.2 | 9.6 | 0.00 | 0.00 | 0.00 | 75 | 1002.6 |
| 20260507094604 | 51 | 216 | 6.1 | 9.6 | 0.00 | 0.00 | 0.00 | 76 | 1002.5 |
| 20260507094504 | 51 | 211 | 6.1 | 9.6 | 0.00 | 0.00 | 0.00 | 75 | 1002.6 |
| 20260507094404 | 51 | 211 | 6.1 | 9.6 | 0.00 | 0.00 | 0.00 | 74 | 1002.6 |
| 20260507094304 | 51 | 211 | 5.2 | 9.6 | 0.00 | 0.00 | 0.00 | 75 | 1002.6 |
| 20260507094204 | 51 | 215 | 5.2 | 9.6 | 0.00 | 0.00 | 0.00 | 74 | 1002.6 |
| 20260507094104 | 51 | 216 | 5.2 | 9.6 | 0.00 | 0.00 | 0.00 | 74 | 1002.7 |
| 20260507094004 | 51 | 219 | 5.2 | 9.6 | 0.00 | 0.00 | 0.00 | 74 | 1002.7 |
| 20260507093925 | 51 | 219 | 5.2 | 9.6 | 0.00 | 0.00 | 0.00 | 74 | 1002.7 |
| 20260507093804 | 51 | 225 | 5.2 | 9.6 | 0.00 | 0.00 | 0.00 | 75 | 1002.6 |
| 20260507093725 | 51 | 228 | 4.3 | 9.6 | 0.00 | 0.00 | 0.00 | 75 | 1002.6 |
| 20260507093604 | 51 | 233 | 4.3 | 9.6 | 0.00 | 0.00 | 0.00 | 74 | 1002.7 |
| 20260507093504 | 51 | 238 | 5.2 | 9.6 | 0.00 | 0.00 | 0.00 | 75 | 1002.4 |
| 20260507093404 | 51 | 241 | 5.2 | 9.6 | 0.00 | 0.00 | 0.00 | 75 | 1002.5 |
| 20260507093304 | 51 | 242 | 5.2 | 9.6 | 0.00 | 0.00 | 0.00 | 76 | 1002.7 |
| 20260507093204 | 51 | 238 | 5.2 | 8.7 | 0.00 | 0.00 | 0.00 | 75 | 1002.5 |
| 20260507093125 | 51 | 238 | 5.2 | 8.7 | 0.00 | 0.00 | 0.00 | 76 | 1002.5 |
| 20260507093004 | 50 | 237 | 5.2 | 8.7 | 0.00 | 0.00 | 0.00 | 76 | 1002.5 |
| 20260507092904 | 50 | 235 | 5.2 | 8.7 | 0.00 | 0.00 | 0.00 | 75 | 1002.6 |
| 20260507092804 | 50 | 235 | 5.2 | 8.7 | 0.00 | 0.00 | 0.00 | 75 | 1002.6 |
| 20260507092704 | 50 | 235 | 5.2 | 8.7 | 0.00 | 0.00 | 0.00 | 75 | 1002.8 |
| 20260507092625 | 50 | 233 | 5.2 | 8.7 | 0.00 | 0.00 | 0.00 | 74 | 1002.8 |
| 20260507092504 | 50 | 232 | 4.3 | 8.7 | 0.00 | 0.00 | 0.00 | 75 | 1002.7 |
| 20260507092425 | 50 | 232 | 4.3 | 8.7 | 0.00 | 0.00 | 0.00 | 74 | 1002.7 |
| 20260507092306 | 50 | 232 | 4.3 | 8.7 | 0.00 | 0.00 | 0.00 | 74 | 1002.7 |
| 20260507092204 | 50 | 236 | 4.3 | 8.7 | 0.00 | 0.00 | 0.00 | 75 | 1002.6 |
| 20260507092104 | 50 | 233 | 5.2 | 8.7 | 0.00 | 0.00 | 0.00 | 75 | 1002.6 |
| 20260507092004 | 50 | 233 | 5.2 | 8.7 | 0.00 | 0.00 | 0.00 | 75 | 1002.7 |
| 20260507091904 | 50 | 234 | 5.2 | 8.7 | 0.00 | 0.00 | 0.00 | 75 | 1002.8 |
| 20260507091804 | 50 | 230 | 5.2 | 9.6 | 0.00 | 0.00 | 0.00 | 75 | 1002.5 |
| 20260507091703 | 50 | 229 | 5.2 | 9.6 | 0.00 | 0.00 | 0.00 | 75 | 1002.6 |
| 20260507091604 | 50 | 229 | 5.2 | 9.6 | 0.00 | 0.00 | 0.00 | 75 | 1002.6 |
| 20260507091503 | 50 | 228 | 5.2 | 9.6 | 0.00 | 0.00 | 0.00 | 75 | 1002.4 |
| 20260507091404 | 50 | 226 | 5.2 | 9.6 | 0.00 | 0.00 | 0.00 | 74 | 1002.6 |
| 20260507091304 | 50 | 226 | 5.2 | 9.6 | 0.00 | 0.00 | 0.00 | 74 | 1002.7 |
| 20260507091204 | 50 | 226 | 5.2 | 9.6 | 0.00 | 0.00 | 0.00 | 74 | 1002.6 |
| 20260507091125 | 50 | 227 | 5.2 | 9.6 | 0.00 | 0.00 | 0.00 | 74 | 1002.6 |
| 20260507091004 | 50 | 228 | 5.2 | 9.6 | 0.00 | 0.00 | 0.00 | 75 | 1002.4 |
| 20260507090904 | 50 | 228 | 5.2 | 9.6 | 0.00 | 0.00 | 0.00 | 75 | 1002.5 |
| 20260507090825 | 50 | 229 | 5.2 | 9.6 | 0.00 | 0.00 | 0.00 | 74 | 1002.5 |
| 20260507090704 | 50 | 232 | 5.2 | 9.6 | 0.00 | 0.00 | 0.00 | 74 | 1002.6 |
| 20260507090604 | 50 | 235 | 5.2 | 8.7 | 0.00 | 0.00 | 0.00 | 74 | 1002.6 |
| 20260507090504 | 50 | 236 | 5.2 | 8.7 | 0.00 | 0.00 | 0.00 | 75 | 1002.6 |
| 20260507090404 | 50 | 236 | 5.2 | 9.6 | 0.00 | 0.00 | 0.00 | 75 | 1002.6 |
| 20260507090304 | 50 | 234 | 5.2 | 9.6 | 0.00 | 0.00 | 0.00 | 74 | 1002.7 |
| 20260507090225 | 50 | 234 | 5.2 | 9.6 | 0.00 | 0.00 | 0.00 | 75 | 1002.7 |
| 20260507090105 | 50 | 237 | 5.2 | 9.6 | 0.00 | 0.00 | 0.00 | 74 | 1002.5 |
| 20260507090005 | 50 | 235 | 5.2 | 9.6 | 0.00 | 0.00 | 0.00 | 76 | 1002.4 |
| 20260507085904 | 50 | 234 | 5.2 | 9.6 | 0.00 | 0.00 | 0.00 | 75 | 1002.4 |
| 20260507085804 | 50 | 232 | 5.2 | 9.6 | 0.00 | 0.00 | 0.00 | 76 | 1002.5 |
| 20260507085704 | 49 | 234 | 5.2 | 9.6 | 0.00 | 0.00 | 0.00 | 75 | 1002.4 |
| 20260507085604 | 49 | 235 | 5.2 | 9.6 | 0.00 | 0.00 | 0.00 | 74 | 1002.6 |
| 20260507085504 | 49 | 235 | 4.3 | 9.6 | 0.00 | 0.00 | 0.00 | 75 | 1002.5 |
| 20260507085404 | 49 | 236 | 4.3 | 9.6 | 0.00 | 0.00 | 0.00 | 74 | 1002.7 |
| 20260507085306 | 50 | 236 | 4.3 | 8.7 | 0.00 | 0.00 | 0.00 | 76 | 1002.5 |
| 20260507085204 | 50 | 238 | 3.5 | 8.7 | 0.00 | 0.00 | 0.00 | 76 | 1002.7 |
| 20260507085104 | 50 | 237 | 3.5 | 8.7 | 0.00 | 0.00 | 0.00 | 77 | 1002.7 |
| 20260507085004 | 49 | 240 | 3.5 | 8.7 | 0.00 | 0.00 | 0.00 | 76 | 1002.7 |
| 20260507084925 | 49 | 241 | 3.5 | 8.7 | 0.00 | 0.00 | 0.00 | 74 | 1002.7 |
| 20260507084804 | 50 | 242 | 3.5 | 7.8 | 0.00 | 0.00 | 0.00 | 76 | 1002.5 |
| 20260507084704 | 50 | 236 | 2.6 | 6.1 | 0.00 | 0.00 | 0.00 | 78 | 1002.5 |
| 20260507084604 | 50 | 240 | 3.5 | 7.8 | 0.00 | 0.00 | 0.00 | 78 | 1002.6 |
| 20260507084504 | 50 | 240 | 3.5 | 7.8 | 0.00 | 0.00 | 0.00 | 78 | 1002.6 |
| 20260507084425 | 50 | 240 | 3.5 | 7.8 | 0.00 | 0.00 | 0.00 | 77 | 1002.6 |
| 20260507084303 | 50 | 236 | 3.5 | 7.8 | 0.00 | 0.00 | 0.00 | 78 | 1002.7 |
| 20260507084204 | 49 | 235 | 3.5 | 7.8 | 0.00 | 0.00 | 0.00 | 78 | 1002.7 |
| 20260507084103 | 49 | 230 | 4.3 | 7.8 | 0.00 | 0.00 | 0.00 | 78 | 1002.6 |
| 20260507084004 | 49 | 229 | 4.3 | 7.8 | 0.00 | 0.00 | 0.00 | 77 | 1002.5 |
| 20260507083904 | 49 | 227 | 4.3 | 7.8 | 0.00 | 0.00 | 0.00 | 77 | 1002.5 |
| 20260507083804 | 49 | 226 | 4.3 | 7.8 | 0.00 | 0.00 | 0.00 | 77 | 1002.5 |
| 20260507083725 | 49 | 227 | 4.3 | 7.8 | 0.00 | 0.00 | 0.00 | 77 | 1002.5 |
| 20260507083604 | 49 | 222 | 4.3 | 7.8 | 0.00 | 0.00 | 0.00 | 77 | 1002.5 |
| 20260507083504 | 49 | 221 | 4.3 | 8.7 | 0.00 | 0.00 | 0.00 | 77 | 1002.4 |
| 20260507083404 | 49 | 221 | 4.3 | 8.7 | 0.00 | 0.00 | 0.00 | 76 | 1002.6 |
| 20260507083304 | 49 | 222 | 4.3 | 8.7 | 0.00 | 0.00 | 0.00 | 76 | 1002.5 |
| 20260507083204 | 49 | 222 | 4.3 | 8.7 | 0.00 | 0.00 | 0.00 | 77 | 1002.5 |
| 20260507083104 | 49 | 222 | 4.3 | 8.7 | 0.00 | 0.00 | 0.00 | 77 | 1002.3 |
| 20260507083004 | 49 | 218 | 4.3 | 8.7 | 0.00 | 0.00 | 0.00 | 77 | 1002.6 |
| 20260507082903 | 49 | 218 | 4.3 | 8.7 | 0.00 | 0.00 | 0.00 | 77 | 1002.5 |
| 20260507082804 | 49 | 219 | 4.3 | 8.7 | 0.00 | 0.00 | 0.00 | 77 | 1002.5 |
| 20260507082704 | 49 | 219 | 4.3 | 8.7 | 0.00 | 0.00 | 0.00 | 76 | 1002.5 |
| 20260507082604 | 49 | 217 | 4.3 | 8.7 | 0.00 | 0.00 | 0.00 | 76 | 1002.5 |
| 20260507082504 | 49 | 215 | 4.3 | 8.7 | 0.00 | 0.00 | 0.00 | 77 | 1002.5 |
| 20260507082404 | 49 | 211 | 4.3 | 7.8 | 0.00 | 0.00 | 0.00 | 77 | 1002.3 |
| 20260507082306 | 49 | 211 | 4.3 | 7.8 | 0.00 | 0.00 | 0.00 | 77 | 1002.2 |
| 20260507082203 | 49 | 209 | 4.3 | 7.8 | 0.00 | 0.00 | 0.00 | 77 | 1002.2 |
| 20260507082104 | 49 | 209 | 3.5 | 7.8 | 0.00 | 0.00 | 0.00 | 77 | 1002.2 |
| 20260507082004 | 49 | 212 | 3.5 | 7.8 | 0.00 | 0.00 | 0.00 | 77 | 1002.4 |
| 20260507081904 | 49 | 211 | 3.5 | 7.0 | 0.00 | 0.00 | 0.00 | 78 | 1002.3 |
| 20260507081804 | 49 | 208 | 3.5 | 7.0 | 0.00 | 0.00 | 0.00 | 77 | 1002.4 |
| 20260507081703 | 49 | 208 | 3.5 | 7.0 | 0.00 | 0.00 | 0.00 | 77 | 1002.3 |
| 20260507081604 | 49 | 209 | 3.5 | 7.0 | 0.00 | 0.00 | 0.00 | 76 | 1002.4 |
| 20260507081504 | 49 | 209 | 3.5 | 6.1 | 0.00 | 0.00 | 0.00 | 77 | 1002.5 |
| 20260507081404 | 49 | 211 | 3.5 | 7.0 | 0.00 | 0.00 | 0.00 | 77 | 1002.5 |
| 20260507081303 | 49 | 211 | 3.5 | 7.8 | 0.00 | 0.00 | 0.00 | 77 | 1002.4 |
| 20260507081204 | 49 | 206 | 3.5 | 7.8 | 0.00 | 0.00 | 0.00 | 78 | 1002.2 |
| 20260507081103 | 49 | 201 | 3.5 | 7.8 | 0.00 | 0.00 | 0.00 | 76 | 1002.4 |
| 20260507081004 | 49 | 200 | 3.5 | 7.8 | 0.00 | 0.00 | 0.00 | 76 | 1002.3 |
| 20260507080904 | 49 | 200 | 3.5 | 7.8 | 0.00 | 0.00 | 0.00 | 76 | 1002.3 |
| 20260507080804 | 49 | 201 | 3.5 | 7.8 | 0.00 | 0.00 | 0.00 | 76 | 1002.2 |
| 20260507080704 | 49 | 200 | 3.5 | 7.8 | 0.00 | 0.00 | 0.00 | 76 | 1002.2 |
| 20260507080604 | 49 | 201 | 3.5 | 7.8 | 0.00 | 0.00 | 0.00 | 75 | 1002.1 |
| 20260507080504 | 49 | 201 | 3.5 | 7.8 | 0.00 | 0.00 | 0.00 | 76 | 1002.4 |
| 20260507080404 | 50 | 198 | 3.5 | 7.8 | 0.00 | 0.00 | 0.00 | 74 | 1002.5 |
| 20260507080304 | 50 | 195 | 3.5 | 7.8 | 0.00 | 0.00 | 0.00 | 74 | 1002.5 |
| 20260507080203 | 50 | 196 | 3.5 | 6.1 | 0.00 | 0.00 | 0.00 | 75 | 1002.4 |
| 20260507080104 | 50 | 203 | 2.6 | 6.1 | 0.00 | 0.00 | 0.00 | 75 | 1002.3 |
| 20260507080004 | 50 | 204 | 2.6 | 6.1 | 0.00 | 0.00 | 0.00 | 75 | 1002.4 |
| 20260507075904 | 50 | 204 | 2.6 | 6.1 | 0.00 | 0.00 | 0.00 | 75 | 1002.2 |
| 20260507075804 | 50 | 206 | 2.6 | 6.1 | 0.00 | 0.00 | 0.00 | 75 | 1002.4 |
| 20260507075704 | 50 | 208 | 2.6 | 6.1 | 0.00 | 0.00 | 0.00 | 75 | 1002.3 |
| 20260507075604 | 50 | 208 | 2.6 | 6.1 | 0.00 | 0.00 | 0.00 | 75 | 1002.3 |
| 20260507075503 | 50 | 206 | 2.6 | 6.1 | 0.00 | 0.00 | 0.00 | 76 | 1002.3 |
| 20260507075404 | 50 | 208 | 2.6 | 5.2 | 0.00 | 0.00 | 0.00 | 74 | 1002.3 |
| 20260507075306 | 50 | 208 | 2.6 | 5.2 | 0.00 | 0.00 | 0.00 | 76 | 1002.4 |
| 20260507075204 | 50 | 210 | 2.6 | 5.2 | 0.00 | 0.00 | 0.00 | 77 | 1002.3 |
| 20260507075104 | 50 | 211 | 2.6 | 5.2 | 0.00 | 0.00 | 0.00 | 77 | 1002.3 |
| 20260507075004 | 50 | 208 | 2.6 | 5.2 | 0.00 | 0.00 | 0.00 | 77 | 1002.1 |
| 20260507074925 | 50 | 208 | 2.6 | 5.2 | 0.00 | 0.00 | 0.00 | 76 | 1002.1 |
| 20260507074803 | 50 | 206 | 2.6 | 6.1 | 0.00 | 0.00 | 0.00 | 76 | 1002.2 |
| 20260507074704 | 50 | 208 | 2.6 | 6.1 | 0.00 | 0.00 | 0.00 | 76 | 1002.4 |
| 20260507074603 | 50 | 208 | 2.6 | 7.0 | 0.00 | 0.00 | 0.00 | 76 | 1002.2 |
| 20260507074504 | 50 | 208 | 3.5 | 7.0 | 0.00 | 0.00 | 0.00 | 77 | 1002.0 |
| 20260507074404 | 50 | 207 | 3.5 | 7.0 | 0.00 | 0.00 | 0.00 | 76 | 1002.2 |
| 20260507074304 | 50 | 205 | 3.5 | 7.0 | 0.00 | 0.00 | 0.00 | 76 | 1002.4 |
| 20260507074203 | 50 | 202 | 3.5 | 7.0 | 0.00 | 0.00 | 0.00 | 76 | 1002.3 |
| 20260507074104 | 50 | 197 | 3.5 | 7.0 | 0.00 | 0.00 | 0.00 | 76 | 1002.2 |
| 20260507074004 | 50 | 200 | 3.5 | 7.0 | 0.00 | 0.00 | 0.00 | 76 | 1002.4 |
| 20260507073904 | 50 | 200 | 3.5 | 7.0 | 0.00 | 0.00 | 0.00 | 76 | 1002.1 |
| 20260507073825 | 50 | 200 | 3.5 | 7.0 | 0.00 | 0.00 | 0.00 | 75 | 1002.1 |
| 20260507073704 | 50 | 196 | 3.5 | 7.0 | 0.00 | 0.00 | 0.00 | 75 | 1002.1 |
| 20260507073604 | 50 | 188 | 2.6 | 7.0 | 0.00 | 0.00 | 0.00 | 75 | 1002.2 |
| 20260507073525 | 50 | 190 | 3.5 | 7.0 | 0.00 | 0.00 | 0.00 | 74 | 1002.2 |
| 20260507073404 | 50 | 190 | 2.6 | 6.1 | 0.00 | 0.00 | 0.00 | 76 | 1002.1 |
| 20260507073303 | 50 | 193 | 2.6 | 6.1 | 0.00 | 0.00 | 0.00 | 75 | 1002.2 |
| 20260507073204 | 50 | 196 | 2.6 | 6.1 | 0.00 | 0.00 | 0.00 | 76 | 1002.0 |
| 20260507073103 | 50 | 201 | 3.5 | 7.0 | 0.00 | 0.00 | 0.00 | 77 | 1002.1 |
| 20260507073004 | 50 | 205 | 3.5 | 7.8 | 0.00 | 0.00 | 0.00 | 77 | 1002.1 |
| 20260507072903 | 50 | 205 | 3.5 | 7.8 | 0.00 | 0.00 | 0.00 | 77 | 1002.1 |
| 20260507072804 | 50 | 205 | 3.5 | 7.8 | 0.00 | 0.00 | 0.00 | 76 | 1002.2 |
| 20260507072704 | 50 | 208 | 3.5 | 7.8 | 0.00 | 0.00 | 0.00 | 77 | 1002.2 |
| 20260507072604 | 50 | 214 | 4.3 | 7.8 | 0.00 | 0.00 | 0.00 | 76 | 1002.2 |
| 20260507072504 | 50 | 216 | 4.3 | 7.8 | 0.00 | 0.00 | 0.00 | 76 | 1002.1 |
| 20260507072425 | 50 | 214 | 4.3 | 7.8 | 0.00 | 0.00 | 0.00 | 76 | 1002.1 |
| 20260507072306 | 50 | 214 | 4.3 | 7.8 | 0.00 | 0.00 | 0.00 | 77 | 1002.1 |
| 20260507072204 | 49 | 215 | 4.3 | 7.8 | 0.00 | 0.00 | 0.00 | 77 | 1002.0 |
| 20260507072103 | 49 | 216 | 4.3 | 7.8 | 0.00 | 0.00 | 0.00 | 76 | 1002.1 |
| 20260507072025 | 49 | 215 | 4.3 | 7.8 | 0.00 | 0.00 | 0.00 | 76 | 1002.1 |
| 20260507071904 | 49 | 216 | 4.3 | 7.8 | 0.00 | 0.00 | 0.00 | 75 | 1002.2 |
| 20260507071803 | 49 | 215 | 4.3 | 7.8 | 0.00 | 0.00 | 0.00 | 77 | 1002.1 |
| 20260507071704 | 49 | 215 | 4.3 | 7.8 | 0.00 | 0.00 | 0.00 | 77 | 1002.3 |
| 20260507071604 | 49 | 214 | 4.3 | 7.8 | 0.00 | 0.00 | 0.00 | 76 | 1002.3 |
| 20260507071524 | 49 | 209 | 4.3 | 7.8 | 0.00 | 0.00 | 0.00 | 75 | 1002.3 |
| 20260507071404 | 49 | 206 | 4.3 | 8.7 | 0.00 | 0.00 | 0.00 | 77 | 1001.9 |
| 20260507071324 | 49 | 206 | 4.3 | 8.7 | 0.00 | 0.00 | 0.00 | 77 | 1001.9 |
| 20260507071204 | 49 | 205 | 5.2 | 8.7 | 0.00 | 0.00 | 0.00 | 77 | 1002.1 |
| 20260507071125 | 49 | 204 | 5.2 | 8.7 | 0.00 | 0.00 | 0.00 | 77 | 1002.1 |
| 20260507071003 | 49 | 197 | 5.2 | 8.7 | 0.00 | 0.00 | 0.00 | 77 | 1002.2 |
| 20260507070904 | 50 | 195 | 5.2 | 8.7 | 0.00 | 0.00 | 0.00 | 77 | 1002.2 |
| 20260507070803 | 50 | 193 | 4.3 | 8.7 | 0.00 | 0.00 | 0.00 | 76 | 1002.1 |
| 20260507070704 | 50 | 191 | 4.3 | 8.7 | 0.00 | 0.00 | 0.00 | 75 | 1002.2 |
| 20260507070603 | 50 | 185 | 4.3 | 8.7 | 0.00 | 0.00 | 0.00 | 76 | 1002.2 |
| 20260507070504 | 51 | 183 | 4.3 | 8.7 | 0.00 | 0.00 | 0.00 | 76 | 1002.2 |
| 20260507070403 | 51 | 185 | 4.3 | 8.7 | 0.00 | 0.00 | 0.00 | 76 | 1002.1 |
| 20260507070304 | 51 | 183 | 4.3 | 7.0 | 0.00 | 0.00 | 0.00 | 75 | 1002.0 |
| 20260507070203 | 51 | 179 | 4.3 | 7.0 | 0.00 | 0.00 | 0.00 | 76 | 1002.4 |
| 20260507070104 | 51 | 175 | 4.3 | 7.0 | 0.00 | 0.00 | 0.00 | 75 | 1002.2 |
| 20260507070008 | 50 | 182 | 4.3 | 7.0 | 0.00 | 0.00 | 0.00 | 75 | 1002.2 |
| 20260507065925 | 50 | 184 | 4.3 | 7.8 | 0.00 | 0.00 | 0.00 | 77 | 1002.2 |
| 20260507065804 | 50 | 183 | 4.3 | 7.8 | 0.00 | 0.00 | 0.00 | 75 | 1002.0 |
| 20260507065724 | 50 | 179 | 4.3 | 7.8 | 0.00 | 0.00 | 0.00 | 76 | 1002.0 |
| 20260507065604 | 50 | 181 | 4.3 | 7.8 | 0.00 | 0.00 | 0.00 | 77 | 1002.2 |
| 20260507065503 | 50 | 185 | 4.3 | 7.8 | 0.00 | 0.00 | 0.00 | 77 | 1002.1 |
| 20260507065404 | 50 | 185 | 4.3 | 7.8 | 0.00 | 0.00 | 0.00 | 76 | 1002.1 |
| 20260507065306 | 50 | 183 | 4.3 | 7.8 | 0.00 | 0.00 | 0.00 | 76 | 1002.1 |
| 20260507065204 | 50 | 187 | 4.3 | 7.8 | 0.00 | 0.00 | 0.00 | 78 | 1002.1 |
| 20260507065104 | 50 | 190 | 4.3 | 7.8 | 0.00 | 0.00 | 0.00 | 77 | 1002.3 |
| 20260507065025 | 50 | 188 | 4.3 | 7.8 | 0.00 | 0.00 | 0.00 | 77 | 1002.3 |
| 20260507064904 | 49 | 185 | 4.3 | 7.8 | 0.00 | 0.00 | 0.00 | 77 | 1002.3 |
| 20260507064825 | 49 | 185 | 4.3 | 7.8 | 0.00 | 0.00 | 0.00 | 77 | 1002.3 |
| 20260507064704 | 49 | 191 | 4.3 | 7.0 | 0.00 | 0.00 | 0.00 | 77 | 1002.4 |
| 20260507064604 | 49 | 189 | 3.5 | 7.0 | 0.00 | 0.00 | 0.00 | 78 | 1002.2 |
| 20260507064504 | 49 | 189 | 3.5 | 7.0 | 0.00 | 0.00 | 0.00 | 77 | 1002.1 |
| 20260507064404 | 49 | 189 | 3.5 | 7.0 | 0.00 | 0.00 | 0.00 | 79 | 1002.1 |
| 20260507064325 | 49 | 190 | 3.5 | 7.0 | 0.00 | 0.00 | 0.00 | 79 | 1002.1 |
| 20260507064203 | 49 | 186 | 3.5 | 7.0 | 0.00 | 0.00 | 0.00 | 78 | 1002.1 |
| 20260507064104 | 49 | 182 | 3.5 | 7.0 | 0.00 | 0.00 | 0.00 | 77 | 1002.4 |
| 20260507064003 | 49 | 178 | 3.5 | 7.0 | 0.00 | 0.00 | 0.00 | 77 | 1002.2 |
| 20260507063904 | 49 | 177 | 2.6 | 6.1 | 0.00 | 0.00 | 0.00 | 78 | 1002.2 |
| 20260507063803 | 49 | 181 | 2.6 | 6.1 | 0.00 | 0.00 | 0.00 | 78 | 1002.2 |
| 20260507063704 | 49 | 184 | 2.6 | 7.0 | 0.00 | 0.00 | 0.00 | 78 | 1002.1 |
| 20260507063603 | 49 | 187 | 3.5 | 7.0 | 0.00 | 0.00 | 0.00 | 79 | 1002.2 |
| 20260507063503 | 49 | 188 | 3.5 | 7.0 | 0.00 | 0.00 | 0.00 | 78 | 1002.2 |
| 20260507063425 | 49 | 186 | 3.5 | 7.0 | 0.00 | 0.00 | 0.00 | 79 | 1002.2 |
| 20260507063324 | 49 | 190 | 3.5 | 7.0 | 0.00 | 0.00 | 0.00 | 79 | 1002.1 |
| 20260507063204 | 49 | 192 | 3.5 | 7.0 | 0.00 | 0.00 | 0.00 | 78 | 1002.3 |
| 20260507063103 | 49 | 191 | 3.5 | 7.0 | 0.00 | 0.00 | 0.00 | 78 | 1002.3 |
| 20260507063004 | 48 | 188 | 3.5 | 7.0 | 0.00 | 0.00 | 0.00 | 79 | 1002.1 |
| 20260507062904 | 48 | 189 | 3.5 | 7.0 | 0.00 | 0.00 | 0.00 | 80 | 1002.4 |
| 20260507062804 | 48 | 184 | 3.5 | 7.0 | 0.00 | 0.00 | 0.00 | 78 | 1002.1 |
| 20260507062703 | 49 | 177 | 3.5 | 7.0 | 0.00 | 0.00 | 0.00 | 79 | 1002.4 |
| 20260507062604 | 49 | 173 | 3.5 | 7.0 | 0.00 | 0.00 | 0.00 | 79 | 1002.3 |
| 20260507062503 | 49 | 170 | 3.5 | 6.1 | 0.00 | 0.00 | 0.00 | 80 | 1002.2 |
| 20260507062404 | 49 | 169 | 3.5 | 6.1 | 0.00 | 0.00 | 0.00 | 79 | 1002.3 |
| 20260507062306 | 49 | 162 | 2.6 | 6.1 | 0.00 | 0.00 | 0.00 | 79 | 1002.2 |
| 20260507062204 | 49 | 161 | 2.6 | 6.1 | 0.00 | 0.00 | 0.00 | 78 | 1002.4 |
| 20260507062125 | 49 | 164 | 2.6 | 6.1 | 0.00 | 0.00 | 0.00 | 78 | 1002.4 |
| 20260507062003 | 49 | 165 | 2.6 | 6.1 | 0.00 | 0.00 | 0.00 | 80 | 1002.3 |
| 20260507061904 | 48 | 161 | 2.6 | 6.1 | 0.00 | 0.00 | 0.00 | 79 | 1002.3 |
| 20260507061803 | 48 | 159 | 2.6 | 6.1 | 0.00 | 0.00 | 0.00 | 81 | 1002.3 |
| 20260507061725 | 48 | 161 | 2.6 | 7.8 | 0.00 | 0.00 | 0.00 | 80 | 1002.3 |
| 20260507061603 | 48 | 168 | 2.6 | 7.8 | 0.00 | 0.00 | 0.00 | 80 | 1002.3 |
| 20260507061504 | 48 | 171 | 2.6 | 7.8 | 0.00 | 0.00 | 0.00 | 79 | 1002.4 |
| 20260507061404 | 48 | 175 | 2.6 | 7.8 | 0.00 | 0.00 | 0.00 | 81 | 1002.4 |
| 20260507061304 | 48 | 178 | 2.6 | 7.8 | 0.00 | 0.00 | 0.00 | 80 | 1002.4 |
| 20260507061204 | 48 | 177 | 2.6 | 7.8 | 0.00 | 0.00 | 0.00 | 80 | 1002.3 |
| 20260507061104 | 48 | 177 | 2.6 | 7.8 | 0.00 | 0.00 | 0.00 | 80 | 1002.3 |
| 20260507061004 | 48 | 180 | 2.6 | 7.8 | 0.00 | 0.00 | 0.00 | 81 | 1002.3 |
| 20260507060925 | 48 | 181 | 2.6 | 7.8 | 0.00 | 0.00 | 0.00 | 80 | 1002.3 |
| 20260507060804 | 48 | 184 | 2.6 | 7.8 | 0.00 | 0.00 | 0.00 | 80 | 1002.2 |
| 20260507060703 | 48 | 190 | 2.6 | 7.8 | 0.00 | 0.00 | 0.00 | 80 | 1002.6 |
| 20260507060604 | 48 | 181 | 3.5 | 7.8 | 0.00 | 0.00 | 0.00 | 80 | 1002.4 |
| 20260507060504 | 48 | 175 | 2.6 | 6.1 | 0.00 | 0.00 | 0.00 | 80 | 1002.5 |
| 20260507060404 | 48 | 171 | 2.6 | 6.1 | 0.00 | 0.00 | 0.00 | 80 | 1002.4 |
| 20260507060304 | 48 | 169 | 2.6 | 6.1 | 0.00 | 0.00 | 0.00 | 80 | 1002.4 |
| 20260507060204 | 48 | 166 | 2.6 | 6.1 | 0.00 | 0.00 | 0.00 | 81 | 1002.5 |
| 20260507060104 | 48 | 167 | 2.6 | 6.1 | 0.00 | 0.00 | 0.00 | 80 | 1002.4 |
| 20260507060004 | 47 | 167 | 2.6 | 6.1 | 0.00 | 0.00 | 0.00 | 80 | 1002.6 |
| 20260507055903 | 47 | 168 | 2.6 | 7.0 | 0.00 | 0.00 | 0.00 | 80 | 1002.3 |
| 20260507055804 | 47 | 167 | 2.6 | 7.0 | 0.00 | 0.00 | 0.00 | 80 | 1002.4 |
| 20260507055703 | 47 | 164 | 2.6 | 7.0 | 0.00 | 0.00 | 0.00 | 80 | 1002.4 |
| 20260507055604 | 47 | 168 | 2.6 | 7.0 | 0.00 | 0.00 | 0.00 | 81 | 1002.3 |
| 20260507055503 | 47 | 167 | 2.6 | 7.0 | 0.00 | 0.00 | 0.00 | 81 | 1002.4 |
| 20260507055404 | 47 | 175 | 2.6 | 8.7 | 0.00 | 0.00 | 0.00 | 81 | 1002.2 |
| 20260507055306 | 47 | 174 | 3.5 | 8.7 | 0.00 | 0.00 | 0.00 | 81 | 1002.3 |
| 20260507055203 | 47 | 175 | 3.5 | 8.7 | 0.00 | 0.00 | 0.00 | 81 | 1002.4 |
| 20260507055104 | 47 | 174 | 3.5 | 8.7 | 0.00 | 0.00 | 0.00 | 81 | 1002.4 |
| 20260507055004 | 47 | 174 | 3.5 | 8.7 | 0.00 | 0.00 | 0.00 | 81 | 1002.5 |
| 20260507054904 | 47 | 174 | 3.5 | 8.7 | 0.00 | 0.00 | 0.00 | 81 | 1002.3 |
| 20260507054804 | 46 | 175 | 3.5 | 8.7 | 0.00 | 0.00 | 0.00 | 81 | 1002.2 |
| 20260507054704 | 46 | 175 | 3.5 | 8.7 | 0.00 | 0.00 | 0.00 | 82 | 1002.4 |
| 20260507054624 | 46 | 173 | 2.6 | 8.7 | 0.00 | 0.00 | 0.00 | 81 | 1002.4 |
| 20260507054503 | 46 | 176 | 2.6 | 8.7 | 0.00 | 0.00 | 0.00 | 82 | 1002.2 |
| 20260507054403 | 46 | 172 | 2.6 | 8.7 | 0.00 | 0.00 | 0.00 | 81 | 1002.2 |
| 20260507054303 | 46 | 170 | 2.6 | 7.0 | 0.00 | 0.00 | 0.00 | 81 | 1002.3 |
| 20260507054204 | 46 | 172 | 2.6 | 7.0 | 0.00 | 0.00 | 0.00 | 82 | 1002.2 |
| 20260507054103 | 46 | 176 | 1.7 | 7.0 | 0.00 | 0.00 | 0.00 | 81 | 1002.3 |
| 20260507054025 | 46 | 172 | 1.7 | 7.0 | 0.00 | 0.00 | 0.00 | 81 | 1002.3 |
| 20260507053903 | 46 | 175 | 1.7 | 3.5 | 0.00 | 0.00 | 0.00 | 82 | 1002.2 |
| 20260507053804 | 46 | 177 | 1.7 | 3.5 | 0.00 | 0.00 | 0.00 | 82 | 1002.2 |
| 20260507053703 | 46 | 173 | 1.7 | 3.5 | 0.00 | 0.00 | 0.00 | 83 | 1002.2 |
| 20260507053604 | 46 | 176 | 1.7 | 5.2 | 0.00 | 0.00 | 0.00 | 82 | 1002.5 |
| 20260507053503 | 46 | 176 | 1.7 | 5.2 | 0.00 | 0.00 | 0.00 | 82 | 1002.3 |
| 20260507053404 | 46 | 175 | 1.7 | 5.2 | 0.00 | 0.00 | 0.00 | 82 | 1002.0 |
| 20260507053303 | 46 | 179 | 1.7 | 5.2 | 0.00 | 0.00 | 0.00 | 82 | 1002.4 |
| 20260507053204 | 46 | 174 | 1.7 | 5.2 | 0.00 | 0.00 | 0.00 | 83 | 1002.4 |
| 20260507053104 | 46 | 172 | 1.7 | 5.2 | 0.00 | 0.00 | 0.00 | 83 | 1002.2 |
| 20260507053004 | 46 | 171 | 1.7 | 5.2 | 0.00 | 0.00 | 0.00 | 83 | 1002.4 |
| 20260507052903 | 46 | 170 | 1.7 | 5.2 | 0.00 | 0.00 | 0.00 | 83 | 1002.1 |
| 20260507052803 | 46 | 170 | 1.7 | 5.2 | 0.00 | 0.00 | 0.00 | 83 | 1002.3 |
| 20260507052704 | 46 | 171 | 1.7 | 5.2 | 0.00 | 0.00 | 0.00 | 83 | 1002.4 |
| 20260507052624 | 46 | 169 | 1.7 | 5.2 | 0.00 | 0.00 | 0.00 | 82 | 1002.4 |
| 20260507052525 | 46 | 170 | 2.6 | 5.2 | 0.00 | 0.00 | 0.00 | 82 | 1002.3 |
| 20260507052403 | 45 | 171 | 2.6 | 3.5 | 0.00 | 0.00 | 0.00 | 82 | 1002.3 |
| 20260507052325 | 45 | 169 | 2.6 | 3.5 | 0.00 | 0.00 | 0.00 | 82 | 1002.3 |
| 20260507052224 | 45 | 168 | 2.6 | 3.5 | 0.00 | 0.00 | 0.00 | 83 | 1002.3 |
| 20260507052103 | 45 | 172 | 2.6 | 3.5 | 0.00 | 0.00 | 0.00 | 82 | 1002.3 |
| 20260507052004 | 45 | 173 | 1.7 | 3.5 | 0.00 | 0.00 | 0.00 | 83 | 1002.3 |
| 20260507051903 | 45 | 174 | 1.7 | 3.5 | 0.00 | 0.00 | 0.00 | 84 | 1002.3 |
| 20260507051825 | 45 | 176 | 1.7 | 3.5 | 0.00 | 0.00 | 0.00 | 83 | 1002.3 |
| 20260507051703 | 45 | 176 | 1.7 | 3.5 | 0.00 | 0.00 | 0.00 | 83 | 1002.4 |
| 20260507051603 | 45 | 172 | 1.7 | 3.5 | 0.00 | 0.00 | 0.00 | 84 | 1002.4 |
| 20260507051503 | 45 | 171 | 1.7 | 3.5 | 0.00 | 0.00 | 0.00 | 84 | 1002.2 |
| 20260507051403 | 44 | 174 | 1.7 | 3.5 | 0.00 | 0.00 | 0.00 | 84 | 1002.4 |
| 20260507051303 | 44 | 174 | 1.7 | 3.5 | 0.00 | 0.00 | 0.00 | 84 | 1002.2 |
| 20260507051203 | 44 | 170 | 1.7 | 3.5 | 0.00 | 0.00 | 0.00 | 84 | 1002.3 |
| 20260507051104 | 44 | 169 | 1.7 | 3.5 | 0.00 | 0.00 | 0.00 | 84 | 1002.2 |
| 20260507051003 | 44 | 170 | 1.7 | 3.5 | 0.00 | 0.00 | 0.00 | 84 | 1002.2 |
| 20260507050904 | 44 | 172 | 1.7 | 3.5 | 0.00 | 0.00 | 0.00 | 84 | 1002.2 |
| 20260507050804 | 44 | 174 | 1.7 | 5.2 | 0.00 | 0.00 | 0.00 | 84 | 1002.3 |
| 20260507050704 | 44 | 173 | 1.7 | 5.2 | 0.00 | 0.00 | 0.00 | 84 | 1002.2 |
| 20260507050603 | 44 | 174 | 1.7 | 5.2 | 0.00 | 0.00 | 0.00 | 84 | 1002.2 |
| 20260507050504 | 44 | 171 | 1.7 | 5.2 | 0.00 | 0.00 | 0.00 | 84 | 1002.3 |
| 20260507050404 | 44 | 172 | 1.7 | 5.2 | 0.00 | 0.00 | 0.00 | 84 | 1002.3 |
| 20260507050303 | 44 | 173 | 1.7 | 5.2 | 0.00 | 0.00 | 0.00 | 85 | 1001.9 |
| 20260507050204 | 44 | 176 | 1.7 | 5.2 | 0.00 | 0.00 | 0.00 | 84 | 1002.4 |
| 20260507050103 | 44 | 179 | 2.6 | 6.1 | 0.00 | 0.00 | 0.00 | 84 | 1002.4 |
| 20260507050004 | 44 | 182 | 2.6 | 6.1 | 0.00 | 0.00 | 0.00 | 84 | 1002.2 |
| 20260507045903 | 44 | 179 | 2.6 | 6.1 | 0.00 | 0.00 | 0.00 | 84 | 1002.3 |
| 20260507045804 | 44 | 180 | 2.6 | 6.1 | 0.00 | 0.00 | 0.00 | 84 | 1002.5 |
| 20260507045703 | 44 | 181 | 2.6 | 6.1 | 0.00 | 0.00 | 0.00 | 84 | 1002.3 |
| 20260507045624 | 44 | 183 | 2.6 | 6.1 | 0.00 | 0.00 | 0.00 | 84 | 1002.3 |
| 20260507045503 | 44 | 187 | 2.6 | 6.1 | 0.00 | 0.00 | 0.00 | 84 | 1002.2 |
| 20260507045404 | 43 | 192 | 2.6 | 6.1 | 0.00 | 0.00 | 0.00 | 85 | 1002.3 |
| 20260507045306 | 43 | 191 | 2.6 | 6.1 | 0.00 | 0.00 | 0.00 | 85 | 1002.2 |
| 20260507045204 | 43 | 192 | 2.6 | 6.1 | 0.00 | 0.00 | 0.00 | 85 | 1002.2 |
| 20260507045104 | 43 | 191 | 2.6 | 6.1 | 0.00 | 0.00 | 0.00 | 85 | 1002.0 |
| 20260507045004 | 43 | 188 | 1.7 | 6.1 | 0.00 | 0.00 | 0.00 | 85 | 1002.2 |
| 20260507044903 | 43 | 187 | 1.7 | 5.2 | 0.00 | 0.00 | 0.00 | 85 | 1002.1 |
| 20260507044803 | 43 | 186 | 1.7 | 5.2 | 0.00 | 0.00 | 0.00 | 85 | 1002.2 |
| 20260507044703 | 43 | 183 | 1.7 | 5.2 | 0.00 | 0.00 | 0.00 | 85 | 1002.1 |
| 20260507044603 | 43 | 181 | 1.7 | 5.2 | 0.00 | 0.00 | 0.00 | 85 | 1002.2 |
| 20260507044504 | 43 | 179 | 1.7 | 5.2 | 0.00 | 0.00 | 0.00 | 85 | 1002.2 |
| 20260507044403 | 43 | 177 | 1.7 | 5.2 | 0.00 | 0.00 | 0.00 | 85 | 1002.4 |
| 20260507044304 | 43 | 176 | 2.6 | 5.2 | 0.00 | 0.00 | 0.00 | 85 | 1002.3 |
| 20260507044203 | 43 | 178 | 2.6 | 5.2 | 0.00 | 0.00 | 0.00 | 85 | 1002.3 |
| 20260507044103 | 43 | 177 | 2.6 | 5.2 | 0.00 | 0.00 | 0.00 | 85 | 1002.1 |
| 20260507044003 | 43 | 181 | 2.6 | 5.2 | 0.00 | 0.00 | 0.00 | 85 | 1002.2 |
| 20260507043904 | 43 | 181 | 2.6 | 5.2 | 0.00 | 0.00 | 0.00 | 85 | 1002.1 |
| 20260507043824 | 43 | 180 | 2.6 | 5.2 | 0.00 | 0.00 | 0.00 | 84 | 1002.1 |
| 20260507043704 | 43 | 182 | 2.6 | 5.2 | 0.00 | 0.00 | 0.00 | 85 | 1002.2 |
| 20260507043603 | 43 | 182 | 2.6 | 5.2 | 0.00 | 0.00 | 0.00 | 84 | 1002.1 |
| 20260507043504 | 43 | 183 | 2.6 | 5.2 | 0.00 | 0.00 | 0.00 | 84 | 1002.1 |
| 20260507043403 | 43 | 180 | 2.6 | 5.2 | 0.00 | 0.00 | 0.00 | 84 | 1002.1 |
| 20260507043304 | 43 | 179 | 2.6 | 5.2 | 0.00 | 0.00 | 0.00 | 84 | 1002.1 |
| 20260507043203 | 43 | 176 | 2.6 | 6.1 | 0.00 | 0.00 | 0.00 | 85 | 1002.0 |
| 20260507043104 | 43 | 176 | 2.6 | 6.1 | 0.00 | 0.00 | 0.00 | 85 | 1002.1 |
| 20260507043003 | 43 | 171 | 2.6 | 6.1 | 0.00 | 0.00 | 0.00 | 85 | 1002.0 |
| 20260507042904 | 43 | 173 | 2.6 | 6.1 | 0.00 | 0.00 | 0.00 | 84 | 1002.1 |
| 20260507042824 | 43 | 173 | 2.6 | 6.1 | 0.00 | 0.00 | 0.00 | 84 | 1002.1 |
| 20260507042703 | 43 | 171 | 1.7 | 6.1 | 0.00 | 0.00 | 0.00 | 85 | 1002.2 |
| 20260507042604 | 43 | 172 | 2.6 | 6.1 | 0.00 | 0.00 | 0.00 | 84 | 1002.0 |
| 20260507042503 | 43 | 172 | 2.6 | 6.1 | 0.00 | 0.00 | 0.00 | 84 | 1002.4 |
| 20260507042403 | 43 | 175 | 2.6 | 6.1 | 0.00 | 0.00 | 0.00 | 84 | 1002.1 |
| 20260507042306 | 43 | 175 | 1.7 | 6.1 | 0.00 | 0.00 | 0.00 | 85 | 1002.2 |
| 20260507042203 | 43 | 175 | 2.6 | 6.1 | 0.00 | 0.00 | 0.00 | 85 | 1002.1 |
| 20260507042124 | 43 | 176 | 1.7 | 3.5 | 0.00 | 0.00 | 0.00 | 85 | 1002.1 |
| 20260507042025 | 43 | 177 | 1.7 | 3.5 | 0.00 | 0.00 | 0.00 | 85 | 1002.2 |
| 20260507041904 | 43 | 181 | 1.7 | 3.5 | 0.00 | 0.00 | 0.00 | 85 | 1002.1 |
| 20260507041803 | 43 | 185 | 1.7 | 3.5 | 0.00 | 0.00 | 0.00 | 85 | 1002.3 |
| 20260507041704 | 43 | 187 | 1.7 | 3.5 | 0.00 | 0.00 | 0.00 | 85 | 1002.1 |
| 20260507041603 | 43 | 191 | 1.7 | 3.5 | 0.00 | 0.00 | 0.00 | 85 | 1002.1 |
| 20260507041503 | 43 | 193 | 1.7 | 3.5 | 0.00 | 0.00 | 0.00 | 85 | 1002.1 |
| 20260507041403 | 43 | 196 | 1.7 | 3.5 | 0.00 | 0.00 | 0.00 | 85 | 1002.2 |
| 20260507041303 | 42 | 199 | 1.7 | 3.5 | 0.00 | 0.00 | 0.00 | 85 | 1001.9 |
| 20260507041203 | 42 | 202 | 1.7 | 3.5 | 0.00 | 0.00 | 0.00 | 85 | 1002.3 |
| 20260507041103 | 43 | 204 | 1.7 | 3.5 | 0.00 | 0.00 | 0.00 | 86 | 1002.1 |
| 20260507041003 | 43 | 204 | 1.7 | 3.5 | 0.00 | 0.00 | 0.00 | 85 | 1002.1 |
| 20260507040925 | 43 | 203 | 1.7 | 3.5 | 0.00 | 0.00 | 0.00 | 85 | 1002.1 |
| 20260507040803 | 43 | 203 | 1.7 | 3.5 | 0.00 | 0.00 | 0.00 | 85 | 1002.2 |
| 20260507040704 | 43 | 205 | 2.6 | 3.5 | 0.00 | 0.00 | 0.00 | 85 | 1002.1 |
| 20260507040603 | 43 | 203 | 2.6 | 3.5 | 0.00 | 0.00 | 0.00 | 85 | 1002.1 |
| 20260507040504 | 43 | 203 | 2.6 | 3.5 | 0.00 | 0.00 | 0.00 | 85 | 1002.1 |
| 20260507040403 | 42 | 203 | 2.6 | 3.5 | 0.00 | 0.00 | 0.00 | 86 | 1002.3 |
| 20260507040303 | 42 | 204 | 2.6 | 3.5 | 0.00 | 0.00 | 0.00 | 85 | 1002.1 |
| 20260507040203 | 42 | 205 | 2.6 | 3.5 | 0.00 | 0.00 | 0.00 | 86 | 1002.2 |
| 20260507040004 | 42 | 205 | 2.6 | 3.5 | 0.00 | 0.00 | 0.00 | 85 | 1002.1 |
| 20260507035924 | 42 | 204 | 2.6 | 3.5 | 0.00 | 0.00 | 0.00 | 86 | 1002.1 |
| 20260507035804 | 42 | 202 | 2.6 | 3.5 | 0.00 | 0.00 | 0.00 | 86 | 1002.2 |
| 20260507035724 | 42 | 202 | 1.7 | 3.5 | 0.00 | 0.00 | 0.00 | 86 | 1002.2 |
| 20260507035604 | 42 | 199 | 1.7 | 3.5 | 0.00 | 0.00 | 0.00 | 86 | 1002.2 |
| 20260507035504 | 42 | 197 | 1.7 | 3.5 | 0.00 | 0.00 | 0.00 | 86 | 1002.2 |
| 20260507035403 | 42 | 195 | 1.7 | 3.5 | 0.00 | 0.00 | 0.00 | 86 | 1002.1 |
| 20260507035306 | 42 | 193 | 1.7 | 3.5 | 0.00 | 0.00 | 0.00 | 86 | 1002.3 |
| 20260507035225 | 42 | 191 | 1.7 | 3.5 | 0.00 | 0.00 | 0.00 | 86 | 1002.3 |
| 20260507035104 | 42 | 185 | 0.9 | 2.6 | 0.00 | 0.00 | 0.00 | 86 | 1002.3 |
| 20260507035004 | 42 | 185 | 0.9 | 2.6 | 0.00 | 0.00 | 0.00 | 86 | 1002.2 |
| 20260507034904 | 42 | 188 | 0.9 | 2.6 | 0.00 | 0.00 | 0.00 | 86 | 1002.3 |
| 20260507034803 | 42 | 188 | 0.9 | 2.6 | 0.00 | 0.00 | 0.00 | 85 | 1002.0 |
| 20260507034704 | 42 | 187 | 0.9 | 2.6 | 0.00 | 0.00 | 0.00 | 85 | 1002.1 |
| 20260507034603 | 42 | 189 | 0.9 | 2.6 | 0.00 | 0.00 | 0.00 | 85 | 1002.4 |
| 20260507034504 | 42 | 191 | 0.9 | 2.6 | 0.00 | 0.00 | 0.00 | 85 | 1002.1 |
| 20260507034424 | 42 | 192 | 1.7 | 2.6 | 0.00 | 0.00 | 0.00 | 85 | 1002.1 |
| 20260507034304 | 42 | 192 | 0.9 | 2.6 | 0.00 | 0.00 | 0.00 | 85 | 1002.1 |
| 20260507034204 | 42 | 191 | 0.9 | 2.6 | 0.00 | 0.00 | 0.00 | 85 | 1002.1 |
| 20260507034104 | 42 | 190 | 0.9 | 2.6 | 0.00 | 0.00 | 0.00 | 85 | 1002.2 |
| 20260507034004 | 42 | 189 | 0.9 | 2.6 | 0.00 | 0.00 | 0.00 | 85 | 1002.1 |
| 20260507033903 | 42 | 186 | 0.9 | 2.6 | 0.00 | 0.00 | 0.00 | 85 | 1002.3 |
| 20260507033804 | 42 | 182 | 0.9 | 2.6 | 0.00 | 0.00 | 0.00 | 85 | 1002.2 |
| 20260507033703 | 42 | 179 | 0.9 | 2.6 | 0.00 | 0.00 | 0.00 | 85 | 1002.2 |
| 20260507033603 | 42 | 175 | 0.9 | 2.6 | 0.00 | 0.00 | 0.00 | 85 | 1002.0 |
| 20260507033503 | 42 | 170 | 1.7 | 2.6 | 0.00 | 0.00 | 0.00 | 85 | 1002.3 |
| 20260507033404 | 42 | 168 | 0.9 | 2.6 | 0.00 | 0.00 | 0.00 | 85 | 1002.2 |
| 20260507033303 | 42 | 168 | 1.7 | 2.6 | 0.00 | 0.00 | 0.00 | 85 | 1002.3 |
| 20260507033204 | 42 | 168 | 1.7 | 2.6 | 0.00 | 0.00 | 0.00 | 85 | 1002.3 |
| 20260507033104 | 42 | 167 | 1.7 | 2.6 | 0.00 | 0.00 | 0.00 | 85 | 1002.1 |
| 20260507033003 | 42 | 167 | 1.7 | 2.6 | 0.00 | 0.00 | 0.00 | 85 | 1002.2 |
| 20260507032903 | 42 | 166 | 0.9 | 2.6 | 0.00 | 0.00 | 0.00 | 85 | 1002.2 |
| 20260507032803 | 42 | 166 | 0.9 | 2.6 | 0.00 | 0.00 | 0.00 | 85 | 1002.1 |
| 20260507032703 | 42 | 165 | 0.9 | 2.6 | 0.00 | 0.00 | 0.00 | 85 | 1002.2 |
| 20260507032624 | 42 | 165 | 0.9 | 6.1 | 0.00 | 0.00 | 0.00 | 85 | 1002.2 |
| 20260507032504 | 42 | 164 | 0.9 | 6.1 | 0.00 | 0.00 | 0.00 | 86 | 1002.2 |
| 20260507032403 | 42 | 162 | 0.9 | 6.1 | 0.00 | 0.00 | 0.00 | 85 | 1002.1 |
| 20260507032305 | 42 | 160 | 1.7 | 6.1 | 0.00 | 0.00 | 0.00 | 85 | 1002.5 |
| 20260507032203 | 42 | 159 | 1.7 | 6.1 | 0.00 | 0.00 | 0.00 | 85 | 1002.2 |
| 20260507032103 | 42 | 158 | 1.7 | 6.1 | 0.00 | 0.00 | 0.00 | 85 | 1002.4 |
| 20260507032004 | 42 | 156 | 1.7 | 6.1 | 0.00 | 0.00 | 0.00 | 85 | 1002.1 |
| 20260507031903 | 42 | 155 | 1.7 | 6.1 | 0.00 | 0.00 | 0.00 | 85 | 1002.2 |
| 20260507031803 | 42 | 155 | 1.7 | 6.1 | 0.00 | 0.00 | 0.00 | 85 | 1002.3 |
| 20260507031703 | 42 | 155 | 1.7 | 6.1 | 0.00 | 0.00 | 0.00 | 85 | 1002.2 |
| 20260507031604 | 42 | 154 | 1.7 | 6.1 | 0.00 | 0.00 | 0.00 | 85 | 1002.4 |
| 20260507031503 | 43 | 154 | 1.7 | 3.5 | 0.00 | 0.00 | 0.00 | 85 | 1002.2 |
| 20260507031404 | 43 | 154 | 1.7 | 3.5 | 0.00 | 0.00 | 0.00 | 85 | 1002.2 |
| 20260507031304 | 43 | 155 | 1.7 | 3.5 | 0.00 | 0.00 | 0.00 | 85 | 1002.3 |
| 20260507031203 | 43 | 155 | 1.7 | 3.5 | 0.00 | 0.00 | 0.00 | 85 | 1002.2 |
| 20260507031103 | 43 | 157 | 0.9 | 2.6 | 0.00 | 0.00 | 0.00 | 85 | 1002.3 |
| 20260507031003 | 42 | 158 | 0.9 | 2.6 | 0.00 | 0.00 | 0.00 | 85 | 1002.3 |
| 20260507030904 | 42 | 158 | 0.9 | 2.6 | 0.00 | 0.00 | 0.00 | 85 | 1002.2 |
| 20260507030824 | 42 | 158 | 0.9 | 2.6 | 0.00 | 0.00 | 0.00 | 85 | 1002.2 |
| 20260507030704 | 43 | 154 | 0.9 | 3.5 | 0.00 | 0.00 | 0.00 | 85 | 1002.1 |
| 20260507030625 | 43 | 154 | 0.9 | 3.5 | 0.00 | 0.00 | 0.00 | 84 | 1002.1 |
| 20260507030503 | 43 | 151 | 1.7 | 3.5 | 0.00 | 0.00 | 0.00 | 84 | 1002.2 |
| 20260507030404 | 43 | 150 | 1.7 | 3.5 | 0.00 | 0.00 | 0.00 | 84 | 1002.2 |
| 20260507030303 | 43 | 148 | 1.7 | 3.5 | 0.00 | 0.00 | 0.00 | 84 | 1002.4 |
| 20260507030203 | 43 | 147 | 1.7 | 3.5 | 0.00 | 0.00 | 0.00 | 84 | 1002.5 |
| 20260507030004 | 43 | 145 | 1.7 | 3.5 | 0.00 | 0.00 | 0.00 | 84 | 1002.4 |
| 20260507025903 | 43 | 144 | 1.7 | 3.5 | 0.00 | 0.00 | 0.00 | 84 | 1002.2 |
| 20260507025804 | 43 | 143 | 1.7 | 3.5 | 0.00 | 0.00 | 0.00 | 84 | 1002.2 |
| 20260507025703 | 43 | 143 | 1.7 | 3.5 | 0.00 | 0.00 | 0.00 | 84 | 1002.2 |
| 20260507025604 | 43 | 141 | 1.7 | 3.5 | 0.00 | 0.00 | 0.00 | 84 | 1002.3 |
| 20260507025503 | 43 | 140 | 1.7 | 3.5 | 0.00 | 0.00 | 0.00 | 84 | 1002.2 |
| 20260507025404 | 43 | 139 | 1.7 | 3.5 | 0.00 | 0.00 | 0.00 | 84 | 1002.3 |
| 20260507025306 | 43 | 140 | 1.7 | 3.5 | 0.00 | 0.00 | 0.00 | 84 | 1002.4 |
| 20260507025204 | 43 | 140 | 1.7 | 3.5 | 0.00 | 0.00 | 0.00 | 84 | 1002.3 |
| 20260507025103 | 43 | 137 | 1.7 | 3.5 | 0.00 | 0.00 | 0.00 | 83 | 1002.3 |
| 20260507025004 | 43 | 137 | 1.7 | 3.5 | 0.00 | 0.00 | 0.00 | 84 | 1002.1 |
| 20260507024903 | 43 | 139 | 1.7 | 3.5 | 0.00 | 0.00 | 0.00 | 83 | 1002.3 |
| 20260507024824 | 43 | 139 | 1.7 | 3.5 | 0.00 | 0.00 | 0.00 | 84 | 1002.3 |
| 20260507024703 | 43 | 145 | 1.7 | 3.5 | 0.00 | 0.00 | 0.00 | 84 | 1002.2 |
| 20260507024624 | 43 | 146 | 1.7 | 3.5 | 0.00 | 0.00 | 0.00 | 84 | 1002.2 |
| 20260507024524 | 43 | 151 | 1.7 | 3.5 | 0.00 | 0.00 | 0.00 | 83 | 1002.2 |
| 20260507024403 | 44 | 154 | 1.7 | 3.5 | 0.00 | 0.00 | 0.00 | 83 | 1002.3 |
| 20260507024304 | 44 | 158 | 1.7 | 3.5 | 0.00 | 0.00 | 0.00 | 83 | 1002.3 |
| 20260507024203 | 44 | 159 | 1.7 | 3.5 | 0.00 | 0.00 | 0.00 | 83 | 1002.3 |
| 20260507024103 | 44 | 159 | 1.7 | 3.5 | 0.00 | 0.00 | 0.00 | 83 | 1002.3 |
| 20260507024003 | 44 | 162 | 1.7 | 3.5 | 0.00 | 0.00 | 0.00 | 83 | 1002.4 |
| 20260507023924 | 44 | 162 | 1.7 | 3.5 | 0.00 | 0.00 | 0.00 | 83 | 1002.4 |
| 20260507023824 | 44 | 159 | 1.7 | 3.5 | 0.00 | 0.00 | 0.00 | 83 | 1002.3 |
| 20260507023703 | 43 | 148 | 1.7 | 3.5 | 0.00 | 0.00 | 0.00 | 83 | 1002.3 |
| 20260507023603 | 43 | 147 | 1.7 | 2.6 | 0.00 | 0.00 | 0.00 | 83 | 1002.3 |
| 20260507023503 | 43 | 142 | 1.7 | 2.6 | 0.00 | 0.00 | 0.00 | 83 | 1002.2 |
| 20260507023403 | 44 | 141 | 1.7 | 2.6 | 0.00 | 0.00 | 0.00 | 83 | 1002.3 |
| 20260507023304 | 44 | 139 | 1.7 | 2.6 | 0.00 | 0.00 | 0.00 | 83 | 1002.2 |
| 20260507023203 | 44 | 140 | 1.7 | 3.5 | 0.00 | 0.00 | 0.00 | 83 | 1002.3 |
| 20260507023103 | 44 | 139 | 1.7 | 3.5 | 0.00 | 0.00 | 0.00 | 83 | 1002.5 |
| 20260507023003 | 44 | 140 | 1.7 | 3.5 | 0.00 | 0.00 | 0.00 | 83 | 1002.2 |
| 20260507022903 | 44 | 141 | 1.7 | 3.5 | 0.00 | 0.00 | 0.00 | 83 | 1002.4 |
| 20260507022803 | 44 | 143 | 1.7 | 3.5 | 0.00 | 0.00 | 0.00 | 83 | 1002.4 |
| 20260507022703 | 44 | 146 | 1.7 | 5.2 | 0.00 | 0.00 | 0.00 | 83 | 1002.3 |
| 20260507022603 | 44 | 148 | 1.7 | 5.2 | 0.00 | 0.00 | 0.00 | 83 | 1002.4 |
| 20260507022504 | 44 | 152 | 1.7 | 5.2 | 0.00 | 0.00 | 0.00 | 83 | 1002.5 |
| 20260507022403 | 44 | 149 | 2.6 | 5.2 | 0.00 | 0.00 | 0.00 | 82 | 1002.5 |
| 20260507022306 | 44 | 147 | 2.6 | 5.2 | 0.00 | 0.00 | 0.00 | 82 | 1002.4 |
| 20260507022204 | 44 | 148 | 2.6 | 5.2 | 0.00 | 0.00 | 0.00 | 82 | 1002.5 |
| 20260507022103 | 44 | 148 | 2.6 | 5.2 | 0.00 | 0.00 | 0.00 | 82 | 1002.3 |
| 20260507022003 | 44 | 147 | 2.6 | 6.1 | 0.00 | 0.00 | 0.00 | 82 | 1002.3 |
| 20260507021904 | 44 | 147 | 2.6 | 6.1 | 0.00 | 0.00 | 0.00 | 82 | 1002.3 |
| 20260507021803 | 44 | 147 | 2.6 | 6.1 | 0.00 | 0.00 | 0.00 | 82 | 1002.4 |
| 20260507021703 | 44 | 148 | 2.6 | 6.1 | 0.00 | 0.00 | 0.00 | 82 | 1002.1 |
| 20260507021603 | 44 | 144 | 2.6 | 6.1 | 0.00 | 0.00 | 0.00 | 82 | 1002.3 |
| 20260507021504 | 44 | 141 | 2.6 | 6.1 | 0.00 | 0.00 | 0.00 | 82 | 1002.2 |
| 20260507021424 | 44 | 141 | 2.6 | 6.1 | 0.00 | 0.00 | 0.00 | 82 | 1002.2 |
| 20260507021303 | 44 | 142 | 2.6 | 6.1 | 0.00 | 0.00 | 0.00 | 81 | 1002.3 |
| 20260507021203 | 44 | 139 | 2.6 | 6.1 | 0.00 | 0.00 | 0.00 | 81 | 1002.4 |
| 20260507021103 | 44 | 140 | 2.6 | 6.1 | 0.00 | 0.00 | 0.00 | 81 | 1002.2 |
| 20260507021024 | 44 | 139 | 2.6 | 6.1 | 0.00 | 0.00 | 0.00 | 81 | 1002.2 |
| 20260507020903 | 44 | 136 | 2.6 | 3.5 | 0.00 | 0.00 | 0.00 | 82 | 1002.3 |
| 20260507020803 | 44 | 136 | 2.6 | 3.5 | 0.00 | 0.00 | 0.00 | 82 | 1002.4 |
| 20260507020703 | 44 | 133 | 2.6 | 3.5 | 0.00 | 0.00 | 0.00 | 82 | 1002.4 |
| 20260507020603 | 44 | 135 | 2.6 | 3.5 | 0.00 | 0.00 | 0.00 | 82 | 1002.4 |
| 20260507020503 | 44 | 134 | 2.6 | 3.5 | 0.00 | 0.00 | 0.00 | 82 | 1002.3 |
| 20260507020403 | 44 | 132 | 2.6 | 3.5 | 0.00 | 0.00 | 0.00 | 81 | 1002.5 |
| 20260507020303 | 44 | 131 | 2.6 | 3.5 | 0.00 | 0.00 | 0.00 | 81 | 1002.2 |
| 20260507020203 | 44 | 130 | 2.6 | 3.5 | 0.00 | 0.00 | 0.00 | 81 | 1002.6 |
| 20260507020125 | 44 | 130 | 2.6 | 3.5 | 0.00 | 0.00 | 0.00 | 81 | 1002.6 |
| 20260507020004 | 44 | 129 | 2.6 | 3.5 | 0.00 | 0.00 | 0.00 | 81 | 1002.4 |
| 20260507015903 | 44 | 130 | 2.6 | 3.5 | 0.00 | 0.00 | 0.00 | 81 | 1002.5 |
| 20260507015803 | 44 | 129 | 2.6 | 3.5 | 0.00 | 0.00 | 0.00 | 81 | 1002.4 |
| 20260507015703 | 44 | 129 | 2.6 | 3.5 | 0.00 | 0.00 | 0.00 | 82 | 1002.3 |
| 20260507015624 | 44 | 128 | 2.6 | 3.5 | 0.00 | 0.00 | 0.00 | 81 | 1002.3 |
| 20260507015503 | 44 | 128 | 2.6 | 3.5 | 0.00 | 0.00 | 0.00 | 81 | 1002.6 |
| 20260507015403 | 44 | 129 | 2.6 | 3.5 | 0.00 | 0.00 | 0.00 | 81 | 1002.4 |
| 20260507015306 | 44 | 130 | 2.6 | 3.5 | 0.00 | 0.00 | 0.00 | 81 | 1002.1 |
| 20260507015203 | 44 | 129 | 2.6 | 3.5 | 0.00 | 0.00 | 0.00 | 81 | 1002.4 |
| 20260507015104 | 44 | 130 | 2.6 | 3.5 | 0.00 | 0.00 | 0.00 | 81 | 1002.4 |
| 20260507015024 | 44 | 131 | 2.6 | 3.5 | 0.00 | 0.00 | 0.00 | 81 | 1002.4 |
| 20260507014903 | 44 | 128 | 2.6 | 3.5 | 0.00 | 0.00 | 0.00 | 81 | 1002.3 |
| 20260507014803 | 44 | 129 | 2.6 | 3.5 | 0.00 | 0.00 | 0.00 | 81 | 1002.6 |
| 20260507014704 | 44 | 129 | 2.6 | 3.5 | 0.00 | 0.00 | 0.00 | 81 | 1002.3 |
| 20260507014624 | 44 | 130 | 2.6 | 3.5 | 0.00 | 0.00 | 0.00 | 81 | 1002.3 |
| 20260507014503 | 44 | 131 | 2.6 | 3.5 | 0.00 | 0.00 | 0.00 | 81 | 1002.4 |
| 20260507014403 | 44 | 130 | 2.6 | 5.2 | 0.00 | 0.00 | 0.00 | 80 | 1002.6 |
| 20260507014304 | 44 | 130 | 2.6 | 5.2 | 0.00 | 0.00 | 0.00 | 81 | 1002.5 |
| 20260507014203 | 44 | 132 | 2.6 | 5.2 | 0.00 | 0.00 | 0.00 | 81 | 1002.4 |
| 20260507014104 | 44 | 131 | 2.6 | 5.2 | 0.00 | 0.00 | 0.00 | 81 | 1002.6 |
| 20260507014003 | 44 | 132 | 2.6 | 5.2 | 0.00 | 0.00 | 0.00 | 81 | 1002.5 |
| 20260507013904 | 44 | 133 | 2.6 | 5.2 | 0.00 | 0.00 | 0.00 | 81 | 1002.2 |
| 20260507013803 | 44 | 134 | 2.6 | 5.2 | 0.00 | 0.00 | 0.00 | 80 | 1002.4 |
| 20260507013703 | 45 | 136 | 2.6 | 5.2 | 0.00 | 0.00 | 0.00 | 80 | 1002.6 |
| 20260507013603 | 45 | 138 | 2.6 | 5.2 | 0.00 | 0.00 | 0.00 | 79 | 1002.4 |
| 20260507013524 | 45 | 138 | 2.6 | 5.2 | 0.00 | 0.00 | 0.00 | 80 | 1002.4 |
| 20260507013403 | 44 | 137 | 2.6 | 5.2 | 0.00 | 0.00 | 0.00 | 79 | 1002.4 |
| 20260507013303 | 44 | 138 | 2.6 | 5.2 | 0.00 | 0.00 | 0.00 | 79 | 1002.6 |
| 20260507013204 | 44 | 136 | 2.6 | 3.5 | 0.00 | 0.00 | 0.00 | 80 | 1002.6 |
| 20260507013124 | 44 | 138 | 2.6 | 5.2 | 0.00 | 0.00 | 0.00 | 80 | 1002.6 |
| 20260507013003 | 44 | 138 | 2.6 | 7.0 | 0.00 | 0.00 | 0.00 | 80 | 1002.4 |
| 20260507012903 | 44 | 138 | 2.6 | 7.0 | 0.00 | 0.00 | 0.00 | 79 | 1002.4 |
| 20260507012803 | 44 | 138 | 2.6 | 7.0 | 0.00 | 0.00 | 0.00 | 79 | 1002.6 |
| 20260507012704 | 44 | 134 | 2.6 | 7.0 | 0.00 | 0.00 | 0.00 | 80 | 1002.7 |
| 20260507012603 | 44 | 132 | 2.6 | 7.0 | 0.00 | 0.00 | 0.00 | 81 | 1002.7 |
| 20260507012503 | 44 | 132 | 2.6 | 7.0 | 0.00 | 0.00 | 0.00 | 81 | 1002.5 |
| 20260507012403 | 44 | 132 | 2.6 | 7.0 | 0.00 | 0.00 | 0.00 | 80 | 1002.6 |
| 20260507012306 | 45 | 132 | 2.6 | 7.0 | 0.00 | 0.00 | 0.00 | 79 | 1002.4 |
| 20260507012203 | 45 | 133 | 2.6 | 7.0 | 0.00 | 0.00 | 0.00 | 79 | 1002.3 |
| 20260507012104 | 44 | 131 | 2.6 | 7.0 | 0.00 | 0.00 | 0.00 | 79 | 1002.5 |
| 20260507012003 | 44 | 129 | 2.6 | 7.0 | 0.00 | 0.00 | 0.00 | 79 | 1002.5 |
| 20260507011903 | 44 | 127 | 2.6 | 5.2 | 0.00 | 0.00 | 0.00 | 81 | 1002.5 |
| 20260507011803 | 43 | 125 | 2.6 | 5.2 | 0.00 | 0.00 | 0.00 | 81 | 1002.5 |
| 20260507011703 | 43 | 126 | 2.6 | 5.2 | 0.00 | 0.00 | 0.00 | 81 | 1002.6 |
| 20260507011603 | 43 | 127 | 2.6 | 5.2 | 0.00 | 0.00 | 0.00 | 81 | 1002.5 |
| 20260507011504 | 43 | 126 | 1.7 | 5.2 | 0.00 | 0.00 | 0.00 | 82 | 1002.6 |
| 20260507011403 | 43 | 124 | 2.6 | 5.2 | 0.00 | 0.00 | 0.00 | 82 | 1002.6 |
| 20260507011303 | 43 | 126 | 2.6 | 5.2 | 0.00 | 0.00 | 0.00 | 81 | 1002.5 |
| 20260507011203 | 44 | 127 | 2.6 | 5.2 | 0.00 | 0.00 | 0.00 | 81 | 1002.4 |
| 20260507010903 | 44 | 132 | 2.6 | 5.2 | 0.00 | 0.00 | 0.00 | 80 | 1002.4 |
| 20260507010803 | 44 | 134 | 2.6 | 5.2 | 0.00 | 0.00 | 0.00 | 81 | 1002.7 |
| 20260507010704 | 44 | 137 | 1.7 | 5.2 | 0.00 | 0.00 | 0.00 | 80 | 1002.3 |
| 20260507010603 | 44 | 139 | 2.6 | 5.2 | 0.00 | 0.00 | 0.00 | 79 | 1002.5 |
| 20260507010503 | 44 | 140 | 2.6 | 5.2 | 0.00 | 0.00 | 0.00 | 79 | 1002.5 |
| 20260507010403 | 44 | 144 | 1.7 | 5.2 | 0.00 | 0.00 | 0.00 | 78 | 1002.5 |
| 20260507010303 | 44 | 144 | 1.7 | 3.5 | 0.00 | 0.00 | 0.00 | 79 | 1002.6 |
| 20260507010203 | 44 | 144 | 1.7 | 3.5 | 0.00 | 0.00 | 0.00 | 78 | 1002.4 |
| 20260507010003 | 44 | 148 | 1.7 | 3.5 | 0.00 | 0.00 | 0.00 | 78 | 1002.6 |
| 20260507005903 | 44 | 150 | 1.7 | 3.5 | 0.00 | 0.00 | 0.00 | 79 | 1002.8 |
| 20260507005803 | 44 | 153 | 1.7 | 3.5 | 0.00 | 0.00 | 0.00 | 79 | 1002.5 |
| 20260507005703 | 44 | 154 | 1.7 | 3.5 | 0.00 | 0.00 | 0.00 | 79 | 1002.4 |
| 20260507005603 | 44 | 155 | 1.7 | 3.5 | 0.00 | 0.00 | 0.00 | 79 | 1002.5 |
| 20260507005503 | 44 | 157 | 1.7 | 3.5 | 0.00 | 0.00 | 0.00 | 79 | 1002.6 |
| 20260507005403 | 44 | 160 | 1.7 | 3.5 | 0.00 | 0.00 | 0.00 | 79 | 1002.7 |
| 20260507005305 | 44 | 158 | 1.7 | 3.5 | 0.00 | 0.00 | 0.00 | 79 | 1002.7 |
| 20260507005203 | 44 | 158 | 1.7 | 3.5 | 0.00 | 0.00 | 0.00 | 80 | 1002.6 |
| 20260507005103 | 44 | 155 | 1.7 | 3.5 | 0.00 | 0.00 | 0.00 | 79 | 1002.6 |
| 20260507005003 | 44 | 151 | 1.7 | 3.5 | 0.00 | 0.00 | 0.00 | 79 | 1002.6 |
| 20260507004903 | 44 | 151 | 1.7 | 3.5 | 0.00 | 0.00 | 0.00 | 79 | 1002.7 |
| 20260507004824 | 44 | 149 | 1.7 | 3.5 | 0.00 | 0.00 | 0.00 | 79 | 1002.7 |
| 20260507004703 | 44 | 143 | 1.7 | 3.5 | 0.00 | 0.00 | 0.00 | 79 | 1002.5 |
| 20260507004603 | 44 | 140 | 1.7 | 3.5 | 0.00 | 0.00 | 0.00 | 79 | 1002.5 |
| 20260507004503 | 44 | 136 | 2.6 | 3.5 | 0.00 | 0.00 | 0.00 | 79 | 1002.6 |
| 20260507004403 | 44 | 132 | 2.6 | 3.5 | 0.00 | 0.00 | 0.00 | 79 | 1002.6 |
| 20260507004303 | 44 | 132 | 2.6 | 3.5 | 0.00 | 0.00 | 0.00 | 79 | 1002.3 |
| 20260507004224 | 44 | 131 | 2.6 | 3.5 | 0.00 | 0.00 | 0.00 | 79 | 1002.3 |
| 20260507004124 | 43 | 130 | 1.7 | 3.5 | 0.00 | 0.00 | 0.00 | 80 | 1002.5 |
| 20260507004024 | 43 | 132 | 1.7 | 3.5 | 0.00 | 0.00 | 0.00 | 80 | 1002.5 |
| 20260507003903 | 43 | 132 | 1.7 | 3.5 | 0.00 | 0.00 | 0.00 | 82 | 1002.5 |
| 20260507003803 | 43 | 131 | 1.7 | 3.5 | 0.00 | 0.00 | 0.00 | 82 | 1002.4 |
| 20260507003703 | 43 | 132 | 1.7 | 3.5 | 0.00 | 0.00 | 0.00 | 82 | 1002.5 |
| 20260507003603 | 43 | 134 | 1.7 | 3.5 | 0.00 | 0.00 | 0.00 | 82 | 1002.5 |
| 20260507003503 | 43 | 137 | 1.7 | 2.6 | 0.00 | 0.00 | 0.00 | 82 | 1002.7 |
| 20260507003403 | 43 | 142 | 1.7 | 3.5 | 0.00 | 0.00 | 0.00 | 81 | 1002.5 |
| 20260507003303 | 44 | 142 | 1.7 | 3.5 | 0.00 | 0.00 | 0.00 | 81 | 1002.6 |
| 20260507003224 | 44 | 143 | 1.7 | 3.5 | 0.00 | 0.00 | 0.00 | 80 | 1002.6 |
| 20260507003124 | 44 | 145 | 1.7 | 3.5 | 0.00 | 0.00 | 0.00 | 79 | 1002.5 |
| 20260507003003 | 44 | 145 | 1.7 | 3.5 | 0.00 | 0.00 | 0.00 | 79 | 1002.7 |
| 20260507002903 | 44 | 147 | 1.7 | 3.5 | 0.00 | 0.00 | 0.00 | 79 | 1002.6 |
| 20260507002803 | 44 | 147 | 1.7 | 3.5 | 0.00 | 0.00 | 0.00 | 79 | 1002.4 |
| 20260507002724 | 44 | 146 | 1.7 | 3.5 | 0.00 | 0.00 | 0.00 | 79 | 1002.4 |
| 20260507002603 | 44 | 146 | 1.7 | 3.5 | 0.00 | 0.00 | 0.00 | 79 | 1002.8 |
| 20260507002503 | 44 | 144 | 1.7 | 3.5 | 0.00 | 0.00 | 0.00 | 79 | 1002.6 |
| 20260507002403 | 44 | 144 | 1.7 | 3.5 | 0.00 | 0.00 | 0.00 | 79 | 1002.7 |
| 20260507002306 | 44 | 145 | 1.7 | 3.5 | 0.00 | 0.00 | 0.00 | 79 | 1002.5 |
| 20260507002224 | 44 | 143 | 1.7 | 3.5 | 0.00 | 0.00 | 0.00 | 79 | 1002.5 |
| 20260507002103 | 44 | 141 | 1.7 | 3.5 | 0.00 | 0.00 | 0.00 | 79 | 1002.5 |
| 20260507002004 | 44 | 141 | 1.7 | 3.5 | 0.00 | 0.00 | 0.00 | 79 | 1002.8 |
| 20260507001903 | 44 | 139 | 2.6 | 3.5 | 0.00 | 0.00 | 0.00 | 79 | 1002.8 |
| 20260507001825 | 44 | 140 | 2.6 | 3.5 | 0.00 | 0.00 | 0.00 | 79 | 1002.8 |
| 20260507001724 | 44 | 142 | 2.6 | 3.5 | 0.00 | 0.00 | 0.00 | 79 | 1002.6 |
| 20260507001603 | 44 | 141 | 2.6 | 3.5 | 0.00 | 0.00 | 0.00 | 79 | 1002.4 |
| 20260507001503 | 44 | 141 | 2.6 | 3.5 | 0.00 | 0.00 | 0.00 | 79 | 1002.6 |
| 20260507001403 | 44 | 139 | 2.6 | 3.5 | 0.00 | 0.00 | 0.00 | 79 | 1002.4 |
| 20260507001303 | 44 | 138 | 2.6 | 3.5 | 0.00 | 0.00 | 0.00 | 79 | 1002.5 |
| 20260507001203 | 44 | 137 | 2.6 | 3.5 | 0.00 | 0.00 | 0.00 | 79 | 1002.6 |
| 20260507001103 | 44 | 137 | 2.6 | 3.5 | 0.00 | 0.00 | 0.00 | 79 | 1002.5 |
| 20260507001003 | 43 | 135 | 1.7 | 3.5 | 0.00 | 0.00 | 0.00 | 80 | 1002.7 |
| 20260507000903 | 43 | 134 | 1.7 | 3.5 | 0.00 | 0.00 | 0.00 | 81 | 1002.7 |
| 20260507000824 | 43 | 133 | 1.7 | 3.5 | 0.00 | 0.00 | 0.00 | 82 | 1002.7 |
| 20260507000703 | 43 | 130 | 1.7 | 3.5 | 0.00 | 0.00 | 0.00 | 81 | 1002.6 |
| 20260507000624 | 43 | 129 | 1.7 | 3.5 | 0.00 | 0.00 | 0.00 | 81 | 1002.6 |
| 20260507000525 | 43 | 128 | 1.7 | 3.5 | 0.00 | 0.00 | 0.00 | 81 | 1002.5 |
| 20260507000405 | 43 | 127 | 1.7 | 3.5 | 0.00 | 0.00 | 0.00 | 81 | 1002.5 |
| 20260507000324 | 43 | 127 | 1.7 | 3.5 | 0.00 | 0.00 | 0.00 | 80 | 1002.5 |
| 20260507000205 | 43 | 125 | 1.7 | 2.6 | 0.00 | 0.00 | 0.00 | 81 | 1002.7 |
| 20260507000124 | 43 | 126 | 1.7 | 2.6 | 0.00 | 0.00 | 0.00 | 81 | 1002.7 |
| 20260507000004 | 43 | 126 | 1.7 | 2.6 | 0.00 | 0.00 | 0.00 | 82 | 1002.8 |
| 20260506235924 | 43 | 127 | 1.7 | 2.6 | 0.00 | 0.00 | 0.00 | 82 | 1002.8 |
| 20260506235803 | 43 | 128 | 1.7 | 2.6 | 0.00 | 0.00 | 0.00 | 82 | 1002.7 |
| 20260506235703 | 43 | 127 | 1.7 | 2.6 | 0.00 | 0.00 | 0.00 | 81 | 1002.6 |
| 20260506235603 | 43 | 126 | 1.7 | 2.6 | 0.00 | 0.00 | 0.00 | 81 | 1002.5 |
| 20260506235503 | 43 | 126 | 1.7 | 2.6 | 0.00 | 0.00 | 0.00 | 81 | 1002.6 |
| 20260506235403 | 43 | 128 | 1.7 | 2.6 | 0.00 | 0.00 | 0.00 | 81 | 1002.4 |
| 20260506235306 | 43 | 127 | 1.7 | 2.6 | 0.00 | 0.00 | 0.00 | 82 | 1002.7 |
| 20260506235203 | 43 | 126 | 1.7 | 3.5 | 0.00 | 0.00 | 0.00 | 82 | 1002.7 |
| 20260506235104 | 43 | 123 | 1.7 | 3.5 | 0.00 | 0.00 | 0.00 | 82 | 1002.7 |
| 20260506235004 | 43 | 121 | 1.7 | 3.5 | 0.00 | 0.00 | 0.00 | 82 | 1002.7 |
| 20260506234903 | 43 | 117 | 1.7 | 3.5 | 0.00 | 0.00 | 0.00 | 82 | 1002.7 |
| 20260506234803 | 43 | 116 | 1.7 | 3.5 | 0.00 | 0.00 | 0.00 | 82 | 1002.6 |
| 20260506234703 | 43 | 114 | 1.7 | 5.2 | 0.00 | 0.00 | 0.00 | 82 | 1002.6 |
| 20260506234603 | 43 | 112 | 1.7 | 5.2 | 0.00 | 0.00 | 0.00 | 82 | 1002.5 |
| 20260506234524 | 43 | 112 | 2.6 | 5.2 | 0.00 | 0.00 | 0.00 | 82 | 1002.5 |
| 20260506234403 | 43 | 110 | 2.6 | 5.2 | 0.00 | 0.00 | 0.00 | 81 | 1002.6 |
| 20260506234303 | 44 | 109 | 2.6 | 5.2 | 0.00 | 0.00 | 0.00 | 81 | 1002.7 |
| 20260506234203 | 44 | 109 | 2.6 | 5.2 | 0.00 | 0.00 | 0.00 | 81 | 1002.5 |
| 20260506234103 | 44 | 109 | 2.6 | 5.2 | 0.00 | 0.00 | 0.00 | 81 | 1002.8 |
| 20260506234003 | 44 | 109 | 2.6 | 5.2 | 0.00 | 0.00 | 0.00 | 81 | 1002.6 |
| 20260506233904 | 44 | 110 | 2.6 | 5.2 | 0.00 | 0.00 | 0.00 | 81 | 1002.5 |
| 20260506233803 | 44 | 111 | 2.6 | 5.2 | 0.00 | 0.00 | 0.00 | 80 | 1002.9 |
| 20260506233724 | 44 | 111 | 2.6 | 5.2 | 0.00 | 0.00 | 0.00 | 80 | 1002.9 |
| 20260506233603 | 44 | 113 | 2.6 | 5.2 | 0.00 | 0.00 | 0.00 | 80 | 1002.8 |
| 20260506233503 | 44 | 114 | 2.6 | 3.5 | 0.00 | 0.00 | 0.00 | 80 | 1002.5 |
| 20260506233403 | 44 | 116 | 1.7 | 3.5 | 0.00 | 0.00 | 0.00 | 80 | 1002.5 |
| 20260506233303 | 44 | 117 | 1.7 | 3.5 | 0.00 | 0.00 | 0.00 | 80 | 1002.7 |
| 20260506233203 | 44 | 118 | 1.7 | 3.5 | 0.00 | 0.00 | 0.00 | 81 | 1002.7 |
| 20260506233103 | 44 | 120 | 1.7 | 3.5 | 0.00 | 0.00 | 0.00 | 81 | 1002.5 |
| 20260506233003 | 44 | 122 | 1.7 | 3.5 | 0.00 | 0.00 | 0.00 | 81 | 1002.5 |
| 20260506232903 | 44 | 125 | 1.7 | 3.5 | 0.00 | 0.00 | 0.00 | 81 | 1002.7 |
| 20260506232824 | 44 | 126 | 1.7 | 3.5 | 0.00 | 0.00 | 0.00 | 81 | 1002.7 |
| 20260506232724 | 44 | 129 | 1.7 | 2.6 | 0.00 | 0.00 | 0.00 | 81 | 1002.9 |
| 20260506232603 | 44 | 132 | 1.7 | 2.6 | 0.00 | 0.00 | 0.00 | 82 | 1002.7 |
| 20260506232524 | 44 | 133 | 1.7 | 2.6 | 0.00 | 0.00 | 0.00 | 82 | 1002.7 |
| 20260506232424 | 44 | 134 | 1.7 | 2.6 | 0.00 | 0.00 | 0.00 | 81 | 1002.8 |
| 20260506232306 | 44 | 134 | 1.7 | 2.6 | 0.00 | 0.00 | 0.00 | 81 | 1002.5 |
| 20260506232203 | 44 | 135 | 1.7 | 2.6 | 0.00 | 0.00 | 0.00 | 81 | 1002.8 |
| 20260506232103 | 44 | 136 | 1.7 | 2.6 | 0.00 | 0.00 | 0.00 | 81 | 1002.6 |
| 20260506232003 | 44 | 136 | 1.7 | 2.6 | 0.00 | 0.00 | 0.00 | 81 | 1002.8 |
| 20260506231924 | 44 | 136 | 1.7 | 2.6 | 0.00 | 0.00 | 0.00 | 81 | 1002.8 |
| 20260506231804 | 44 | 135 | 1.7 | 2.6 | 0.00 | 0.00 | 0.00 | 81 | 1002.7 |
| 20260506231724 | 44 | 135 | 1.7 | 2.6 | 0.00 | 0.00 | 0.00 | 82 | 1002.7 |
| 20260506231603 | 44 | 135 | 1.7 | 2.6 | 0.00 | 0.00 | 0.00 | 81 | 1002.6 |
| 20260506231524 | 44 | 135 | 1.7 | 2.6 | 0.00 | 0.00 | 0.00 | 81 | 1002.6 |
| 20260506231424 | 44 | 134 | 1.7 | 2.6 | 0.00 | 0.00 | 0.00 | 81 | 1002.8 |
| 20260506231303 | 44 | 134 | 1.7 | 2.6 | 0.00 | 0.00 | 0.00 | 81 | 1002.8 |
| 20260506231224 | 44 | 134 | 1.7 | 2.6 | 0.00 | 0.00 | 0.00 | 81 | 1002.8 |
| 20260506231103 | 44 | 134 | 1.7 | 2.6 | 0.00 | 0.00 | 0.00 | 81 | 1002.6 |
| 20260506231003 | 43 | 133 | 1.7 | 2.6 | 0.00 | 0.00 | 0.00 | 82 | 1002.6 |
| 20260506230903 | 43 | 134 | 1.7 | 2.6 | 0.00 | 0.00 | 0.00 | 82 | 1002.6 |
| 20260506230803 | 43 | 134 | 1.7 | 2.6 | 0.00 | 0.00 | 0.00 | 81 | 1002.6 |
| 20260506230724 | 43 | 134 | 1.7 | 2.6 | 0.00 | 0.00 | 0.00 | 82 | 1002.6 |
| 20260506230603 | 43 | 135 | 1.7 | 2.6 | 0.00 | 0.00 | 0.00 | 82 | 1002.4 |
| 20260506230503 | 43 | 135 | 1.7 | 2.6 | 0.00 | 0.00 | 0.00 | 82 | 1002.8 |
| 20260506230403 | 43 | 136 | 1.7 | 2.6 | 0.00 | 0.00 | 0.00 | 81 | 1002.7 |
| 20260506230303 | 43 | 136 | 1.7 | 2.6 | 0.00 | 0.00 | 0.00 | 81 | 1002.9 |